GFSSGP_500_rhum_000.txt.gz
RH
14 12 29 26 13 8 9 14 14 15 19 16 14 24 33 36 47 49 46 51 49 46 42 40 40 37 33 36 32 28 27 25 18 12 8 9 10 9 10 10 10 10 11 11 12 9 7 6 9
15 14 27 30 17 16 18 18 19 19 18 17 16 22 36 39 49 62 64 58 52 38 38 49 49 40 44 37 32 24 23 19 12 4 7 9 11 11 11 10 11 11 12 11 10 9 7 6 11
18 15 22 33 17 21 24 22 25 23 21 22 22 21 36 38 46 72 75 75 68 45 50 53 48 44 40 40 33 28 18 13 7 3 5 9 12 12 11 12 13 11 11 11 11 10 8 5 9
22 18 20 39 20 20 27 28 29 24 21 24 24 23 32 40 56 88 92 87 70 50 45 52 48 44 47 44 32 30 22 20 8 5 6 8 12 12 12 13 13 12 11 10 10 9 8 4 6
28 21 18 42 28 18 25 32 30 25 24 26 29 26 26 34 89 93 86 83 68 58 47 51 45 45 45 44 35 31 30 21 21 12 9 10 11 11 12 13 13 11 11 9 8 9 8 7 9
32 26 20 24 38 21 21 29 29 25 28 28 29 26 25 29 70 91 82 80 64 56 51 52 48 46 45 43 39 32 31 30 24 23 21 16 13 10 8 7 7 8 9 8 9 11 10 9 10
31 31 23 17 40 32 18 22 24 25 27 27 30 23 22 19 31 77 78 67 60 53 54 54 47 45 45 42 39 37 33 30 32 30 26 25 24 19 10 8 6 8 8 10 12 13 14 15 14
35 31 26 19 24 41 27 16 19 20 25 29 30 22 21 43 32 68 71 80 65 53 50 54 40 39 43 42 38 36 36 38 36 33 32 29 27 26 25 12 9 10 10 11 12 12 12 13 16
40 29 28 26 16 27 33 21 14 15 26 28 29 20 50 89 60 65 71 72 68 55 53 46 40 32 37 43 43 40 35 35 36 38 38 36 32 29 30 29 24 14 12 12 15 19 22 22 22
40 33 30 31 18 18 29 31 15 15 24 27 31 36 74 76 78 75 76 76 67 60 62 41 39 35 30 28 30 32 35 34 32 35 39 39 36 32 27 26 25 24 23 22 22 22 23 26 26
43 33 34 33 25 16 20 36 19 12 19 28 35 71 79 84 70 71 76 76 69 74 63 43 38 34 31 29 27 26 26 31 31 30 35 36 32 28 26 26 26 25 25 25 26 27 27 27 25
48 40 34 35 31 16 16 34 26 10 15 28 34 44 50 77 75 68 67 68 78 78 67 54 41 36 32 28 26 26 26 30 31 31 33 32 31 30 29 29 28 27 27 26 25 22 19 13 5
54 44 37 37 34 21 16 24 30 21 14 29 32 34 49 72 67 66 65 67 83 78 69 62 57 50 39 31 28 26 28 30 28 26 27 27 26 24 22 22 20 19 16 10 5 3 2 3 5
62 50 41 39 37 28 20 22 16 36 15 19 30 36 56 72 59 66 72 70 78 75 59 55 53 50 46 41 35 28 26 29 29 30 30 28 24 20 18 14 9 4 1 2 2 3 3 4 6
65 53 42 42 40 31 26 23 22 38 27 17 25 34 37 70 67 75 80 78 70 56 48 46 45 44 44 39 32 27 26 30 31 28 31 32 25 14 5 3 2 2 2 2 4 8 13 20 23
74 57 42 50 42 32 27 29 27 20 32 21 24 33 35 65 69 73 74 64 50 45 45 49 49 48 48 46 35 28 31 29 28 31 32 31 26 12 3 2 6 7 9 13 20 23 26 27 27
83 55 45 52 41 35 25 32 22 20 26 31 20 33 40 56 62 67 63 61 54 50 49 45 52 44 33 50 45 42 35 28 35 33 29 18 9 3 4 7 9 11 16 24 28 33 35 36 34
74 59 51 49 42 32 24 35 22 18 22 31 21 33 39 50 59 57 51 44 40 49 50 56 48 14 37 60 57 44 36 37 34 21 8 4 5 9 11 14 19 27 30 36 39 37 34 27 20
90 74 53 50 43 32 26 34 25 17 27 26 24 38 38 47 52 51 46 42 40 48 55 34 21 47 60 55 49 41 39 31 15 9 8 12 14 26 35 38 41 42 41 34 27 21 17 13 12
88 72 54 60 43 30 31 32 25 20 24 29 24 40 38 40 43 48 45 42 42 48 28 36 55 54 56 49 39 39 31 19 12 12 14 20 32 38 41 40 36 29 25 24 22 19 16 15 15
92 69 56 68 46 29 32 34 28 22 24 31 23 35 37 42 44 46 43 45 41 18 32 61 62 58 46 39 40 29 19 14 13 18 30 38 45 43 35 30 25 23 20 16 17 17 15 12 12
95 71 66 70 50 37 32 30 32 29 25 30 23 36 42 45 48 48 43 23 7 18 32 44 54 52 45 40 31 23 19 18 30 40 48 48 42 34 28 23 16 16 19 19 16 13 12 12 12
96 77 78 66 53 40 37 34 33 29 26 29 22 43 48 48 48 50 43 18 16 27 34 40 50 48 48 37 24 20 21 36 47 54 44 35 31 28 22 17 20 19 17 16 15 15 15 15 15
94 85 73 62 52 43 36 35 50 39 40 34 21 37 43 44 50 55 40 26 33 38 44 53 53 45 31 23 19 26 48 56 49 36 30 30 30 23 21 20 18 17 16 16 15 15 18 18 19
96 87 72 63 54 42 40 35 48 46 45 43 22 10 22 39 51 43 26 29 41 49 52 46 34 25 20 16 34 54 48 41 32 32 33 26 22 21 18 18 18 18 18 19 19 20 21 20 19
86 80 68 66 58 44 45 36 39 42 50 45 33 16 11 15 18 18 21 25 33 36 30 26 21 17 21 34 50 40 35 33 32 25 24 23 20 18 19 22 23 22 22 22 22 22 21 19 17
86 75 67 70 57 43 48 39 44 37 34 34 31 26 12 12 14 16 18 19 20 20 18 18 16 24 43 51 42 40 34 24 25 26 21 19 20 23 24 25 25 24 24 25 24 22 20 17 15
81 80 69 61 57 55 54 46 45 34 26 25 29 31 31 25 14 11 12 16 18 15 14 17 36 55 49 45 39 27 25 27 24 21 21 24 25 27 28 29 28 28 28 27 24 20 18 15 14
66 85 77 68 53 46 49 42 35 34 32 31 28 28 26 24 20 12 10 10 11 16 31 56 56 49 44 33 27 28 28 24 23 26 27 29 31 32 32 32 32 32 31 26 22 19 17 16 14
97 87 97 70 51 44 44 50 38 32 30 30 26 20 14 10 5 8 14 20 32 56 58 52 49 39 31 26 27 26 25 28 28 30 34 35 35 34 36 37 37 34 28 24 21 20 18 14 10

GFSSGP_500_rhum_003.txt.gz
RH
24 19 13 15 29 22 11 7 6 10 11 10 14 20 21 30 26 36 39 33 39 45 42 33 31 42 39 33 30 34 30 25 25 23 15 11 10 9 8 8 10 10 10 11 12 12 11 8 7
26 25 18 18 29 25 15 13 14 14 14 14 15 16 20 28 29 27 29 38 44 50 44 30 46 50 42 39 40 35 29 23 17 10 5 5 8 10 10 10 10 10 10 11 12 12 10 9 9
27 29 21 17 37 24 36 17 14 19 21 20 16 17 26 24 29 30 32 34 57 62 52 38 49 49 43 39 30 36 31 22 15 4 1 4 10 12 12 12 11 12 12 12 10 11 10 10 8
31 28 26 18 31 30 22 23 24 26 25 20 20 23 24 22 25 32 31 59 75 76 45 41 50 50 44 42 38 39 33 30 20 17 3 3 6 8 12 13 12 13 14 13 12 11 10 9 8
35 31 31 21 22 35 24 25 29 31 27 25 26 23 22 22 23 26 39 77 89 78 45 41 50 46 43 42 44 42 35 31 29 20 17 8 6 9 12 13 13 12 12 10 10 9 8 8 7
40 34 32 28 22 32 32 23 34 34 28 27 27 28 25 22 19 27 71 89 72 69 49 44 49 50 46 45 42 41 38 32 29 30 25 21 18 13 11 11 10 7 5 6 8 8 9 11 11
43 37 35 34 26 22 39 26 29 34 29 27 28 30 25 21 17 21 58 81 62 56 50 50 53 49 42 43 42 40 36 35 36 34 30 31 29 25 24 24 19 10 8 8 9 10 12 13 14
46 46 34 33 34 25 22 37 22 30 26 23 31 33 33 21 18 18 23 65 57 50 53 51 55 44 37 35 40 40 37 34 33 33 35 37 36 33 30 28 30 29 20 12 14 13 13 12 14
58 44 37 36 38 31 21 29 36 19 21 25 30 31 27 23 34 33 31 65 61 56 59 56 60 41 32 30 33 32 29 30 31 32 31 33 37 40 39 36 32 29 29 27 24 22 21 21 22
54 51 42 38 39 36 29 18 35 26 17 18 25 30 27 22 71 60 48 65 68 66 67 60 59 41 36 32 29 28 27 26 25 27 30 30 34 38 37 33 32 30 28 25 23 23 23 23 24
36 51 51 41 37 38 34 25 18 32 17 16 23 26 26 30 74 78 75 72 72 69 67 72 57 40 35 34 36 33 32 31 27 27 30 32 33 34 32 30 28 26 26 25 25 25 25 25 25
26 42 59 43 34 41 38 31 17 30 15 13 18 28 29 49 69 77 75 70 70 71 66 72 58 45 38 40 35 34 35 33 30 28 28 28 28 28 26 26 25 23 22 21 18 19 17 14 7
32 32 63 50 34 41 40 33 22 21 21 9 12 24 35 60 70 83 72 66 61 62 67 70 62 54 49 54 51 45 41 39 30 28 29 28 29 28 26 22 18 16 14 10 6 1 0 1 2
32 39 61 56 37 38 39 35 24 20 28 22 9 24 32 39 52 65 68 64 60 58 69 72 61 50 48 46 45 44 37 35 33 27 30 28 25 27 29 28 24 15 6 2 3 3 3 5 9
44 43 65 57 44 41 39 34 31 24 15 34 24 16 30 31 31 63 58 58 65 65 66 68 62 49 43 45 44 43 38 34 31 33 28 22 28 30 30 28 21 11 4 4 5 9 15 20 24
39 47 47 57 47 47 40 36 35 22 16 20 32 16 21 33 36 70 64 66 73 76 70 59 44 44 51 49 48 45 49 48 46 42 25 31 32 27 14 4 3 7 9 11 14 18 23 26 26
59 42 38 65 51 51 37 36 36 31 22 18 30 25 21 34 36 63 69 67 73 72 59 51 49 49 48 52 53 34 48 56 50 36 35 32 17 6 6 10 16 27 32 33 34 35 34 34 30
51 43 47 64 60 51 42 35 38 33 27 23 21 32 22 34 37 62 69 67 68 64 56 44 50 53 56 54 19 39 57 52 43 38 34 16 11 12 16 24 34 34 35 36 35 32 29 26 25
68 66 70 73 70 59 46 35 40 31 25 24 21 29 26 31 40 55 60 66 61 53 43 36 36 50 50 24 44 55 51 49 36 34 21 14 14 19 27 33 37 37 34 32 28 24 21 17 16
71 78 84 90 74 57 49 38 39 30 24 22 24 28 20 32 40 48 52 57 52 47 45 41 44 45 22 46 53 55 45 33 35 26 18 16 17 25 36 41 39 34 30 25 19 17 19 21 20
69 92 80 90 85 62 45 38 36 37 24 22 22 28 23 35 44 43 47 49 45 47 46 47 44 48 76 63 54 47 40 39 33 25 16 16 33 45 45 39 34 32 25 18 20 21 18 16 16
73 72 98 96 87 63 47 39 41 36 28 22 20 27 28 26 41 36 38 47 48 44 41 22 14 20 48 50 52 46 45 38 27 17 18 39 50 43 35 34 38 28 23 20 17 16 17 17 17
84 95 87 97 79 65 46 41 35 33 28 26 25 23 30 24 37 43 50 51 50 47 27 11 12 30 39 52 55 48 33 22 17 38 52 50 41 35 40 36 26 22 19 18 21 22 22 21 21
94 94 76 96 83 62 52 47 44 38 32 27 27 25 28 22 38 47 51 52 52 50 31 33 41 50 59 58 43 28 19 22 44 48 43 36 33 30 26 24 21 19 21 23 24 25 25 26 26
97 84 94 96 82 58 61 51 55 40 37 29 28 28 27 18 39 52 49 48 52 43 36 47 54 57 52 34 24 17 23 42 46 42 37 31 26 26 23 21 22 24 26 28 29 29 29 28 29
81 97 87 77 72 59 53 49 48 40 47 38 36 38 32 17 22 32 35 40 42 29 28 36 36 33 26 19 16 24 50 50 44 36 25 27 28 24 25 26 27 30 31 32 32 30 30 32 33
99 97 97 86 65 76 51 55 43 44 40 48 46 40 40 34 18 14 16 19 20 19 22 23 22 19 18 16 34 56 50 42 30 27 30 28 27 28 29 33 34 33 34 33 33 34 38 39 35
97 97 83 76 68 65 62 63 82 47 36 34 37 41 39 35 31 20 15 14 15 15 15 16 15 13 24 52 58 49 37 29 30 30 29 30 31 34 36 36 37 37 37 36 38 43 43 38 32
96 91 94 74 66 78 92 89 65 48 40 32 24 23 25 25 26 28 27 24 18 14 10 12 22 43 59 54 46 34 29 30 30 31 33 36 40 40 41 40 40 40 41 46 49 48 41 36 32
98 98 86 75 69 67 58 82 52 49 40 32 27 24 26 27 27 26 24 19 11 6 16 36 58 60 52 42 29 29 30 31 35 39 42 44 44 43 43 43 43 48 54 54 50 43 38 32 26

GFSSGP_500_rhum_006.txt.gz
RH
23 29 26 20 13 15 28 17 10 6 7 4 8 13 22 23 17 26 20 24 36 28 34 42 37 27 30 33 32 31 32 29 27 24 24 22 15 10 10 9 8 9 10 10 10 11 12 12 11
28 28 28 27 16 15 24 17 19 11 5 9 10 12 23 18 14 16 17 17 20 28 42 49 41 34 42 42 38 30 31 33 26 19 11 6 4 6 9 10 10 10 10 10 10 10 12 12 11
31 30 28 28 25 16 28 23 17 18 13 13 14 13 18 18 15 18 20 19 22 36 51 61 38 40 50 44 40 37 35 36 30 22 16 2 2 6 11 12 12 12 11 12 13 13 12 11 11
36 33 30 29 29 19 24 26 24 23 18 16 17 19 18 17 18 19 19 21 21 29 63 70 35 47 52 43 40 35 33 36 34 31 22 17 5 3 8 10 12 13 13 13 13 13 11 11 10
41 35 33 29 32 25 23 29 27 24 25 25 20 19 14 19 23 22 18 18 24 58 73 66 38 49 49 44 44 40 43 40 35 31 31 27 20 12 8 8 10 12 11 10 8 8 8 9 7
42 39 35 30 35 29 19 27 30 26 29 29 24 23 21 23 24 22 19 21 27 65 66 55 47 50 54 43 44 44 43 39 36 35 31 29 30 28 24 20 17 14 10 9 8 8 8 9 11
46 44 36 37 35 35 23 19 34 27 26 32 26 26 20 22 26 23 20 19 28 71 58 48 52 56 53 40 41 42 42 39 36 34 34 35 37 36 33 31 29 29 30 27 17 12 11 12 12
29 46 40 39 41 39 34 24 22 35 28 28 29 29 23 20 32 26 19 17 24 72 47 45 59 52 54 39 33 37 38 28 27 30 32 32 32 35 39 40 38 36 33 30 30 29 21 13 13
23 24 39 40 47 44 40 28 27 27 34 24 29 31 28 25 35 24 16 18 22 59 47 44 55 65 55 39 32 30 27 27 28 27 28 29 31 31 32 36 41 40 36 33 29 27 26 26 25
19 21 23 48 48 46 37 29 33 25 34 27 21 26 28 28 28 23 20 28 28 58 53 48 55 59 51 38 34 32 32 32 32 30 28 28 30 32 33 34 34 31 30 28 27 26 26 26 26
17 16 23 30 51 46 39 33 39 32 21 35 21 21 21 21 27 27 35 42 40 56 60 58 58 63 51 40 35 37 36 35 37 36 34 29 28 28 28 28 27 25 24 24 24 24 22 21 20
14 14 26 30 46 50 39 42 33 34 27 28 29 19 17 24 30 32 59 63 58 64 62 62 62 66 56 43 42 46 49 42 40 39 37 34 28 28 29 29 27 25 20 16 14 12 12 9 5
15 13 18 28 38 48 43 41 40 31 31 22 31 18 14 20 30 31 53 72 64 63 62 62 63 63 58 52 50 50 50 48 46 43 38 34 30 29 29 28 29 30 30 30 26 15 8 4 3
20 17 17 24 30 34 46 42 41 38 31 22 34 25 10 18 25 30 80 67 73 67 61 60 62 64 61 56 48 47 45 44 43 38 35 32 30 31 25 26 31 32 30 25 17 7 4 3 5
22 20 21 18 28 26 45 43 37 42 33 29 21 31 13 12 24 48 29 47 60 63 61 59 62 68 66 60 53 48 47 48 47 47 44 36 38 31 30 34 31 21 9 5 6 8 8 10 15
29 39 19 16 23 26 33 37 45 43 32 32 20 23 34 15 20 31 33 35 62 56 63 64 64 71 62 49 52 48 47 54 53 39 51 48 41 36 36 22 9 8 10 14 26 31 34 36 35
33 26 22 26 23 29 26 34 51 46 38 35 24 18 23 30 16 25 34 38 64 57 60 75 74 58 50 52 53 54 55 49 24 52 57 49 40 38 25 13 12 16 24 31 34 36 34 31 29
28 28 25 21 25 34 29 38 52 45 40 36 29 24 17 31 20 25 34 36 61 60 65 74 67 60 49 42 46 54 49 30 49 54 52 42 37 31 18 14 16 25 32 39 39 34 30 26 24
37 35 38 48 31 33 33 43 52 50 42 35 34 30 22 25 34 23 33 34 55 64 66 67 62 54 45 39 42 42 32 52 55 52 43 37 36 28 20 14 23 36 44 42 37 32 28 23 21
35 40 36 48 47 48 39 40 55 51 40 38 35 30 23 22 34 26 32 37 51 62 65 64 50 46 44 44 51 53 41 51 54 50 45 44 37 26 13 16 36 44 40 32 33 31 25 21 18
34 34 28 39 61 49 46 41 56 53 42 38 36 30 23 26 28 21 30 39 48 52 58 53 49 48 46 44 24 50 69 61 54 51 50 38 22 12 21 38 46 37 32 32 26 24 21 19 21
33 22 14 32 77 52 52 45 62 59 51 42 35 29 22 25 30 23 34 42 43 46 46 44 49 44 36 10 13 33 40 49 55 50 32 18 12 28 44 41 34 32 27 26 22 20 20 23 24
29 22 15 57 97 72 72 74 68 52 45 35 34 27 20 22 30 28 25 41 36 37 44 48 47 44 28 24 34 44 51 54 40 26 14 12 31 42 40 35 28 27 26 23 23 24 25 27 28
30 24 48 96 100 65 67 80 62 53 40 33 31 26 20 24 25 32 25 35 38 46 50 51 49 48 42 35 42 47 45 32 22 14 17 41 47 40 30 28 29 28 27 28 28 30 32 32 34
41 26 94 98 96 96 94 85 65 56 42 30 32 24 22 28 28 31 23 35 46 50 51 48 53 54 38 27 29 28 23 18 14 25 50 50 38 28 33 32 30 30 31 34 34 33 34 35 35
41 65 98 81 85 82 68 86 62 55 45 38 26 24 24 26 29 29 15 31 45 48 46 43 44 35 24 20 21 19 17 13 39 57 46 32 32 34 33 34 34 36 37 36 35 35 37 36 37
97 94 97 97 98 75 52 74 56 57 44 42 30 30 29 27 35 39 19 10 20 28 28 24 21 21 22 19 17 14 15 55 58 45 33 32 32 35 35 38 39 38 38 38 39 40 40 38 38
93 100 97 98 93 88 84 69 54 52 49 39 35 33 32 32 38 43 37 25 19 17 18 18 18 16 14 12 14 35 60 56 42 32 32 33 37 38 41 41 42 43 43 43 43 40 38 39 41
96 97 92 97 99 83 82 79 59 44 48 41 33 31 33 35 40 40 36 34 28 22 19 19 19 15 10 21 51 62 53 36 32 34 34 39 41 43 45 46 48 48 49 48 44 43 43 40 29
100 100 97 100 98 84 73 61 51 48 49 48 39 34 30 27 28 28 27 26 27 27 24 19 10 12 29 62 60 51 36 37 35 33 41 43 45 48 52 52 51 53 51 47 44 40 28 14 9

GFSSGP_500_rhum_009.txt.gz
RH
27 27 25 24 24 20 13 22 23 19 15 7 8 19 19 16 17 21 17 14 13 14 27 27 31 39 35 28 30 28 24 30 28 27 22 19 23 19 12 10 10 9 9 10 10 10 10 11 12
29 28 30 26 25 24 18 14 12 20 20 11 7 8 10 12 14 15 14 14 13 14 21 32 44 47 35 40 37 33 29 31 36 31 22 18 10 8 5 9 10 10 10 11 11 10 11 10 11
33 29 30 29 28 29 22 15 16 18 20 14 8 8 8 9 15 18 14 13 15 19 24 37 52 56 38 49 44 38 32 36 36 34 31 22 13 1 4 10 12 13 13 13 12 13 14 14 13
35 32 30 32 33 27 26 18 14 21 26 18 14 12 8 9 11 13 14 14 17 21 26 30 70 50 42 51 41 39 36 40 33 34 32 30 24 17 4 6 10 13 14 16 15 15 14 13 10
36 33 32 32 36 33 30 25 17 25 26 22 19 16 16 13 16 18 14 16 17 18 24 65 75 44 44 46 48 44 38 39 40 38 33 30 31 30 24 15 9 9 10 11 10 8 7 6 7
18 32 33 34 37 38 29 27 22 25 27 26 24 22 19 18 19 17 15 18 20 18 27 67 71 44 46 47 46 41 42 43 40 37 36 36 32 30 31 31 28 25 22 20 18 15 11 8 7
19 20 27 35 36 35 32 27 25 20 30 26 27 27 25 21 22 22 22 20 19 20 61 69 61 46 55 51 44 39 40 43 38 34 34 34 34 34 36 37 36 34 32 31 29 28 28 25 13
18 19 18 30 41 40 40 31 35 26 26 30 28 31 28 26 24 26 29 25 18 17 64 65 51 46 54 47 47 36 35 32 26 28 27 27 28 31 32 31 32 35 38 39 37 35 32 29 29
18 10 14 17 42 56 50 38 30 33 28 26 30 30 32 30 26 35 32 25 18 15 59 65 45 49 50 48 47 35 30 29 30 32 32 30 28 28 30 32 32 34 36 38 38 36 33 30 28
11 8 10 21 26 50 55 44 32 35 34 27 31 28 26 25 23 28 30 27 20 16 19 57 50 48 54 53 50 39 34 35 35 34 36 37 35 30 28 28 26 26 27 27 28 28 27 27 26
14 9 13 17 23 31 52 45 34 39 39 32 22 30 26 24 22 26 31 30 23 25 26 40 46 43 52 57 53 38 38 37 39 38 39 42 43 38 33 28 29 29 28 26 24 21 18 15 14
16 13 12 16 20 22 27 45 39 35 43 36 30 22 33 26 20 21 31 24 25 44 39 42 53 48 42 47 49 44 45 48 48 46 45 43 42 37 32 31 30 27 23 26 30 30 30 29 25
23 18 16 14 14 18 21 23 43 41 42 37 35 26 24 31 23 17 23 25 25 42 62 65 60 54 53 49 55 52 50 52 48 49 45 44 41 36 35 32 32 26 25 31 33 31 28 20 14
28 20 14 14 13 12 17 16 23 49 50 35 36 33 22 27 21 14 21 27 28 41 75 68 63 60 56 51 59 59 55 50 47 47 49 48 46 44 39 36 33 31 34 32 20 11 7 6 8
23 18 17 12 16 13 20 12 12 42 53 41 36 35 27 23 23 11 18 22 33 44 60 72 67 57 56 63 63 63 58 56 51 50 53 47 37 50 44 42 38 37 28 13 10 11 14 23 28
24 20 15 17 19 18 19 8 14 22 51 44 38 35 28 21 30 11 13 23 30 38 44 63 61 58 59 66 69 59 55 53 53 56 49 26 52 56 49 41 38 26 15 11 12 19 25 32 37
34 26 22 22 22 22 19 11 16 26 39 47 42 40 30 22 26 32 17 19 27 34 38 58 59 67 73 72 55 54 49 44 45 43 39 48 55 50 41 38 36 29 18 11 14 19 33 41 39
42 46 40 27 32 29 20 12 14 29 31 44 46 39 26 25 20 29 28 18 24 34 38 59 60 73 74 65 56 45 42 43 47 36 45 52 52 48 45 44 38 26 13 13 35 45 44 41 36
66 55 43 38 34 40 25 19 18 27 33 44 47 42 31 29 26 22 29 21 26 34 38 56 64 72 69 56 53 47 45 49 62 47 51 52 53 50 48 39 29 12 9 27 46 43 33 32 29
66 62 46 40 39 44 40 29 28 30 29 47 55 42 36 33 30 24 25 29 24 33 36 45 65 67 61 53 49 50 46 32 31 49 53 53 52 51 38 24 9 14 30 44 39 32 29 26 24
69 64 52 41 43 51 48 40 30 27 25 49 57 46 38 36 31 24 22 32 28 29 38 48 61 64 60 52 51 46 23 10 22 38 43 51 50 33 20 13 14 32 41 37 31 27 26 24 22
64 71 57 41 43 39 61 40 32 23 19 41 60 49 39 38 32 24 25 28 22 27 40 47 52 56 54 49 47 41 28 28 40 47 51 46 28 18 13 18 38 45 35 28 28 28 25 25 28
62 79 67 43 37 50 65 62 27 50 32 37 62 53 42 34 31 24 22 26 22 29 42 43 45 46 46 49 53 55 45 39 37 36 32 21 16 15 28 48 43 32 31 30 29 29 31 32 34
81 71 68 39 40 79 39 83 27 50 36 33 59 54 40 33 28 24 21 28 26 21 38 41 40 46 50 53 57 58 48 28 24 20 19 16 16 38 53 39 33 33 33 34 36 38 38 36 36
89 81 59 63 50 20 81 96 66 68 55 52 57 49 35 31 29 22 21 26 33 17 26 39 43 50 52 52 58 49 30 20 20 17 13 17 54 54 38 35 35 36 39 39 41 40 39 39 39
62 78 45 52 32 34 38 89 78 72 66 75 58 49 32 27 25 23 23 25 31 10 20 37 44 48 49 47 38 22 21 17 15 13 27 59 56 38 35 35 38 40 41 43 41 42 41 40 40
55 45 36 51 36 39 31 94 98 96 96 69 47 41 33 28 27 26 27 32 26 6 10 26 36 38 31 20 19 19 15 13 13 42 61 57 38 36 37 39 41 43 43 42 42 41 40 38 38
91 31 35 46 28 19 26 93 93 83 59 50 42 39 32 31 29 30 31 36 37 23 14 13 14 17 20 17 17 17 10 21 54 63 56 35 37 39 40 43 43 45 47 45 42 40 39 37 22
99 40 28 30 96 95 98 85 99 78 69 53 47 37 29 27 29 33 38 42 43 38 30 25 24 22 21 22 16 10 29 66 62 57 36 38 39 42 43 44 46 52 50 47 43 41 31 14 11
100 96 28 77 94 97 92 70 81 81 58 49 44 37 34 33 33 34 36 40 41 35 28 25 24 26 23 12 10 46 73 64 59 50 48 38 43 46 47 50 56 55 52 46 43 27 12 9 8

GFSSGP_500_rhum_012.txt.gz
RH
20 25 26 25 24 25 22 16 11 14 19 19 16 9 17 28 32 23 14 12 15 14 11 11 15 19 26 33 28 32 26 20 23 25 22 21 15 20 23 16 10 11 9 9 10 11 11 11 13
23 24 25 26 26 29 23 19 13 10 16 20 18 12 9 9 13 14 14 13 15 13 12 13 17 22 32 38 32 31 30 23 28 32 30 25 20 11 8 8 8 10 10 11 12 12 12 13 13
31 26 26 27 30 32 28 23 18 14 15 20 20 15 11 8 8 12 15 14 13 12 14 20 24 33 42 41 33 39 32 29 26 30 34 32 27 18 3 4 7 10 12 13 13 12 13 13 14
22 32 30 28 31 31 30 27 23 18 18 27 24 17 14 11 9 12 13 18 14 12 14 20 23 28 48 40 43 38 40 33 40 36 29 30 30 30 22 12 4 9 13 14 14 14 14 13 13
16 18 25 31 34 33 34 31 27 22 20 27 24 19 16 15 14 14 19 16 13 17 18 18 21 40 59 39 40 47 45 39 36 34 35 34 31 30 30 30 27 18 9 8 9 10 11 11 10
17 16 14 26 40 36 35 32 31 28 19 18 23 22 20 18 17 17 17 17 17 19 19 18 37 69 68 38 34 50 41 40 42 41 38 36 35 35 33 31 30 31 31 29 27 25 24 24 21
18 18 17 17 43 38 37 36 32 31 25 19 22 22 23 23 22 22 21 22 25 23 18 19 31 60 62 38 39 49 40 40 42 36 30 30 32 33 34 34 34 35 37 37 37 35 33 32 31
16 14 12 16 23 51 46 36 40 39 33 24 23 23 26 27 28 28 26 29 28 25 20 18 49 62 54 40 46 51 45 36 37 30 30 30 29 28 29 31 32 33 33 34 38 42 43 40 37
16 10 7 11 18 40 58 45 37 41 35 30 30 24 24 25 28 27 28 31 28 26 20 18 54 60 47 47 42 50 45 35 31 32 33 34 36 38 35 30 29 27 26 26 30 31 32 32 32
18 14 7 15 15 24 50 46 40 33 37 36 30 26 19 25 26 27 30 28 29 29 24 19 29 64 47 49 44 46 48 36 34 37 38 40 42 44 43 40 37 30 28 29 27 20 19 18 16
20 11 16 15 12 15 26 27 41 37 39 41 38 30 21 18 26 27 28 33 37 30 28 28 25 50 49 43 46 45 50 39 40 40 37 40 37 37 44 43 37 34 32 29 28 25 26 30 31
16 19 19 20 14 12 15 26 22 37 43 45 40 33 25 23 30 28 25 29 30 29 26 29 39 39 50 44 48 51 59 48 42 44 46 47 47 45 46 44 41 38 35 32 28 27 30 33 32
14 16 21 23 18 12 12 12 16 18 39 56 45 38 32 27 22 21 27 21 23 28 29 28 58 49 56 57 56 55 58 56 52 54 52 47 49 51 49 44 42 43 39 35 33 35 32 16 9
14 16 21 22 24 18 13 10 10 14 23 49 47 42 38 35 30 18 28 20 18 25 30 33 70 63 63 61 57 57 55 64 64 59 52 55 52 45 30 34 43 44 40 36 36 26 15 11 13
18 23 24 25 28 28 23 12 8 12 25 33 46 43 40 36 34 22 23 20 16 20 27 38 76 71 68 60 62 61 57 61 65 57 55 52 51 37 45 44 52 47 41 38 29 22 13 10 12
32 28 23 21 22 26 30 8 12 10 17 29 45 46 41 36 36 27 23 22 12 16 26 37 49 49 68 66 62 63 64 68 58 55 49 48 37 42 50 53 49 42 42 40 35 24 13 10 18
33 29 25 24 29 30 28 11 18 14 12 21 38 55 46 40 38 32 21 25 11 15 26 32 39 40 61 64 78 74 70 57 50 42 48 51 40 48 50 50 52 47 46 37 26 13 9 15 37
29 32 38 37 46 42 34 17 20 22 16 18 24 37 49 43 34 35 21 23 25 18 19 28 36 42 60 70 83 76 64 56 48 48 49 56 50 46 49 50 50 47 39 25 15 9 13 27 43
45 39 37 42 43 47 33 26 22 24 18 13 17 26 36 50 38 37 26 18 28 27 19 24 35 44 60 70 76 70 58 50 50 47 36 22 49 49 48 47 48 40 25 17 17 14 20 36 40
44 37 33 34 41 42 42 29 29 26 19 13 15 26 26 50 41 40 31 20 22 28 22 23 34 38 58 69 71 66 56 52 49 30 12 27 37 42 45 50 41 24 17 14 15 35 44 43 38
47 41 44 43 56 42 43 27 27 29 25 15 12 23 26 47 43 41 36 29 23 28 31 26 30 38 50 68 69 67 54 50 46 35 37 42 44 45 44 32 20 16 15 20 45 48 36 33 32
46 64 64 59 59 46 62 27 32 37 28 19 14 22 24 38 46 39 37 32 24 23 34 34 28 38 48 62 62 57 51 49 57 53 48 36 28 26 20 18 14 16 36 53 41 37 33 29 30
70 92 82 72 70 74 57 43 23 33 28 19 19 26 26 50 50 47 36 31 25 26 30 20 24 39 45 54 55 51 49 53 58 59 48 32 21 19 16 13 21 52 52 40 38 34 30 32 35
97 96 98 87 82 65 44 48 23 34 23 29 27 34 30 53 51 44 35 31 25 27 31 22 24 38 44 46 47 47 52 53 58 52 31 21 18 16 13 30 56 53 40 34 34 38 38 38 38
100 100 100 98 84 44 57 50 20 29 34 30 32 28 31 57 50 44 35 31 27 25 30 32 17 27 43 43 43 48 53 51 48 30 24 17 15 14 37 59 56 41 36 39 42 40 41 40 42
100 100 100 97 78 73 68 43 26 28 56 52 47 37 43 62 49 43 36 31 25 24 29 34 14 12 33 40 45 50 48 43 27 22 17 15 14 43 62 58 41 38 40 41 42 45 44 49 46
93 98 85 100 94 87 53 41 31 55 38 37 48 38 40 58 42 36 34 31 29 29 35 30 8 7 26 35 37 37 30 21 19 18 14 15 47 65 59 42 37 41 41 46 48 50 54 53 50
82 86 100 94 82 54 45 43 29 37 79 56 48 58 61 54 38 33 31 31 33 36 44 31 9 6 10 17 19 18 19 19 20 14 18 58 66 63 46 43 42 44 52 50 53 58 58 56 46
82 89 84 71 66 64 56 40 25 46 92 74 69 68 57 47 39 35 36 38 39 46 48 40 32 26 21 24 26 22 24 20 12 34 68 66 65 62 62 46 46 50 47 55 64 63 61 47 45
100 77 52 55 60 56 66 44 29 44 87 97 95 70 52 41 38 43 47 48 52 53 46 39 35 33 32 26 26 25 13 17 53 77 71 60 66 69 47 45 59 47 61 71 66 64 48 45 34

GFSSGP_500_rhum_015.txt.gz
RH
23 18 20 25 26 26 23 19 14 11 14 20 20 16 12 15 20 30 29 18 19 20 20 13 11 11 10 13 16 20 21 20 16 18 24 20 22 15 18 20 23 17 15 12 9 9 10 10 10
28 27 22 22 26 27 26 23 20 16 13 15 20 20 20 23 20 17 16 16 14 16 15 14 12 12 12 15 22 26 25 24 20 20 28 28 26 21 18 11 16 13 10 11 10 10 11 12 11
31 33 31 24 25 29 29 25 24 21 16 13 16 23 26 23 20 14 12 14 12 14 16 13 12 12 14 18 29 31 26 25 25 28 22 30 30 28 25 14 3 5 8 10 11 11 12 12 12
14 29 32 28 28 30 28 26 27 24 21 17 14 17 21 20 16 15 10 11 12 15 15 13 13 13 15 18 36 36 30 26 33 28 35 33 31 26 29 30 26 19 7 8 12 14 14 15 14
15 14 18 27 34 36 32 28 26 28 27 20 17 17 21 20 18 14 14 16 19 15 14 15 15 16 18 26 46 38 36 41 36 34 35 33 30 32 31 29 29 30 30 29 22 13 10 11 11
17 17 15 12 30 42 35 31 28 29 29 25 20 16 20 24 19 18 16 17 19 17 20 19 18 17 23 40 53 37 40 45 38 40 41 38 37 36 35 35 35 36 36 36 34 33 32 29 28
17 17 17 16 15 24 43 37 34 31 30 28 24 20 20 22 22 21 22 23 22 24 24 22 18 18 29 52 57 39 40 45 38 41 38 30 29 30 31 31 32 33 34 34 35 37 40 41 40
19 16 13 13 16 18 36 44 46 40 32 32 28 24 24 21 21 24 25 28 28 28 26 26 22 20 29 58 61 44 44 48 41 38 34 31 33 33 33 34 32 30 30 29 30 31 34 35 38
13 10 9 10 14 19 29 40 52 47 39 36 30 25 22 22 21 25 28 31 32 29 28 28 23 20 44 67 63 47 50 52 43 35 33 33 34 36 39 41 42 41 38 33 30 29 28 25 21
13 10 10 17 19 21 24 24 32 50 50 44 38 30 26 23 21 24 28 31 33 32 33 31 28 20 29 59 62 48 50 54 51 38 36 37 41 42 43 42 38 40 42 38 34 31 29 28 25
13 10 14 18 23 21 19 16 18 26 47 54 47 36 28 24 21 26 29 31 34 34 36 31 29 27 24 51 62 48 54 55 59 42 40 46 45 40 40 43 47 45 42 41 38 34 31 29 28
12 13 16 22 25 24 16 14 10 14 23 49 54 45 33 29 24 22 28 30 31 32 33 31 31 29 37 33 55 49 52 57 61 57 48 48 47 44 46 41 48 49 46 39 40 39 32 30 30
13 13 14 18 23 24 23 13 9 8 14 28 49 50 42 31 30 26 20 28 33 25 27 29 28 30 46 40 43 59 59 62 63 70 65 53 50 54 50 52 44 34 33 38 48 42 38 36 27
15 12 12 12 16 19 22 22 14 10 10 16 28 49 49 45 35 32 29 21 36 26 21 23 24 31 46 65 61 69 73 75 72 70 68 62 57 54 51 47 40 42 43 46 44 40 39 33 32
19 15 12 12 13 17 25 20 17 16 14 13 18 43 54 51 41 31 29 25 25 27 19 18 22 30 38 72 77 76 78 75 73 71 71 63 59 53 50 39 43 49 47 47 45 45 43 37 25
28 22 16 14 17 18 32 12 18 21 21 14 13 23 47 60 47 40 34 30 22 26 17 16 21 29 38 64 77 81 72 71 75 73 67 59 54 50 52 45 52 52 51 51 49 46 38 25 16
46 40 39 29 31 29 30 15 25 28 22 18 14 15 24 49 55 47 43 31 28 25 19 12 21 29 37 45 72 73 72 76 75 69 59 51 50 49 53 54 51 47 48 46 42 37 31 26 26
55 57 52 46 44 48 32 18 18 26 21 16 17 13 16 21 45 54 46 34 30 23 23 11 16 29 36 44 62 66 79 83 76 66 54 49 50 43 22 49 48 46 44 46 46 37 24 16 16
30 44 44 43 38 35 33 25 22 23 21 16 15 14 12 14 21 49 51 38 33 21 26 26 17 21 32 42 53 65 77 79 73 59 49 51 41 13 27 37 41 44 45 39 26 20 16 13 24
47 34 30 26 35 36 37 23 23 19 19 18 18 16 13 11 16 25 54 44 34 23 19 29 31 20 22 37 46 62 73 75 68 59 52 48 32 35 43 41 36 28 23 19 19 14 15 41 51
52 52 53 48 57 50 40 24 27 24 22 24 21 20 16 12 11 16 46 51 35 25 22 23 31 23 21 32 39 60 70 72 69 60 51 52 52 50 47 41 29 20 19 19 14 18 52 50 44
61 70 67 61 59 51 51 25 30 24 23 24 26 24 18 14 11 16 27 51 37 30 29 25 29 38 40 29 38 47 63 70 66 58 50 52 57 56 50 32 21 18 22 15 18 50 54 44 36
58 72 69 66 62 49 46 41 19 29 21 20 22 24 20 17 13 16 30 53 40 35 35 30 29 35 37 28 35 43 53 60 59 52 50 53 58 55 38 23 18 19 15 18 50 57 44 36 40
76 81 80 86 79 43 43 49 19 21 24 24 25 29 28 20 16 21 31 53 39 36 36 33 37 36 19 18 31 40 46 51 52 47 49 50 49 43 26 18 19 15 26 54 59 45 38 40 41
95 100 100 100 100 53 47 51 21 22 23 25 28 34 32 23 19 26 43 54 40 38 38 34 36 42 29 19 25 38 44 45 45 44 47 46 42 28 20 19 17 31 56 60 46 40 42 43 49
100 100 100 100 90 81 87 41 28 24 28 32 32 36 33 25 21 25 50 55 42 40 37 34 34 40 38 22 15 27 41 42 41 42 42 39 30 21 19 19 36 58 64 51 46 48 46 52 51
99 97 89 100 100 100 89 46 40 35 30 34 39 37 34 30 22 22 46 56 41 40 36 35 36 42 34 19 5 10 26 34 35 36 35 31 24 19 21 46 64 65 62 63 56 44 50 53 53
85 98 100 100 96 97 66 51 42 37 38 38 36 37 40 37 28 24 56 50 40 39 36 38 43 47 43 20 2 5 16 22 24 27 28 25 19 28 59 71 64 64 69 58 44 54 61 49 61
42 40 71 99 96 66 54 46 44 48 46 61 52 56 50 49 35 40 56 41 38 38 37 43 47 52 44 21 10 13 17 22 29 28 28 17 40 70 78 68 66 72 54 52 67 57 47 65 74
98 73 83 99 75 60 50 33 30 48 48 65 51 44 61 61 63 57 47 41 41 41 42 50 56 53 44 39 30 28 32 28 31 22 24 56 79 84 72 68 77 68 72 85 51 47 70 80 80

GFSSGP_500_rhum_018.txt.gz
RH
18 21 21 18 20 21 23 22 19 16 16 18 20 20 19 16 12 20 26 25 26 26 22 19 16 13 10 9 9 11 11 14 15 13 11 15 16 17 18 14 18 20 22 17 14 13 10 9 9
10 22 25 22 19 20 24 24 21 22 18 15 19 21 21 20 20 18 16 19 20 19 20 18 16 14 12 11 11 15 16 19 20 17 14 18 21 24 24 19 14 8 15 15 12 11 10 10 11
8 12 25 22 23 23 25 26 24 26 24 20 16 21 23 23 27 26 24 18 20 19 17 18 17 14 12 12 15 21 23 25 24 23 26 24 21 21 23 28 27 22 12 5 7 10 12 12 13
12 9 12 20 27 29 29 27 28 27 24 24 20 18 24 28 33 42 28 22 14 18 20 20 18 15 13 15 19 28 29 31 28 32 31 27 24 22 27 27 25 29 29 26 21 12 9 11 13
14 13 10 10 30 43 38 31 31 32 28 26 24 20 22 27 31 28 22 22 16 18 22 27 19 16 15 17 18 29 36 37 37 39 32 34 35 33 32 28 29 31 29 28 30 31 30 27 21
16 14 13 13 15 29 44 43 36 34 31 30 25 23 22 22 25 28 23 20 17 19 23 26 23 20 18 18 21 39 44 38 42 40 38 42 38 36 36 36 36 36 35 36 36 37 37 37 36
14 15 14 15 17 16 28 35 43 42 36 34 27 24 23 23 27 24 22 20 20 22 28 28 28 25 21 23 38 52 59 41 42 42 39 41 31 30 31 30 30 31 31 31 31 31 32 32 34
14 14 14 16 18 19 20 19 33 46 45 39 32 29 29 25 26 29 25 23 26 30 31 29 32 32 26 27 39 61 69 48 46 48 40 38 32 34 34 35 39 40 42 40 39 34 30 30 29
7 8 11 16 18 20 23 21 19 26 47 46 40 37 35 30 26 26 26 27 30 33 31 30 32 32 26 23 48 71 77 56 56 55 44 37 35 35 36 37 39 41 40 38 38 41 39 35 31
8 8 11 13 15 18 21 19 18 17 33 52 49 48 38 33 27 24 25 28 33 35 33 31 35 35 31 24 29 80 81 62 58 55 54 41 40 43 45 43 40 38 39 37 38 39 35 36 35
12 10 14 13 14 19 21 21 17 14 16 32 52 48 42 34 29 26 25 28 32 36 37 36 35 33 33 30 27 40 79 66 58 57 60 50 45 52 50 46 40 41 42 39 45 44 39 35 36
15 14 12 13 14 18 20 20 14 9 11 17 24 44 47 40 33 29 26 28 30 32 36 37 35 32 33 31 32 36 57 70 62 60 59 65 64 56 54 48 46 50 48 44 38 37 35 33 36
11 19 17 12 13 16 20 21 19 10 9 13 15 24 50 46 39 36 31 28 30 32 32 31 32 32 32 31 33 44 40 67 69 60 61 63 71 66 61 51 52 50 47 41 38 45 43 43 41
16 17 20 18 13 14 18 22 24 22 21 14 11 14 33 54 47 38 37 36 30 32 37 29 26 28 29 30 31 50 47 63 81 77 72 66 68 69 60 58 54 49 42 38 48 50 53 51 47
16 20 21 22 20 15 15 15 16 22 27 23 17 12 15 36 57 44 38 36 34 33 32 33 26 22 22 26 30 49 70 86 88 80 79 76 69 66 61 59 53 51 44 50 53 54 52 49 43
13 14 21 26 21 18 16 9 15 15 21 22 22 17 14 16 33 58 42 37 37 40 34 32 27 20 18 22 28 45 79 90 86 79 82 75 74 66 58 54 52 51 54 52 50 50 48 45 46
15 15 17 33 36 24 17 11 13 15 20 25 20 19 15 13 16 34 47 44 42 36 36 31 29 18 15 21 30 51 71 87 86 82 85 77 71 62 52 50 50 40 39 52 49 46 46 47 36
15 14 16 17 34 39 25 12 11 13 16 19 22 18 16 13 11 18 23 42 49 41 36 31 27 23 12 20 36 56 59 76 81 87 85 74 69 60 49 51 38 18 31 40 43 42 32 23 20
13 12 13 19 26 30 38 24 20 14 12 13 18 18 16 14 14 12 14 23 53 47 39 37 27 28 13 16 31 45 48 64 72 81 79 75 69 51 51 41 19 31 42 39 33 24 19 21 19
13 13 14 18 34 38 32 22 27 21 14 15 16 19 20 16 15 15 12 14 38 52 42 40 28 28 35 26 22 29 38 49 66 76 78 77 61 54 52 51 48 49 48 42 26 19 21 24 18
18 18 19 22 41 41 36 16 31 33 22 21 21 21 22 18 16 16 15 14 18 50 48 39 35 25 31 37 23 32 32 43 60 72 77 73 65 56 51 53 58 59 51 33 21 19 24 17 20
19 23 27 22 28 29 52 17 18 21 21 20 21 19 23 22 18 16 18 15 20 28 48 43 36 24 23 34 33 38 27 38 48 64 70 71 67 58 52 50 52 57 48 27 18 22 17 20 40
26 34 42 41 43 44 39 47 12 22 18 20 18 24 25 29 26 23 22 18 19 19 44 47 37 30 26 27 37 40 37 33 41 49 61 65 61 56 51 46 50 49 36 20 20 18 24 45 58
59 62 67 73 76 51 36 50 17 23 24 28 34 29 29 30 32 33 28 20 16 19 32 48 38 36 32 30 30 34 28 28 38 43 49 53 54 51 47 46 47 43 24 20 20 31 56 64 58
38 36 46 64 64 41 50 48 23 27 34 29 34 37 31 28 27 33 34 22 18 23 43 50 41 41 36 34 38 25 17 22 32 40 43 44 45 45 43 43 44 28 22 21 37 61 65 66 70
37 56 96 97 74 57 58 28 24 31 39 33 33 35 31 28 28 32 34 22 21 33 50 52 46 44 39 34 38 39 22 18 20 32 42 44 42 40 39 39 29 24 21 42 67 65 67 74 71
32 52 84 100 100 100 67 25 20 27 40 47 40 36 30 26 27 37 36 22 27 52 49 53 47 43 40 34 34 40 34 14 8 10 20 30 33 33 34 31 25 23 52 74 71 67 74 64 60
47 61 80 96 100 93 65 54 39 36 44 45 44 32 30 28 28 37 38 28 35 64 56 52 48 44 39 35 36 41 34 12 4 4 10 17 22 38 33 24 34 63 77 71 68 80 72 79 89
58 45 48 66 90 94 74 48 38 36 44 48 42 36 31 29 35 44 38 33 42 65 59 53 49 44 40 38 44 47 46 30 13 12 19 28 42 34 23 48 68 78 69 68 84 88 92 91 72
100 98 97 86 53 53 47 37 32 43 73 61 53 41 36 38 41 43 41 40 64 65 56 49 46 45 45 46 52 56 46 31 31 29 39 41 34 26 52 65 72 71 79 86 94 94 81 61 72

GFSSGP_500_rhum_021.txt.gz
RH
6 8 12 16 16 16 19 19 19 17 17 15 17 21 21 25 28 31 21 12 15 24 32 26 20 17 15 12 10 9 8 10 11 11 11 10 11 12 12 14 14 14 19 20 21 18 13 13 10
10 7 8 12 16 17 21 23 22 21 21 19 17 17 19 27 28 25 21 17 12 14 22 23 19 16 14 13 11 10 11 15 18 18 15 12 12 14 17 19 19 16 9 9 15 14 11 11 11
12 11 7 7 12 24 24 25 26 25 25 24 23 20 18 21 49 25 42 33 39 18 12 17 18 16 16 14 13 12 13 18 23 22 19 19 19 17 18 18 23 25 26 22 15 8 7 10 12
13 12 10 7 9 28 31 23 27 28 28 27 25 23 22 23 33 29 30 34 33 74 25 14 17 16 18 16 14 15 17 22 29 26 26 24 22 21 21 21 22 25 27 28 29 29 28 25 19
16 14 11 10 9 22 40 30 29 30 30 30 26 26 25 25 29 33 35 38 54 35 25 24 22 22 20 18 17 18 20 32 36 36 36 32 31 33 32 32 31 29 30 31 31 32 31 32 34
14 15 12 12 13 15 41 44 39 36 34 34 30 29 28 30 30 31 31 31 31 27 26 23 23 28 25 23 21 22 28 46 44 40 41 37 40 38 35 35 35 35 35 35 35 35 34 34 34
15 13 12 14 14 16 18 23 33 42 41 39 33 32 30 31 31 29 29 40 36 28 27 22 30 27 26 27 24 25 41 60 55 43 44 39 42 36 31 31 31 31 33 34 36 35 34 33 31
12 12 10 14 16 17 19 17 16 17 36 41 40 35 35 34 33 30 28 34 34 28 26 33 36 30 30 30 26 23 29 53 69 50 45 44 40 36 33 35 36 37 38 38 39 36 35 35 39
11 9 11 14 16 18 19 18 18 17 16 29 43 41 36 37 36 37 38 36 35 30 33 40 35 33 35 32 26 23 29 44 74 63 52 54 43 36 35 36 38 40 40 38 36 34 32 31 39
10 11 11 9 15 18 19 20 19 17 16 15 22 36 39 40 40 36 35 36 35 32 34 41 39 38 38 35 31 27 24 58 79 75 61 58 54 41 37 41 44 46 45 41 38 39 39 40 39
11 13 13 10 11 13 18 19 19 13 12 17 16 16 28 39 41 40 35 29 32 30 34 38 38 40 40 38 35 32 28 30 72 76 65 58 59 56 43 48 49 52 49 42 43 44 39 33 34
8 13 16 14 12 12 12 12 12 11 11 12 11 14 15 27 40 41 40 37 33 32 30 37 40 40 39 37 36 34 31 31 42 74 66 59 61 62 62 59 57 56 51 44 47 44 29 36 42
11 12 11 14 17 14 14 14 14 14 15 14 11 10 13 16 32 43 42 39 35 38 34 34 36 38 37 35 33 34 31 36 41 61 74 70 62 61 66 69 66 63 53 49 48 38 38 43 50
14 16 16 15 16 17 15 15 13 16 18 16 18 18 12 13 18 37 46 42 38 38 39 37 35 34 33 32 31 32 30 38 48 56 78 72 70 63 63 67 67 60 58 52 50 44 44 48 50
13 13 14 18 19 13 16 11 12 16 20 18 15 20 20 14 14 21 50 47 47 44 37 39 41 37 31 27 27 28 28 33 64 64 72 77 74 74 71 70 67 60 56 53 51 52 51 53 52
11 12 14 16 18 16 14 10 14 14 15 20 17 14 20 20 12 15 32 45 46 47 43 39 38 35 34 30 24 23 25 31 75 84 82 79 77 78 76 76 66 57 52 52 50 33 51 56 51
12 10 11 12 14 13 12 11 15 15 14 14 15 13 13 21 17 12 16 26 30 44 48 49 43 34 28 30 24 25 27 31 53 80 87 82 80 84 77 72 64 56 51 52 36 20 47 43 42
9 8 9 11 13 13 12 9 12 14 14 12 12 13 12 14 20 17 14 14 14 24 45 49 45 43 34 29 28 24 38 33 54 62 77 80 83 85 74 69 64 53 52 35 16 32 41 41 36
7 8 8 9 12 14 12 10 11 13 13 14 14 11 12 9 20 22 19 14 11 14 30 50 47 44 40 32 32 16 39 42 49 48 61 75 84 84 74 70 64 54 52 49 46 48 49 43 28
11 10 11 11 12 12 13 12 13 14 14 15 18 14 12 10 16 25 22 17 12 13 17 32 49 47 40 34 31 26 30 41 40 46 54 70 77 82 77 74 64 56 53 54 56 61 58 42 26
19 18 18 18 17 16 15 14 15 14 14 15 19 27 25 15 17 27 25 21 18 13 18 20 43 52 40 36 28 32 47 46 44 42 43 58 70 78 78 75 69 62 54 52 51 53 52 41 21
17 19 20 20 19 17 19 13 12 15 18 18 19 26 34 33 30 34 30 24 22 17 15 16 26 52 48 39 36 27 39 46 34 32 37 47 60 71 73 72 69 63 56 52 50 49 50 34 21
19 19 21 23 23 21 18 20 10 12 16 19 33 30 30 34 31 30 32 28 25 22 17 18 18 36 53 47 41 39 44 48 44 36 30 38 44 53 58 62 61 56 52 49 47 46 43 23 22
31 33 36 39 37 28 27 30 16 19 18 18 31 44 35 28 25 24 31 31 27 25 22 18 20 22 49 52 45 41 39 34 41 43 40 32 38 43 48 51 49 47 46 45 44 43 28 23 21
35 39 44 44 43 34 38 39 21 20 20 21 28 42 48 36 35 30 30 30 36 33 28 21 21 22 39 53 48 45 40 35 33 28 23 24 32 37 41 43 44 44 42 40 39 27 24 25 41
13 16 19 28 29 35 40 34 26 25 26 30 33 41 43 41 38 39 34 35 37 42 33 23 20 22 37 53 53 48 42 37 37 30 19 19 22 27 35 40 39 37 40 38 30 26 31 44 56
47 34 40 26 23 25 20 16 15 22 28 27 29 37 48 43 40 36 37 34 32 39 36 23 21 28 49 55 54 50 44 36 35 38 36 23 10 13 20 24 31 41 42 31 27 36 49 55 66
55 53 52 61 54 42 31 26 22 32 43 45 26 24 41 48 35 36 32 35 32 41 35 23 26 30 52 58 54 49 44 40 37 37 36 23 9 10 18 33 52 45 32 30 41 52 61 80 81
99 98 97 99 97 96 84 59 39 48 58 46 38 29 24 44 40 35 32 31 32 40 30 26 30 35 59 61 55 50 46 42 41 44 50 46 27 26 42 60 47 32 36 46 56 78 85 82 76
99 100 100 100 97 100 100 43 64 50 42 63 48 46 27 35 41 35 33 31 34 38 30 32 42 45 61 64 56 52 48 48 53 59 57 41 37 47 62 48 35 43 56 68 84 84 80 69 46

GFSSGP_500_rhum_024.txt.gz
RH
6 6 6 7 13 13 14 16 17 16 15 14 15 17 20 21 23 38 33 23 15 12 19 22 23 21 17 13 12 10 10 9 10 10 12 13 11 11 11 12 12 11 12 14 16 20 19 18 16
8 8 6 6 9 13 16 16 19 20 20 18 18 17 18 19 21 25 32 25 17 16 19 24 25 20 17 14 12 10 10 10 11 12 14 14 12 11 12 14 14 14 14 12 12 16 17 15 12
10 10 9 7 6 9 20 20 20 20 23 23 21 20 19 18 21 26 35 38 26 27 23 19 17 14 13 12 12 11 10 11 14 16 21 19 17 16 14 13 13 16 19 20 20 16 12 10 8
11 10 9 8 9 8 11 19 20 21 25 25 25 24 23 22 23 48 65 41 97 55 50 60 47 16 13 12 12 11 10 11 18 21 26 24 22 20 16 16 16 17 18 22 26 26 29 30 30
12 11 10 9 11 10 9 15 26 23 24 26 26 25 26 26 25 25 37 44 30 39 64 82 32 20 17 14 14 13 13 13 17 28 32 29 28 24 26 26 27 27 27 26 26 28 31 32 34
10 11 10 10 13 13 12 10 23 28 28 29 30 29 29 28 28 27 29 37 40 34 35 33 25 20 16 16 20 18 17 18 23 33 39 37 35 32 33 33 33 34 34 34 34 34 33 32 32
9 10 10 13 15 14 13 11 9 26 35 33 29 32 30 31 30 34 36 40 38 42 38 39 30 22 20 22 21 21 21 21 32 51 47 44 42 39 39 33 32 32 32 34 36 36 37 37 35
8 9 9 12 15 15 14 14 13 13 22 35 35 34 31 32 34 35 37 40 48 43 46 33 30 24 25 26 26 28 26 23 31 48 62 46 46 42 40 36 33 33 36 38 38 37 36 34 33
10 8 8 12 14 16 17 16 14 14 14 14 22 35 37 35 34 35 39 40 38 38 43 34 30 32 33 30 32 32 26 24 27 41 70 60 49 51 42 38 36 37 40 42 42 42 38 35 34
10 9 12 12 12 14 17 17 16 14 14 15 16 16 27 39 39 38 38 38 37 36 42 39 33 38 48 41 37 35 32 27 24 37 60 71 59 59 55 43 40 42 46 46 48 47 40 37 38
10 11 13 14 12 10 11 14 16 13 12 15 18 17 16 18 38 43 42 41 40 36 38 42 36 42 45 42 37 38 38 34 29 29 54 69 66 55 56 58 49 46 48 51 50 49 39 44 28
9 11 12 14 13 11 8 7 9 11 12 13 14 13 13 14 13 26 46 45 42 38 36 35 37 38 43 47 39 38 36 36 34 33 34 58 70 65 59 59 63 59 56 62 56 52 46 46 31
10 12 11 11 14 14 11 10 9 9 14 12 11 11 12 11 12 15 34 52 49 45 40 36 32 34 36 39 38 36 33 32 33 33 41 48 69 72 63 63 64 68 66 66 56 54 51 48 39
10 12 12 13 14 12 12 13 9 13 13 11 11 12 14 13 12 12 16 32 54 54 46 36 35 33 34 36 37 35 33 31 32 34 47 52 56 72 67 65 66 66 67 65 59 56 52 50 50
11 14 15 17 16 13 12 11 10 16 12 11 11 11 14 17 19 13 14 16 35 56 53 41 36 37 36 35 35 33 32 32 33 33 40 64 56 63 68 72 73 73 72 67 60 54 52 51 45
14 15 14 17 14 12 11 12 13 17 14 13 13 11 12 17 20 22 14 12 17 32 48 51 46 41 39 35 35 33 32 29 28 30 34 69 76 81 77 78 75 74 76 68 58 52 51 51 39
16 14 14 14 14 11 9 9 13 14 12 13 12 14 12 13 17 16 21 13 13 22 40 51 52 48 40 35 32 27 32 31 25 28 33 44 86 90 82 80 81 77 74 65 59 54 51 28 19
11 8 9 9 11 11 10 8 9 10 10 11 13 12 12 12 13 15 16 22 14 12 16 40 56 57 51 42 39 32 30 32 32 32 30 37 64 91 92 82 85 79 70 66 59 55 51 48 46
8 7 7 8 10 10 9 6 8 9 9 10 11 14 15 13 13 13 15 21 24 14 12 16 37 62 56 48 44 38 36 44 50 28 35 36 54 80 87 81 86 81 74 69 65 58 54 50 51
8 8 8 8 8 8 8 6 8 10 11 12 13 13 13 17 18 14 15 17 24 22 16 13 15 40 60 55 49 44 44 46 62 36 38 45 52 61 70 78 81 83 77 78 73 66 58 53 53
14 14 15 15 16 16 14 6 10 10 11 13 14 15 15 16 23 22 19 21 20 26 24 17 14 20 34 54 55 51 43 41 48 41 42 43 42 48 60 70 74 79 78 80 78 69 62 54 53
17 17 16 16 16 16 16 12 12 15 16 15 18 18 17 16 20 27 23 19 20 24 26 23 16 16 16 24 46 55 49 46 50 38 48 50 54 57 47 53 61 69 72 68 66 64 58 51 50
20 20 23 23 22 19 16 15 12 11 11 12 14 16 19 18 18 24 32 24 24 28 25 28 24 17 14 16 34 54 54 51 56 60 52 53 46 45 35 40 45 50 52 50 53 51 48 46 48
31 30 31 31 30 25 23 28 11 17 17 17 18 18 19 19 18 22 28 31 24 24 28 27 26 20 15 15 21 44 58 60 64 55 46 54 55 54 44 36 36 40 42 43 44 45 45 42 37
29 30 27 23 21 20 18 19 16 19 23 24 27 29 23 23 22 20 28 31 32 28 30 30 27 22 19 16 18 28 46 59 60 54 43 40 42 36 30 31 31 34 38 40 44 42 35 31 32
21 17 28 40 40 38 18 12 13 13 13 17 29 32 35 26 26 29 32 28 31 29 27 30 30 24 23 20 21 22 30 60 62 53 52 49 39 30 24 25 25 23 26 31 31 32 36 38 31
17 24 37 53 63 78 62 35 21 23 36 33 19 23 32 30 29 27 34 37 24 22 25 39 36 32 30 25 22 20 22 53 62 64 52 48 48 41 36 27 19 15 16 24 36 52 46 33 27
28 46 76 100 93 97 65 74 58 43 47 45 38 36 22 29 30 31 36 40 34 31 36 42 42 40 36 30 24 23 29 60 67 67 52 52 51 40 33 34 36 31 33 53 61 45 34 30 46
68 83 98 100 100 100 95 75 81 57 59 73 35 37 41 24 28 34 43 41 38 41 40 37 38 39 38 31 24 29 38 66 68 57 61 60 57 62 67 61 43 44 66 64 43 34 41 64 75
70 88 97 100 100 100 98 58 100 98 93 79 33 36 53 40 22 33 52 41 40 44 43 37 35 39 37 31 28 37 57 73 66 72 61 66 74 80 72 58 49 74 68 44 39 53 79 86 74

GFSSGP_500_rhum_027.txt.gz
RH
7 6 6 6 10 10 14 13 14 14 15 14 12 14 17 17 36 74 36 30 19 11 12 11 10 12 12 13 13 11 9 8 8 7 8 8 10 10 10 11 11 11 11 13 14 14 16 18 18
8 8 7 6 6 6 10 14 13 14 17 18 18 17 17 20 17 20 25 26 26 24 16 15 15 15 19 17 14 12 10 9 8 8 7 9 12 11 11 12 13 13 13 13 12 12 13 16 17
10 10 8 7 6 6 8 14 13 13 18 20 21 20 18 17 16 16 23 27 30 26 20 19 19 25 25 18 14 11 10 10 9 8 9 9 11 14 13 14 13 14 17 18 17 15 14 14 14
12 12 9 8 8 8 7 6 9 15 17 19 21 25 21 20 19 20 20 27 40 30 37 42 27 30 38 14 13 12 11 10 9 9 11 16 17 16 17 18 16 16 16 15 17 21 22 25 27
12 11 10 9 9 10 9 8 6 10 16 20 22 27 24 22 22 22 23 27 60 36 47 46 29 30 30 14 12 10 10 9 9 11 15 20 25 25 23 22 23 24 23 22 21 22 25 27 31
12 11 9 9 10 12 11 10 8 7 12 23 26 28 28 25 24 24 25 24 27 64 50 32 30 28 22 16 11 11 12 13 12 13 18 23 31 34 32 30 30 31 31 32 33 33 34 34 34
13 10 9 9 10 12 12 10 9 9 10 18 26 26 27 24 26 26 26 28 28 52 35 28 27 26 25 21 15 14 15 16 17 17 20 30 35 38 38 37 35 33 32 32 33 35 36 37 37
14 10 9 8 10 12 14 11 11 10 11 10 17 32 34 24 28 30 30 29 28 30 32 27 32 33 26 26 19 18 19 20 21 20 23 35 43 45 44 40 39 35 35 36 39 39 38 39 38
14 9 6 8 12 15 15 10 13 12 12 12 16 27 24 32 34 34 34 33 33 28 24 26 28 33 27 25 21 24 23 25 26 24 25 36 44 48 46 49 43 39 39 40 41 42 41 43 41
13 9 8 13 13 12 11 12 14 10 12 12 14 14 19 30 37 37 38 38 36 35 32 28 27 32 30 26 29 29 30 29 29 27 23 33 50 66 60 57 56 45 40 41 43 44 45 46 42
10 8 13 12 12 13 10 10 13 11 12 12 14 16 15 16 16 25 40 42 40 39 37 33 31 29 31 28 38 40 34 35 33 32 29 26 34 60 78 68 63 59 54 47 48 49 49 47 44
8 8 11 12 14 13 12 11 11 10 11 10 11 11 10 17 17 17 16 29 39 42 41 39 37 36 34 32 32 31 42 59 36 35 32 30 30 34 57 74 67 61 63 64 58 55 57 52 43
6 10 9 11 12 14 13 12 11 8 11 11 9 11 11 13 13 14 15 17 21 41 47 43 42 39 34 30 30 32 40 71 36 34 34 34 33 38 39 60 72 64 61 64 65 65 64 55 52
8 8 9 11 12 11 9 12 8 9 11 9 8 7 9 10 12 13 12 14 16 22 42 52 50 43 39 35 30 30 35 38 38 36 36 36 36 38 48 51 64 71 64 61 59 60 64 60 57
8 10 11 11 12 10 10 9 9 12 11 9 9 9 8 8 10 15 14 12 14 17 20 36 52 50 47 39 35 31 32 32 36 34 35 35 36 36 48 56 66 72 74 75 73 73 70 64 55
13 11 13 12 13 11 10 10 11 13 11 11 11 11 11 9 9 13 16 16 14 13 13 18 32 50 51 44 38 34 32 32 32 33 32 30 31 36 38 67 72 79 78 80 80 78 76 66 58
18 16 15 13 15 11 10 10 12 12 12 10 11 11 11 10 9 10 17 22 22 15 12 12 15 40 55 54 47 42 36 32 30 32 37 33 26 29 37 52 85 91 81 80 84 79 74 66 60
21 17 19 18 16 14 11 9 12 9 10 8 9 10 11 12 11 10 12 19 22 22 18 13 11 18 42 55 53 47 43 41 38 35 35 38 32 30 31 37 75 95 91 83 85 83 71 68 65
20 21 23 21 18 14 11 8 8 9 9 8 8 8 9 11 15 15 12 12 17 18 21 23 15 12 18 40 56 54 49 44 40 46 54 53 46 32 33 36 54 86 96 85 84 87 80 74 74
20 16 14 13 12 10 9 7 6 8 8 9 9 9 10 11 12 14 15 14 12 13 15 24 25 18 13 14 40 58 52 49 50 47 53 59 78 42 38 48 55 70 85 84 81 82 84 81 86
12 10 10 10 10 9 8 5 8 6 6 8 10 10 12 13 13 15 15 14 14 13 14 16 24 25 17 14 15 29 48 60 54 48 52 46 56 47 44 46 51 63 72 73 74 74 79 78 72
13 14 17 19 19 18 16 9 9 9 8 10 14 16 15 15 14 14 14 15 15 14 15 15 15 25 24 19 14 15 25 45 58 58 54 57 59 57 50 53 60 66 61 51 54 57 63 65 58
18 18 17 17 17 15 16 18 4 8 9 12 13 14 15 17 18 16 16 16 15 16 15 18 16 18 27 24 16 15 15 17 35 63 60 65 65 64 48 57 68 60 51 39 38 41 45 44 44
20 24 30 28 22 16 17 19 8 13 13 13 13 14 17 19 14 13 14 14 14 16 16 18 20 15 22 27 21 16 14 15 24 49 62 68 67 65 50 58 68 71 61 46 38 35 37 40 37
31 27 23 21 20 16 19 15 8 15 13 12 11 12 13 16 18 17 14 13 13 14 17 17 28 20 23 29 27 22 17 17 19 31 57 70 72 68 56 54 50 45 35 30 28 29 32 30 25
27 24 25 20 16 13 16 11 15 28 28 21 14 19 20 14 16 20 20 18 17 15 15 20 29 37 34 34 31 26 19 17 18 35 40 57 68 65 62 54 50 41 38 31 29 25 19 20 23
25 22 18 17 20 28 29 33 35 45 56 50 46 25 36 24 21 18 22 23 22 21 17 28 30 38 37 34 33 26 23 20 32 31 40 67 67 67 67 58 53 51 48 38 29 39 39 42 54
21 17 20 43 47 61 40 47 52 77 91 89 57 83 99 65 28 16 21 29 25 26 23 35 36 38 35 33 34 28 25 27 32 29 38 68 72 73 78 62 58 55 50 67 68 54 52 63 58
16 28 56 64 64 78 65 35 86 72 55 72 98 96 87 62 37 18 13 30 27 27 26 41 38 34 30 32 36 32 31 30 35 37 44 71 81 84 72 68 68 74 86 80 67 58 75 59 42
31 55 59 64 85 77 77 23 69 39 41 83 94 99 90 54 34 17 19 24 32 28 29 46 43 42 32 42 45 40 38 33 33 39 63 81 85 76 83 76 81 92 95 80 66 80 74 56 65

GFSSGP_500_rhum_030.txt.gz
RH
5 6 7 9 9 8 10 12 10 13 16 15 12 13 16 25 21 26 29 22 25 18 11 8 7 6 7 9 10 11 10 9 8 7 7 6 6 6 7 7 8 10 11 11 12 14 14 17 18
7 7 6 6 5 4 6 11 12 14 13 14 18 16 14 17 15 16 22 18 23 24 20 18 12 8 10 12 11 10 11 10 9 8 7 7 6 6 8 9 10 10 11 13 13 12 12 12 14
9 8 7 6 5 5 6 10 14 6 12 15 18 18 18 16 11 14 16 17 17 20 22 20 19 12 11 14 13 13 11 10 9 8 7 7 7 9 10 10 10 11 13 13 14 15 15 15 15
12 10 8 7 7 8 7 8 6 5 11 14 17 20 22 18 18 20 17 16 14 17 21 23 21 20 16 10 11 10 8 8 8 8 7 7 7 10 12 14 15 16 14 14 15 16 18 21 23
11 11 10 8 9 10 9 10 7 6 7 8 20 24 20 20 20 20 19 18 16 17 19 22 27 37 23 18 15 11 7 7 8 8 7 7 8 12 17 20 20 20 20 20 21 21 22 23 24
11 12 9 9 10 11 12 11 10 8 8 6 10 25 17 19 25 25 23 22 20 20 23 20 24 23 23 23 22 18 9 7 8 9 9 10 14 18 24 28 29 29 29 30 31 32 33 33 33
11 11 10 11 10 11 13 14 8 11 10 9 9 19 18 11 24 25 26 24 23 20 21 19 53 40 20 18 20 20 16 10 10 11 11 12 16 22 30 36 37 35 34 33 33 32 33 34 36
13 11 10 10 10 10 13 13 10 10 11 10 8 13 31 9 19 27 28 30 27 24 23 21 22 19 18 21 22 20 19 15 14 15 15 15 17 21 28 39 41 40 38 35 34 36 38 40 40
12 10 9 11 12 11 12 13 7 11 11 10 9 15 13 9 18 31 32 32 30 29 26 26 22 20 19 19 21 22 21 19 20 21 21 22 20 21 28 38 44 43 42 40 37 36 40 42 42
10 8 10 13 14 11 10 11 7 9 12 11 10 10 10 17 19 33 34 34 33 33 31 26 29 25 24 24 21 20 23 23 24 24 25 25 24 22 22 35 56 52 52 46 41 39 40 42 46
8 8 12 14 13 9 10 10 9 9 10 11 10 11 11 12 12 15 25 29 32 35 36 35 29 30 31 28 26 24 23 23 26 30 29 30 28 27 27 35 58 68 61 63 58 52 48 49 47
5 7 13 16 11 7 9 11 8 8 9 11 10 10 8 9 9 13 16 16 15 17 28 36 37 30 35 34 32 28 28 25 27 34 64 33 33 30 30 30 33 51 72 69 61 61 60 60 59
5 6 13 14 9 7 11 11 11 8 9 12 10 10 10 8 13 13 13 15 19 24 20 16 28 35 37 35 35 31 28 26 26 35 81 41 35 35 34 33 32 40 52 65 68 62 59 62 62
7 6 12 12 8 9 9 11 10 9 13 12 10 8 8 6 8 13 10 12 12 12 11 15 15 18 31 43 42 38 35 29 27 31 36 36 38 36 36 37 34 37 50 57 65 64 60 63 61
6 10 13 10 11 11 10 8 8 10 10 9 8 8 7 7 7 9 9 9 10 11 9 9 12 12 13 26 44 44 42 41 32 28 31 32 33 35 33 33 36 34 50 54 62 66 73 74 72
13 12 14 12 12 11 9 8 9 8 10 8 8 8 9 9 10 10 9 10 12 13 10 7 7 10 12 17 37 45 45 41 37 40 33 34 36 36 34 30 28 31 30 56 67 76 78 77 80
14 14 15 13 12 12 10 8 12 9 10 8 8 9 9 9 10 10 11 10 12 12 13 12 10 9 10 10 16 35 46 46 45 43 36 37 40 33 37 33 27 26 28 32 68 85 85 80 84
23 18 15 14 12 14 10 9 10 10 9 10 8 9 9 8 9 11 12 11 11 15 19 20 17 15 13 12 10 14 27 44 52 47 43 45 42 37 34 39 34 31 30 29 45 74 88 88 85
21 19 18 20 17 13 15 10 10 12 9 11 9 8 8 8 10 9 10 12 11 11 16 19 17 16 18 17 14 12 14 24 46 53 49 50 49 51 53 67 65 38 32 33 40 59 78 88 84
30 26 27 31 28 17 20 13 12 11 11 11 10 10 10 10 10 11 10 11 11 12 12 12 18 17 15 18 19 17 20 21 28 48 55 55 58 52 47 49 65 63 37 41 47 55 66 72 75
34 29 31 24 24 22 17 12 14 11 10 10 10 11 12 13 12 12 12 12 12 12 12 13 12 13 14 16 24 19 15 19 22 24 42 54 64 58 54 55 52 58 51 49 48 45 55 66 56
30 24 19 14 12 11 10 8 8 8 7 7 9 8 8 10 11 12 13 14 14 14 15 14 14 14 14 13 14 15 21 24 15 16 25 36 61 70 68 60 64 68 61 53 60 61 64 57 45
16 13 14 15 17 16 16 14 5 7 9 11 11 11 10 12 14 13 12 12 12 14 14 15 15 14 16 15 14 13 18 31 19 16 16 23 43 64 70 71 62 63 66 56 65 66 67 65 54
18 19 18 17 17 16 18 16 5 7 7 8 10 9 9 11 12 12 12 12 14 15 17 17 16 16 15 15 18 16 20 23 24 17 17 18 28 46 59 76 72 70 66 53 53 54 52 41 32
18 18 22 26 20 14 14 9 6 9 10 10 11 19 30 24 13 9 9 11 14 16 15 16 16 16 17 17 21 19 22 23 25 21 19 18 24 33 44 61 70 70 69 63 59 50 44 43 40
22 28 35 24 16 14 15 9 9 11 12 18 21 32 38 26 23 25 31 16 9 12 15 16 13 13 16 16 22 27 23 26 31 27 24 21 25 36 60 61 64 69 68 70 64 56 54 52 42
32 32 27 23 21 16 12 10 14 27 33 48 47 35 26 23 25 18 36 37 22 11 18 21 18 14 16 15 27 34 21 35 37 35 31 25 36 55 58 48 64 69 78 78 68 60 60 61 81
34 30 26 24 19 15 13 18 25 50 58 39 31 32 36 40 38 31 21 45 22 14 12 25 22 20 17 20 28 26 34 45 42 38 34 32 45 54 51 51 60 79 82 74 64 70 77 96 93
30 31 28 17 19 36 26 22 55 68 78 82 60 40 51 53 46 92 74 67 56 26 12 18 30 24 21 26 23 34 45 44 41 37 33 34 41 46 56 49 71 85 76 79 80 81 97 99 87
31 33 16 24 56 55 53 30 64 95 82 80 56 52 92 64 82 86 76 71 55 43 16 28 43 28 24 27 33 48 47 40 40 40 42 41 46 62 55 63 84 81 90 82 84 90 98 94 84

GFSSGP_500_rhum_033.txt.gz
RH
13 12 11 10 10 10 11 13 11 10 12 10 12 12 14 15 19 25 23 18 21 23 18 13 10 6 5 6 5 6 7 8 8 8 8 7 6 6 6 5 5 6 7 8 9 11 12 13 15
10 8 7 5 7 8 12 14 11 10 10 11 14 16 14 12 11 12 18 17 17 17 23 19 16 15 8 6 7 7 7 8 9 9 9 8 7 7 6 6 6 6 8 9 10 11 12 12 12
6 4 4 4 4 5 8 8 8 6 7 13 14 14 13 10 11 11 13 16 14 14 15 18 20 21 17 10 6 6 8 8 8 9 9 9 8 7 6 7 7 8 9 10 13 14 15 15 14
5 5 5 5 6 7 8 6 5 5 4 10 11 15 13 12 14 14 14 16 13 13 14 15 15 21 21 15 10 8 7 8 10 9 8 8 8 7 7 8 9 11 12 13 13 14 14 15 16
8 7 7 5 7 10 10 10 7 5 5 10 16 12 11 11 17 14 14 16 16 16 15 14 14 16 20 26 26 16 12 8 6 6 7 8 9 8 7 10 13 16 17 17 17 18 18 19 19
10 9 7 6 9 10 11 12 9 7 7 6 8 8 6 9 12 14 14 18 18 19 18 18 17 17 15 15 18 19 20 19 14 7 6 6 7 8 8 11 17 20 24 25 27 28 29 29 30
12 11 8 9 10 10 12 13 12 10 9 10 7 7 5 6 10 12 9 16 22 22 21 20 18 17 17 20 17 14 14 16 18 14 9 9 10 9 11 13 19 27 31 30 31 32 32 32 34
16 12 10 8 9 10 12 12 13 10 9 12 8 7 7 7 7 11 10 14 21 24 23 21 21 20 18 17 17 17 17 19 17 17 15 14 14 14 16 17 20 27 30 34 36 35 34 36 38
15 9 10 11 11 13 13 10 10 10 8 12 12 9 8 7 7 16 19 14 21 26 26 24 24 23 21 21 20 19 17 19 21 20 18 18 19 20 21 22 24 30 35 40 42 40 40 40 42
11 8 9 13 14 14 12 10 8 8 7 14 10 10 10 9 8 9 13 15 13 22 25 26 25 27 27 26 24 22 20 20 20 22 24 24 23 25 26 24 25 26 38 46 47 47 43 42 42
11 9 12 12 12 12 11 11 8 7 6 10 14 11 11 10 9 7 7 7 7 9 19 24 27 29 30 29 28 28 28 24 23 22 23 29 29 29 29 31 30 28 32 43 59 58 59 57 52
12 11 11 11 10 9 10 11 8 7 7 8 15 10 7 9 8 7 9 9 9 10 9 12 13 20 30 33 32 33 32 30 28 26 24 28 34 66 36 35 34 32 30 31 38 57 71 64 59
12 11 10 9 7 6 9 12 7 7 8 12 12 12 9 8 10 10 12 13 12 11 14 14 16 17 16 31 36 41 40 37 33 30 26 26 28 61 48 38 36 34 32 30 31 35 41 53 57
10 10 9 8 5 4 9 12 7 7 9 10 11 9 9 8 8 12 12 13 11 10 12 12 7 12 15 15 15 24 40 44 43 38 33 29 27 29 34 34 35 34 33 32 29 32 36 40 51
10 9 8 7 8 9 14 10 6 9 9 8 9 10 8 8 7 7 10 11 10 8 6 7 8 6 7 9 10 11 16 36 45 45 39 36 33 32 32 34 35 33 31 28 27 26 31 40 50
9 8 8 16 11 11 13 7 8 11 8 7 8 7 8 8 7 7 8 8 9 9 7 6 8 6 6 7 8 10 17 17 27 45 49 40 40 40 38 36 34 33 36 30 27 25 25 32 48
8 8 9 12 14 13 10 7 9 9 7 7 7 7 7 8 8 8 9 10 10 10 9 7 8 8 8 8 8 10 10 16 18 32 52 51 48 44 39 38 39 34 34 35 30 29 28 27 39
12 10 8 9 10 9 9 6 7 9 7 8 8 8 8 8 9 10 10 11 13 13 11 9 8 9 11 15 13 18 41 33 20 14 37 53 54 52 46 47 44 48 58 60 55 35 31 31 36
11 9 9 11 13 10 11 9 8 9 8 8 9 9 9 10 11 9 9 11 12 12 11 10 9 10 12 15 20 15 16 21 18 17 19 36 54 59 57 53 52 52 53 49 68 65 41 38 45
11 9 14 15 14 9 10 9 8 9 11 11 12 11 12 12 10 9 8 8 9 11 12 12 10 10 10 14 16 19 29 32 35 39 50 43 42 46 55 58 58 55 53 52 50 52 51 48 49
21 17 20 16 20 18 10 8 11 12 14 15 16 15 13 12 12 11 10 9 9 9 11 12 13 11 11 22 16 18 28 36 52 56 49 40 27 38 26 45 64 64 60 56 59 64 66 58 55
33 28 28 27 27 19 16 7 12 15 15 17 16 14 13 12 12 12 12 12 11 10 11 12 13 13 12 12 12 12 12 13 14 24 41 50 47 42 43 35 47 56 62 61 60 66 69 62 61
33 31 32 28 22 18 15 10 7 10 10 10 9 8 9 10 11 9 9 10 11 12 12 12 14 14 13 13 13 14 14 16 23 25 31 46 51 47 44 46 45 44 60 63 66 72 80 65 57
32 25 19 15 13 11 14 12 6 7 8 9 9 10 10 10 9 9 10 11 11 11 11 12 14 15 14 14 13 14 14 17 21 28 34 47 48 43 44 53 57 47 52 56 65 66 68 71 69
19 19 19 18 17 14 12 10 6 9 12 11 10 11 11 11 10 9 9 9 10 11 12 13 13 13 16 16 16 16 16 16 23 26 37 42 44 47 30 43 48 45 54 57 68 62 62 68 70
21 21 20 18 16 15 13 8 8 11 14 12 12 17 18 23 22 20 19 21 26 26 22 18 11 12 15 16 15 17 16 16 22 40 46 48 45 47 34 29 46 49 61 74 60 52 65 76 80
24 24 26 28 25 18 14 12 12 13 16 30 40 34 34 33 28 26 25 20 17 16 17 16 13 16 11 16 16 16 17 18 25 37 51 53 45 47 39 36 50 56 75 75 56 56 74 82 72
26 30 30 28 21 16 14 14 12 34 53 41 41 45 44 44 48 38 32 33 42 37 36 26 21 17 20 13 25 20 16 23 27 37 50 45 39 39 39 43 43 58 81 70 60 72 82 80 90
36 34 26 23 24 19 16 21 54 71 48 37 39 54 48 57 64 63 50 45 72 55 35 23 19 27 23 14 23 23 24 19 28 37 48 47 46 46 48 46 55 75 68 64 70 81 84 93 86
36 25 22 27 17 24 52 30 74 58 61 52 54 72 99 100 99 99 86 96 80 36 27 40 36 50 25 32 26 27 24 22 31 40 49 55 54 51 51 51 96 60 72 61 70 78 89 90 87

GFSSGP_500_rhum_036.txt.gz
RH
14 11 11 10 10 9 9 10 10 10 11 12 15 14 16 19 33 31 21 18 21 22 21 20 16 12 10 5 4 5 5 6 6 7 7 7 7 7 6 6 6 5 5 6 6 8 8 9 10
15 13 11 10 10 10 11 10 11 8 8 10 12 11 10 12 15 16 16 15 16 15 14 16 19 20 15 11 6 4 5 6 7 8 9 9 8 8 7 7 7 6 7 7 8 9 10 10 11
14 13 12 10 9 9 13 11 10 10 10 9 9 9 7 9 10 12 12 13 13 13 14 14 14 18 19 18 16 11 6 6 6 7 8 10 10 10 9 8 7 7 7 8 10 11 12 12 13
14 12 10 8 7 6 6 6 6 6 6 9 8 8 7 7 10 13 15 16 15 13 13 13 12 12 14 18 20 18 12 9 7 7 8 10 10 9 9 8 8 7 8 10 11 12 13 13 14
16 12 10 6 5 7 6 5 5 5 5 5 9 6 5 8 8 9 11 13 13 14 14 14 14 13 13 12 14 20 25 20 15 13 10 7 6 8 8 8 8 8 9 12 14 15 16 16 16
17 12 7 4 7 10 10 8 6 6 5 5 8 6 5 5 5 7 11 16 15 16 15 16 17 16 15 15 14 15 16 17 17 18 18 15 8 6 6 7 7 9 12 16 20 22 25 26 26
17 9 5 7 10 9 13 11 7 6 5 5 7 5 4 5 4 6 9 15 14 17 19 19 20 19 18 17 16 16 18 16 16 16 16 17 14 10 11 10 10 12 14 20 27 30 29 31 33
10 6 6 7 10 12 14 12 11 8 7 7 6 5 5 5 4 4 5 9 13 15 19 21 21 21 20 19 18 18 18 17 18 19 20 18 16 15 15 15 16 17 21 24 31 34 36 35 35
10 7 7 10 12 14 15 12 11 10 7 7 7 5 7 6 5 5 5 6 9 14 21 29 24 23 22 22 21 19 18 18 18 18 18 21 20 19 19 20 20 21 24 32 34 41 41 40 39
11 7 9 13 14 15 15 10 10 9 8 8 7 9 7 8 7 5 6 7 9 11 22 19 23 24 24 26 25 24 23 21 18 20 21 22 22 25 25 26 26 25 25 26 33 40 48 47 44
13 9 13 14 16 17 13 11 10 8 8 7 6 7 6 7 9 7 6 6 6 8 10 13 17 22 26 28 28 29 27 26 25 23 22 23 23 25 29 30 30 31 33 31 31 34 43 52 52
14 14 14 14 14 12 12 12 10 8 8 8 6 7 7 7 7 9 7 7 9 18 10 9 11 16 21 24 26 28 30 32 32 31 30 30 27 27 28 40 45 34 34 34 33 31 30 32 36
16 14 14 14 13 12 10 9 10 10 10 10 7 6 6 6 7 9 8 18 9 11 10 11 12 14 15 15 14 18 25 33 33 35 34 36 34 30 29 30 41 38 37 37 34 32 30 29 30
14 16 14 12 12 11 10 9 8 9 13 12 8 6 7 6 7 7 8 9 10 9 9 9 10 12 17 20 23 22 15 18 23 25 33 37 38 36 33 30 30 34 35 36 33 31 30 28 28
15 15 14 13 14 12 11 8 5 8 14 10 8 6 6 7 7 7 8 9 9 8 7 6 7 9 9 10 11 12 12 12 12 14 22 44 46 44 42 37 38 38 36 36 34 35 32 28 26
13 13 12 13 14 12 10 6 6 6 11 8 6 8 7 7 7 7 8 9 9 8 6 6 9 8 12 10 7 7 10 16 11 16 15 28 48 52 48 43 43 38 36 36 34 33 33 32 29
11 10 11 12 12 11 9 6 8 7 7 8 7 7 7 8 8 7 8 8 8 8 7 6 6 12 7 19 16 7 12 10 11 12 17 26 35 53 54 50 44 41 42 42 41 49 55 56 47
15 13 10 10 10 8 8 6 7 9 8 9 8 8 8 8 9 8 7 7 8 8 8 8 6 8 22 27 29 28 23 24 20 47 50 38 18 27 47 52 53 51 49 46 48 48 47 45 62
16 13 11 10 9 8 8 6 6 11 10 9 10 8 9 9 11 9 8 8 8 10 8 8 7 6 10 32 40 41 49 50 29 23 34 25 28 23 36 41 54 56 53 52 56 50 50 47 49
20 16 14 12 10 8 7 6 7 9 10 10 9 9 9 11 13 12 10 9 9 9 10 10 7 6 6 11 28 26 22 28 33 46 54 43 54 64 54 42 40 48 57 58 62 63 62 56 55
66 28 16 13 11 9 8 6 7 10 10 11 10 10 9 11 13 14 14 13 12 11 12 12 11 8 6 7 12 30 40 36 43 50 54 68 79 75 64 63 52 46 32 42 56 58 58 59 60
37 26 18 15 13 9 10 7 9 11 10 11 13 12 14 18 18 17 16 15 15 14 13 12 12 11 8 8 8 16 39 50 47 35 29 48 62 75 64 60 62 64 51 37 33 39 47 63 65
26 25 27 24 15 10 14 9 8 14 13 13 14 14 15 16 17 16 16 14 14 13 12 12 12 12 11 10 8 9 11 19 20 32 25 29 56 74 78 76 73 70 64 50 49 41 50 65 62
32 36 32 25 22 12 16 11 9 11 10 11 12 12 12 11 10 10 9 9 9 9 10 10 10 11 12 11 10 9 10 12 14 16 18 23 36 52 61 63 71 76 64 59 64 52 57 53 49
38 40 31 24 19 14 13 11 10 13 15 13 12 13 11 10 10 9 9 9 11 11 11 11 12 12 12 11 11 11 10 12 13 14 21 22 28 37 49 62 64 68 68 59 55 56 61 64 65
41 27 19 16 15 15 13 10 13 18 19 17 14 12 12 11 10 9 9 9 10 12 12 11 10 10 11 12 12 11 12 12 12 13 15 22 35 39 56 56 66 67 76 56 40 55 62 65 76
24 21 20 19 17 13 16 16 17 20 18 14 12 11 11 10 10 10 13 15 15 21 27 24 25 23 19 18 17 13 11 10 11 14 17 17 24 58 68 66 72 78 73 55 46 56 59 98 67
22 22 26 27 23 18 15 14 17 28 24 20 20 21 22 25 27 30 36 43 53 61 52 38 27 23 23 22 22 20 16 13 14 15 18 19 23 48 64 70 79 78 64 47 48 54 59 74 95
23 24 27 30 26 21 15 15 49 45 38 36 38 34 33 36 40 44 38 41 48 55 73 79 57 37 36 31 24 18 14 15 15 19 20 21 38 44 51 64 70 62 50 47 49 70 95 83 68
32 39 36 26 21 25 23 51 60 58 53 54 48 45 28 25 24 27 40 50 64 80 86 85 90 57 51 44 32 23 18 10 24 25 34 41 41 47 48 67 65 54 52 52 54 88 93 72 56

GFSSGP_500_rhum_039.txt.gz
RH
14 12 12 11 11 10 11 11 11 12 13 18 21 23 24 27 26 25 24 22 21 23 23 22 21 20 16 12 8 5 3 4 4 5 5 6 6 7 7 7 7 6 6 6 6 6 6 7 8
14 13 11 11 9 9 10 11 9 9 10 12 13 14 15 19 20 21 20 19 17 17 16 16 15 17 21 17 14 11 6 4 4 5 6 7 8 9 9 8 8 8 7 7 6 7 8 9 10
18 16 13 11 10 10 13 10 9 8 10 10 10 10 11 12 14 15 13 13 14 12 13 13 12 12 14 16 17 18 17 13 8 5 6 6 7 8 8 9 9 9 8 8 7 7 9 10 12
20 18 14 12 10 13 15 11 10 10 8 9 9 9 9 10 11 11 11 11 11 12 12 11 12 11 11 13 13 14 16 18 16 11 9 8 8 8 9 9 8 8 8 8 9 9 10 12 15
22 18 15 12 12 16 14 12 8 8 8 8 8 8 9 8 9 10 10 12 12 12 13 13 13 12 12 13 12 12 12 15 17 20 19 16 14 12 7 6 7 7 8 9 10 12 14 15 17
20 17 15 12 14 13 9 7 6 5 4 5 4 6 5 6 7 8 9 11 12 11 11 13 16 15 14 14 15 14 15 16 16 14 14 14 15 17 15 10 8 8 8 8 12 14 17 20 22
18 17 14 15 17 10 8 5 4 4 4 4 4 4 3 4 5 5 6 8 8 9 11 13 14 16 18 19 18 16 16 17 17 17 17 17 18 17 16 14 13 12 12 14 18 18 23 24 27
21 18 14 14 16 9 10 7 6 5 6 6 4 5 4 4 5 5 5 7 9 9 11 14 17 18 20 20 20 19 18 16 16 17 17 17 17 20 18 17 17 17 17 18 22 24 27 30 34
22 16 12 15 15 12 13 9 8 6 6 6 5 6 6 6 6 6 6 5 7 9 12 16 17 19 21 22 21 22 20 19 19 18 19 18 18 19 22 22 21 22 22 22 24 28 34 35 40
17 14 14 17 12 14 13 10 8 8 6 7 6 7 6 6 6 6 7 7 6 7 9 15 24 29 31 26 20 23 22 21 21 21 21 20 19 20 20 21 24 26 27 28 28 28 28 32 35
10 10 11 14 13 15 14 12 11 9 9 8 8 6 6 6 6 6 6 7 7 6 6 12 14 22 32 18 22 22 22 22 21 24 24 24 23 24 24 25 23 26 30 30 30 32 31 30 29
9 8 11 15 17 16 13 12 9 10 11 9 9 7 6 7 6 6 7 8 8 8 8 8 8 9 11 17 20 21 21 22 22 25 27 29 28 29 27 27 27 27 33 42 34 35 34 34 32
12 11 14 18 18 15 14 12 12 10 11 9 10 9 8 6 5 5 6 7 8 9 11 12 15 11 10 13 15 15 14 14 15 20 24 28 29 32 34 32 31 30 29 39 37 35 34 33 31
15 15 16 18 17 16 14 12 11 11 12 11 10 9 8 7 5 5 5 7 7 9 12 10 10 10 10 12 15 17 16 18 21 20 18 21 22 24 35 40 38 38 36 34 32 32 34 34 32
18 16 17 16 17 16 15 12 8 11 11 9 8 9 7 6 5 5 6 6 7 8 8 11 12 11 10 10 9 9 16 20 12 13 12 14 14 18 34 47 46 43 39 40 38 35 34 31 32
20 20 17 16 18 17 16 8 11 10 11 8 6 6 7 7 6 6 7 7 8 8 8 9 9 10 11 13 10 12 24 28 20 10 11 10 16 22 32 41 48 51 48 47 42 37 38 36 42
15 16 16 18 18 17 13 9 12 11 10 8 6 4 6 9 9 9 8 9 9 8 7 7 8 7 10 13 18 19 28 34 28 19 14 11 12 18 27 36 44 53 53 50 44 43 45 46 50
15 15 14 14 15 13 12 8 11 11 10 8 7 6 7 9 9 10 9 7 8 8 8 6 5 6 7 8 20 28 31 34 31 31 27 15 30 30 36 21 23 42 58 54 51 50 51 54 51
21 16 13 12 12 11 11 9 9 10 9 9 8 7 8 11 12 8 8 8 8 8 7 8 7 6 7 9 16 24 42 46 43 48 37 25 36 48 54 54 41 35 45 51 57 57 54 55 55
24 19 16 16 14 11 10 8 9 9 8 8 7 7 8 10 11 10 9 9 9 8 8 8 8 8 7 8 12 12 34 40 46 56 59 44 26 42 64 63 71 64 42 43 50 52 52 52 53
20 18 20 17 15 12 11 9 9 9 8 8 7 7 8 10 12 11 9 9 9 10 11 10 10 9 8 7 9 11 11 21 42 48 42 52 49 71 82 74 73 94 91 65 52 46 32 29 38
65 39 27 23 21 17 16 13 12 10 9 8 8 9 10 10 10 11 11 11 11 10 11 12 12 12 10 9 7 7 10 11 18 35 46 59 65 66 65 78 96 97 96 86 71 68 64 42 37
63 71 71 50 32 22 16 15 14 15 15 15 15 13 12 12 12 13 13 13 14 14 15 15 15 15 15 12 9 8 8 9 13 16 21 53 69 73 68 58 73 83 95 96 97 96 93 65 54
64 59 37 24 18 15 18 15 16 15 14 14 14 14 12 12 11 11 12 12 14 14 15 16 15 14 13 13 12 10 9 9 10 19 24 22 29 39 46 42 56 63 77 90 89 93 94 77 67
26 26 21 20 18 17 19 14 15 16 13 13 14 13 12 12 12 11 11 10 11 11 10 11 11 11 11 10 10 10 10 9 9 10 13 25 30 24 35 41 41 44 60 74 79 85 87 91 76
25 24 24 23 23 21 16 13 17 24 22 17 12 10 10 9 9 9 10 10 10 11 11 10 10 10 11 12 11 10 8 8 9 9 10 14 19 38 42 37 42 54 56 65 73 80 84 87 89
33 31 39 26 18 16 15 17 26 26 21 16 14 12 11 10 9 9 9 10 9 9 10 10 11 11 11 11 11 11 10 9 8 8 8 10 13 17 21 40 51 58 70 67 74 76 86 96 87
39 34 24 19 16 17 16 22 26 19 16 13 11 11 13 13 13 20 22 23 24 30 35 37 39 42 39 30 29 18 13 12 11 10 9 9 11 15 26 29 57 84 46 56 63 76 86 83 66
24 24 22 24 22 19 18 26 21 18 17 26 32 31 29 27 25 24 23 21 21 25 32 44 54 54 65 60 45 41 39 33 23 15 14 14 12 12 17 20 19 20 21 32 52 70 79 60 48
25 24 25 28 30 25 21 31 34 30 43 37 35 36 34 19 23 30 29 27 25 23 21 22 22 40 87 95 72 47 35 30 29 25 22 19 18 15 20 31 31 22 27 32 47 61 62 48 49

GFSSGP_500_rhum_042.txt.gz
RH
22 19 20 19 22 22 21 23 24 26 26 28 29 30 30 28 26 26 24 26 27 25 22 20 19 19 19 15 13 11 9 7 4 3 3 4 4 4 4 6 7 7 7 7 7 6 6 6 7
23 19 18 17 17 16 14 14 13 14 14 15 19 23 23 24 23 21 22 22 20 19 18 18 16 16 16 15 16 16 14 12 9 6 4 4 4 5 6 6 7 8 8 8 8 8 7 8 9
22 20 17 15 13 13 14 13 10 10 11 12 12 12 13 15 16 15 15 15 15 15 14 13 13 12 12 12 13 14 14 15 15 14 13 8 5 5 6 6 6 7 8 8 8 8 8 9 11
23 19 15 15 11 13 14 12 10 10 11 10 9 9 10 10 12 12 12 11 11 10 10 9 9 9 9 11 11 10 11 11 12 14 16 15 12 12 10 8 6 6 7 8 7 8 8 9 11
24 19 15 12 12 16 17 14 11 11 10 10 8 9 9 9 11 11 11 10 10 9 9 9 9 9 10 10 10 10 10 12 12 12 12 13 15 16 16 15 14 9 6 6 6 7 9 10 12
24 18 14 12 14 20 19 19 13 11 10 9 8 8 9 11 10 11 11 10 11 11 10 11 12 12 11 11 11 12 11 12 13 13 13 14 14 14 13 14 16 14 11 10 9 10 13 17 19
24 21 16 16 16 18 21 18 14 10 9 9 8 8 8 9 8 7 8 9 9 10 10 10 12 13 12 14 14 13 13 14 14 14 14 14 13 14 16 17 16 16 15 15 15 16 19 24 29
28 25 19 16 17 19 20 16 13 10 8 6 5 5 6 6 5 4 4 6 7 7 8 9 9 12 14 14 14 16 16 16 16 16 15 14 15 15 15 17 20 19 18 18 18 19 22 26 30
28 24 17 16 19 23 23 16 12 9 6 5 4 5 6 7 5 6 6 6 8 8 7 8 10 10 11 14 17 20 22 19 18 18 18 18 18 17 16 16 17 20 23 23 22 23 24 24 26
33 21 17 19 23 28 24 16 12 9 6 6 6 6 7 8 7 7 7 7 7 8 7 7 8 10 16 23 29 32 29 19 17 18 20 22 22 21 19 18 20 21 21 24 25 26 28 28 28
30 21 21 26 29 29 26 18 12 8 6 7 8 7 8 8 8 8 7 7 10 13 13 11 9 9 15 23 24 32 24 16 18 19 21 21 23 25 24 23 23 24 25 24 24 29 31 31 32
25 24 22 23 24 24 22 18 12 8 9 8 9 8 8 8 8 9 9 10 13 12 10 9 8 7 9 12 15 19 14 14 17 18 18 21 20 21 23 25 26 25 26 27 26 28 38 36 33
16 15 15 17 16 16 17 14 9 8 10 9 10 9 8 8 9 10 8 7 7 7 8 8 8 9 12 14 11 10 10 12 14 13 15 16 18 17 18 26 30 28 28 31 31 29 29 28 29
19 16 18 18 16 14 13 11 9 9 12 11 11 10 9 8 8 10 10 7 7 6 7 8 9 9 11 16 12 9 9 12 13 14 17 21 20 15 13 14 22 26 31 35 34 34 34 33 31
21 19 18 17 16 14 11 10 8 14 14 12 12 11 9 8 8 9 10 8 9 9 8 8 16 19 10 9 9 9 9 10 20 16 23 14 13 11 11 14 18 23 31 33 36 37 38 37 34
18 20 18 18 16 15 15 10 11 14 13 13 11 10 9 7 7 8 10 10 8 10 9 9 17 16 11 10 10 10 12 38 19 23 36 40 12 8 10 14 14 16 28 38 45 46 44 41 39
18 15 16 21 20 18 14 10 13 12 12 11 11 11 9 8 6 6 9 11 9 8 10 9 8 7 14 12 12 13 15 23 22 27 32 42 30 15 13 11 13 20 24 35 44 49 48 46 46
20 16 16 21 22 18 14 8 13 14 14 12 11 13 12 10 9 8 7 10 9 8 8 9 10 9 9 9 11 16 21 25 30 32 34 47 44 26 13 13 18 28 22 20 25 37 52 52 50
25 22 16 15 17 17 16 12 12 14 13 13 12 12 11 10 10 8 6 7 10 7 7 8 9 11 10 9 9 9 8 12 20 26 45 50 48 40 28 22 35 52 55 42 32 29 33 44 46
24 22 20 17 15 14 14 13 13 13 12 12 11 11 10 10 10 10 9 8 9 10 7 7 8 9 9 8 9 9 9 9 15 32 42 51 64 67 59 53 56 76 68 62 61 59 41 38 38
30 24 24 23 20 15 12 11 11 11 11 10 9 9 9 8 8 8 7 6 7 9 9 8 8 9 9 8 10 9 10 10 11 16 35 55 62 74 80 74 59 60 80 86 86 86 89 63 56
34 32 31 27 21 16 14 10 14 13 12 11 9 9 8 7 7 7 6 6 7 8 8 9 8 9 10 10 9 9 12 12 14 15 15 14 24 59 68 68 72 84 97 92 92 97 98 97 90
42 35 30 22 18 15 14 12 16 19 17 16 13 10 9 8 7 6 7 8 8 9 9 8 8 8 9 11 11 10 10 12 14 16 17 17 18 20 58 63 93 91 91 87 79 85 86 97 97
100 95 69 47 36 20 31 26 26 21 20 18 16 14 12 11 10 9 8 8 9 9 11 11 12 12 10 12 13 12 10 10 11 15 16 18 24 27 29 35 51 83 87 84 80 73 79 80 86
100 96 68 49 40 27 27 22 20 23 19 16 14 13 12 11 10 10 10 9 9 9 9 9 9 10 11 12 14 14 14 14 12 12 19 27 23 23 41 54 48 38 49 41 49 71 71 74 73
53 47 41 31 25 24 23 22 22 20 16 13 12 12 11 11 10 10 9 9 10 10 10 9 9 9 9 9 9 10 10 12 12 12 12 12 11 11 15 31 42 44 51 52 50 73 65 76 69
30 24 27 24 24 26 24 21 18 16 16 15 12 10 10 10 10 10 10 10 10 9 9 10 11 12 13 12 12 11 10 9 9 9 10 9 10 11 14 17 33 39 56 62 65 61 61 60 65
47 47 38 29 28 25 21 21 22 20 16 14 13 12 10 10 12 14 17 20 21 22 24 26 26 30 36 40 31 23 18 17 14 12 10 10 10 10 11 14 17 39 54 59 64 64 69 65 64
38 46 41 34 24 20 23 29 24 19 14 13 12 12 28 34 31 31 27 20 19 22 24 26 27 26 25 25 45 61 59 44 33 27 19 15 13 14 13 13 16 16 33 56 55 63 70 73 60
44 35 28 26 26 25 31 28 22 16 15 15 36 41 36 27 21 22 19 20 27 31 30 20 12 11 11 12 20 55 87 87 75 57 43 33 26 18 16 15 16 18 20 24 46 68 65 68 75

GFSSGP_500_rhum_045.txt.gz
RH
51 34 26 30 36 34 39 38 38 37 33 32 32 31 30 28 26 25 25 24 24 25 27 23 20 19 18 16 13 12 12 10 9 8 6 4 3 3 4 4 4 6 7 7 8 8 8 7 7
59 41 26 24 27 28 31 38 36 35 35 34 32 32 31 30 28 27 26 25 24 22 21 20 18 17 16 15 14 14 14 14 13 13 12 9 6 4 3 4 5 5 6 7 8 8 8 8 8
59 43 30 23 22 24 26 26 25 25 25 25 24 24 25 26 24 21 21 20 19 18 18 17 15 14 13 13 12 12 12 12 12 12 13 14 13 10 7 6 5 5 6 7 8 8 8 8 8
48 38 34 26 21 21 21 18 17 15 14 14 14 13 13 14 14 13 13 14 14 13 12 11 10 9 8 8 8 8 9 9 10 10 11 11 12 14 14 12 11 11 9 6 6 6 7 8 8
39 33 32 30 22 19 20 17 15 13 14 13 12 11 11 10 11 11 10 10 10 10 11 10 9 8 8 8 8 7 7 8 8 8 9 10 11 12 12 13 13 14 14 12 10 9 7 7 8
37 32 31 28 22 19 19 17 13 12 12 11 10 10 10 10 11 11 10 10 10 10 11 11 11 10 9 8 8 9 8 9 8 9 9 9 9 12 13 13 14 14 14 14 14 14 12 12 14
35 29 28 24 19 20 20 20 15 14 13 11 10 10 11 13 13 12 11 11 11 12 12 12 12 11 10 9 10 9 9 8 9 10 10 10 10 9 10 10 10 14 16 16 15 15 16 17 18
32 29 24 23 19 20 22 23 20 15 13 13 11 11 12 12 12 11 12 11 10 11 11 12 11 11 11 12 11 11 11 11 12 12 12 12 12 11 11 11 11 11 14 19 20 19 19 20 21
32 28 22 20 19 23 26 25 22 17 15 12 11 10 9 9 8 7 6 6 7 8 10 10 10 10 11 10 11 12 14 18 21 21 18 15 14 13 13 13 13 12 12 15 16 21 24 24 25
36 25 22 23 22 30 28 24 23 18 15 13 10 8 6 6 7 6 6 7 7 8 7 7 7 8 7 8 10 14 23 30 35 31 18 15 15 16 16 16 16 16 16 17 18 21 21 24 26
35 26 24 25 29 31 26 23 22 18 16 13 10 7 6 7 9 8 7 11 9 8 9 7 6 6 6 7 8 16 27 28 31 24 12 13 15 16 16 16 16 18 19 21 22 22 23 23 26
41 32 30 33 34 30 26 24 22 19 18 14 11 7 6 7 9 13 12 14 16 14 12 12 15 13 12 10 8 13 18 19 20 12 10 10 12 12 12 13 14 14 14 18 23 24 25 25 25
52 42 40 47 39 33 27 21 21 20 18 15 12 8 8 8 9 10 12 16 15 12 15 16 14 12 17 32 29 11 11 11 10 9 9 9 10 10 11 12 11 12 12 14 18 22 28 32 31
31 35 39 42 39 32 27 23 18 18 20 16 12 8 8 9 9 10 11 12 10 8 8 9 9 7 7 22 20 8 10 13 10 8 8 8 11 12 12 11 11 8 7 9 12 19 29 33 34
50 28 24 24 23 21 19 17 16 20 17 16 13 10 10 10 9 10 11 12 12 9 7 10 9 8 8 9 11 13 13 12 10 9 8 12 15 18 13 8 8 7 9 12 11 18 26 32 35
38 33 26 21 18 15 13 11 11 14 16 16 13 12 11 11 10 10 10 10 10 10 10 8 9 8 8 7 14 23 35 38 10 8 13 18 18 30 39 23 8 8 10 10 11 14 20 26 40
43 23 24 22 22 18 13 13 13 13 14 15 15 14 14 14 12 11 10 9 8 9 11 9 8 8 9 9 11 26 27 34 33 19 15 34 27 28 37 43 23 14 10 9 16 18 13 20 36
48 44 31 22 24 22 16 10 14 15 14 16 16 17 16 14 13 12 9 8 6 6 6 8 8 9 10 10 9 12 23 31 30 25 35 33 40 38 49 66 35 20 11 10 18 26 16 19 21
38 39 53 21 18 19 18 11 13 15 17 17 16 15 15 15 14 11 9 8 7 7 5 5 8 9 10 10 10 11 10 13 18 26 28 30 30 39 54 59 55 36 28 19 28 46 42 43 38
33 28 29 26 19 16 16 15 17 18 16 15 14 13 14 14 14 12 11 10 9 8 7 6 4 8 9 9 10 10 11 11 11 16 22 30 28 35 46 65 75 67 67 51 51 58 64 58 56
30 26 25 25 23 18 15 14 16 16 16 15 13 13 13 12 12 11 10 10 9 8 8 6 6 6 8 8 8 9 10 10 11 11 14 15 13 16 37 53 71 83 88 84 59 54 68 85 81
38 31 28 26 22 20 17 15 17 14 13 12 12 11 11 10 9 9 8 8 8 7 6 6 6 6 6 8 8 7 8 10 12 14 15 13 13 13 23 31 49 67 72 87 99 74 80 94 85
48 40 35 28 23 20 18 17 18 15 14 12 10 10 10 8 8 8 8 7 7 7 6 6 6 6 6 7 8 8 9 9 11 13 14 16 15 15 18 29 36 33 54 78 83 91 91 96 87
79 53 39 33 30 25 23 20 21 16 13 12 11 13 14 14 14 12 11 10 9 9 8 8 8 8 8 8 8 8 10 12 12 14 15 16 16 21 29 40 36 35 41 45 67 76 84 97 92
98 73 50 38 28 25 31 27 28 25 22 21 20 19 18 17 16 14 13 12 11 10 10 10 9 9 9 9 8 8 8 10 10 14 17 18 18 18 18 30 43 35 43 46 46 63 73 82 84
99 100 92 66 61 62 50 34 28 25 21 19 18 16 16 15 13 12 12 11 10 10 9 9 8 8 8 9 9 9 8 8 8 9 10 12 16 17 21 23 35 47 54 53 54 63 73 80 81
77 96 92 82 64 42 31 27 24 23 20 17 15 14 12 12 11 10 10 9 9 10 10 10 11 13 14 14 14 15 15 13 12 12 11 12 12 14 15 17 32 56 62 57 60 58 70 82 80
63 70 51 38 32 28 32 27 23 20 17 15 15 13 12 11 10 10 10 10 14 18 21 22 20 20 23 25 26 27 26 25 30 34 21 16 15 16 19 21 19 24 56 57 65 64 72 81 84
44 42 40 42 35 38 31 24 20 17 16 16 14 13 12 11 11 12 23 22 19 20 18 20 24 27 28 25 18 15 15 18 28 42 65 65 38 20 16 16 21 23 24 30 48 53 57 65 82
52 47 46 51 45 30 24 25 21 18 18 16 14 13 15 23 27 29 25 26 23 23 31 27 21 13 10 14 18 21 23 27 20 25 100 100 94 70 43 25 18 18 20 22 25 29 31 33 43

GFSSGP_500_rhum_048.txt.gz
RH
66 56 45 50 52 48 43 41 36 33 30 26 23 21 21 21 21 20 21 22 23 24 24 22 21 20 19 18 16 16 13 10 10 8 8 7 6 3 3 3 4 4 4 5 6 7 7 7 7
71 64 51 38 41 49 49 46 42 38 35 32 30 29 28 27 28 27 27 27 27 26 24 22 21 20 18 18 16 15 14 14 14 13 13 12 10 10 9 6 4 4 4 5 6 6 7 8 8
65 65 62 41 32 36 46 50 43 40 38 36 35 34 34 32 30 29 28 28 26 22 20 18 17 17 15 14 13 12 12 11 11 11 11 12 12 12 13 12 10 8 6 6 5 5 6 6 7
60 58 61 51 32 27 33 39 36 39 38 37 36 34 32 30 28 27 26 23 19 17 16 14 12 11 10 8 7 7 7 7 6 6 5 6 6 8 9 10 12 13 13 12 12 9 6 6 6
67 52 54 54 37 25 27 30 30 30 30 28 26 24 22 20 17 16 16 15 14 13 13 11 10 9 8 8 8 8 6 7 7 6 6 6 6 6 6 9 10 11 12 13 13 14 13 13 12
69 47 45 52 44 28 25 26 24 23 21 19 16 16 14 13 12 12 12 12 11 11 11 11 11 10 9 9 8 8 6 6 6 6 6 7 8 8 8 8 9 9 10 12 14 14 14 14 14
55 64 48 48 43 30 25 24 21 19 17 15 14 14 11 10 12 12 11 11 11 11 10 11 12 11 11 9 8 7 6 5 7 8 8 8 9 10 10 9 8 9 8 9 12 15 15 16 16
43 49 59 51 40 29 26 23 21 18 16 15 13 12 11 11 12 12 11 11 11 12 12 12 11 11 10 8 8 8 7 6 7 8 10 12 13 12 10 10 9 9 10 10 11 12 15 20 22
35 36 44 50 39 28 27 27 22 19 16 15 14 14 14 14 14 14 14 13 12 11 11 10 9 8 7 7 8 8 8 8 8 13 18 23 22 14 11 10 10 10 10 10 10 11 12 14 18
38 31 33 40 35 30 30 30 24 20 18 16 15 14 14 13 12 10 10 9 8 7 6 5 6 7 7 7 8 8 8 8 9 19 25 26 28 12 10 10 10 11 11 10 11 12 14 16 18
42 30 31 34 33 32 29 30 28 25 21 18 16 14 13 12 9 7 8 5 6 7 8 7 7 7 6 6 7 6 6 6 9 18 23 24 20 10 10 9 8 9 9 10 11 13 15 16 19
59 42 34 35 36 34 29 28 30 30 23 19 16 16 15 12 8 7 7 7 8 10 12 11 9 7 7 8 10 10 9 7 8 13 15 18 10 8 7 7 8 10 11 10 9 11 12 16 18
73 51 47 43 43 36 29 26 27 32 28 20 19 17 15 12 8 8 9 12 13 14 15 15 13 12 13 14 14 13 25 32 15 7 9 9 7 6 6 7 8 9 10 8 8 8 7 8 10
72 59 72 60 47 38 29 25 22 28 31 22 18 18 16 13 9 9 11 12 14 15 14 13 11 12 17 13 12 10 11 26 31 23 8 10 8 6 7 8 8 7 8 8 7 6 7 8 9
94 70 79 71 58 42 33 24 21 28 29 22 18 18 17 15 10 10 11 11 11 10 8 7 7 7 10 13 14 10 12 23 44 44 14 12 9 6 7 12 14 16 8 6 6 8 10 9 9
96 56 43 51 60 45 40 30 21 27 25 24 19 18 17 16 11 10 11 11 11 11 11 10 9 8 8 9 9 9 10 12 32 34 45 55 46 11 9 11 16 32 32 12 8 8 9 10 13
94 68 46 33 33 39 36 29 25 24 23 21 20 18 18 16 12 12 11 10 10 11 11 10 9 8 8 8 8 8 10 19 24 24 28 41 56 85 37 24 28 22 37 40 21 11 7 9 19
73 78 64 45 30 25 22 22 19 17 15 14 15 17 16 15 13 10 10 10 10 9 9 9 8 8 9 10 9 8 20 16 14 17 30 38 50 55 58 59 39 43 41 55 42 21 11 8 20
62 73 66 34 31 31 24 17 16 16 16 18 15 14 15 15 13 12 11 10 9 8 8 9 9 9 8 6 9 10 11 13 20 22 14 14 31 39 42 50 52 62 52 56 62 50 35 19 21
54 64 64 40 28 32 28 18 19 16 16 18 17 16 16 15 13 13 11 10 9 9 8 8 8 9 8 7 6 6 10 9 11 11 10 12 13 21 38 41 54 55 47 49 65 72 64 57 44
50 57 44 47 50 52 41 21 19 20 17 13 13 15 16 15 14 13 12 11 10 10 9 9 9 9 8 8 7 6 5 8 10 10 10 11 13 15 16 26 39 41 54 62 70 67 78 82 80
40 62 57 42 38 47 54 25 18 16 15 16 15 14 13 12 12 11 10 10 9 9 8 8 8 7 7 7 6 6 6 7 11 11 11 11 11 12 11 19 43 47 48 56 62 69 71 80 87
37 37 44 40 33 30 28 27 24 22 18 14 14 14 13 12 11 10 10 10 9 8 8 7 7 7 6 6 6 6 6 7 8 10 11 15 15 14 14 16 32 42 56 43 67 60 64 79 88
46 40 35 32 30 26 24 22 20 19 17 15 13 12 11 10 10 9 9 8 8 9 11 11 10 10 10 9 9 8 8 9 9 10 12 16 19 21 19 17 18 15 25 54 67 62 69 65 76
64 50 44 39 33 27 26 23 20 18 16 13 12 11 10 10 9 11 14 15 16 15 15 14 12 11 10 10 9 9 8 8 8 9 10 12 16 21 25 28 27 21 26 46 68 79 84 80 83
97 85 56 46 42 36 34 27 22 22 17 14 14 16 18 18 19 19 18 16 15 13 12 10 9 9 8 8 9 10 10 11 12 12 11 11 11 13 15 17 21 29 31 33 44 70 89 79 80
97 100 96 77 73 52 47 36 33 30 25 23 21 20 19 17 15 14 12 11 10 10 10 10 10 10 10 12 13 16 17 18 20 22 24 27 26 19 16 17 18 20 24 33 48 57 71 75 80
98 98 99 100 100 92 67 52 36 28 24 22 20 18 16 14 13 12 11 11 10 10 10 13 16 16 15 17 19 22 23 22 20 22 27 32 33 32 44 46 26 20 22 25 30 50 61 76 89
56 61 81 86 77 65 46 34 29 26 23 20 18 16 15 14 12 11 11 10 10 12 21 17 17 16 17 19 18 16 14 25 29 28 31 21 16 16 28 44 65 64 35 24 26 29 34 48 69
50 45 51 44 46 36 38 32 27 24 21 21 18 16 15 12 11 11 12 18 24 20 17 16 19 16 12 12 10 10 14 22 34 23 21 36 30 32 28 97 100 99 95 66 35 27 25 26 28

GFSSGP_500_rhum_051.txt.gz
RH
64 60 56 55 51 40 34 29 24 22 20 17 16 16 14 14 15 18 18 17 16 17 18 20 21 21 21 19 18 17 16 15 14 12 10 9 8 7 6 4 4 3 3 4 4 4 5 6 7
72 67 63 56 53 51 48 42 36 31 26 24 22 20 19 18 20 20 21 22 23 24 26 24 22 20 20 18 18 16 15 14 14 13 13 13 12 11 12 12 11 11 8 5 4 4 4 5 5
80 78 70 61 54 50 59 50 46 40 36 32 30 27 25 24 25 26 28 29 29 27 25 22 20 18 17 16 15 13 12 12 11 11 10 9 9 8 8 8 9 10 12 12 12 10 10 7 6
97 83 71 66 56 49 50 48 50 46 43 40 37 35 32 32 31 31 31 31 30 27 22 18 16 14 12 12 10 8 6 5 5 5 5 4 4 4 4 4 4 5 6 6 10 12 13 12 12
92 96 77 67 62 50 40 42 51 51 46 44 42 38 36 37 34 32 32 31 28 22 17 15 13 10 8 6 6 5 5 6 5 4 4 3 3 4 4 4 4 4 6 6 8 11 13 13 14
69 66 90 68 64 63 42 33 36 44 45 45 44 40 36 34 33 28 22 21 19 16 13 12 10 8 7 6 6 6 5 4 4 3 3 3 3 4 4 4 4 4 5 6 6 6 8 10 11
78 33 48 74 61 66 52 32 28 32 35 36 35 32 29 26 22 16 14 13 12 12 11 10 9 8 8 7 6 6 4 4 4 5 4 4 4 5 6 8 8 6 5 6 6 6 6 7 9
82 34 29 62 60 58 57 36 28 26 29 28 26 22 20 17 15 13 12 10 10 10 9 9 9 9 8 8 7 6 5 4 4 4 5 5 8 14 17 16 9 6 6 6 5 5 6 7 8
49 62 26 40 61 48 53 39 31 26 25 24 21 20 18 15 13 12 10 10 11 11 10 10 10 9 9 7 6 5 6 5 5 4 5 7 14 20 22 22 8 7 6 6 6 6 6 7 7
48 55 39 51 66 51 51 39 34 28 24 22 21 18 15 12 11 12 12 12 11 11 10 10 10 9 7 6 5 6 6 5 5 5 5 7 14 19 20 20 6 6 6 5 6 6 7 7 8
85 60 44 54 50 76 52 41 36 31 25 23 19 17 15 12 12 14 13 11 10 8 8 6 6 5 5 5 5 5 5 5 5 5 5 6 11 13 18 13 6 6 6 6 7 8 8 7 8
71 88 73 50 39 57 76 44 37 34 30 22 19 16 14 15 14 13 12 10 8 7 6 5 6 8 8 6 6 6 6 7 9 10 12 9 8 10 11 7 6 7 7 8 8 8 7 6 5
91 69 64 46 41 49 88 52 42 33 26 25 21 18 17 16 15 14 12 9 7 6 6 6 6 7 9 11 9 9 12 14 13 13 23 34 24 9 7 8 6 6 7 8 8 9 8 6 5
97 77 60 50 49 50 79 69 40 37 28 25 23 20 19 17 16 16 13 9 7 6 6 8 10 19 18 16 17 13 14 12 11 11 15 25 34 27 11 12 7 6 7 9 10 9 9 6 6
98 92 80 75 63 60 60 72 46 40 38 30 24 21 18 18 18 17 13 9 8 7 6 8 9 11 10 9 8 13 15 12 11 9 12 15 36 49 37 25 9 7 7 11 15 20 10 5 6
97 99 96 96 84 62 65 57 52 40 36 33 30 26 20 19 19 19 16 11 9 9 10 10 10 9 8 8 8 8 7 7 8 13 10 10 18 34 34 54 73 53 13 16 18 23 41 29 10
94 95 95 96 92 78 59 55 48 43 34 33 33 28 23 21 18 19 17 14 10 9 9 10 10 10 10 9 8 10 12 13 14 11 13 12 21 26 30 33 44 66 68 43 30 26 26 35 35
72 87 94 97 80 72 58 52 45 39 39 38 35 30 24 19 18 16 16 15 11 9 10 11 11 11 11 10 9 8 8 10 17 17 13 14 14 14 14 20 31 46 54 66 64 46 44 45 60
67 89 98 99 81 51 53 51 44 41 38 35 31 27 23 20 17 15 16 15 12 10 10 11 12 12 11 10 8 8 8 7 9 8 13 17 21 21 21 17 14 15 32 43 51 56 62 63 58
70 80 91 96 82 57 36 35 37 32 29 25 21 18 17 15 14 13 13 12 12 10 11 12 11 10 9 10 9 8 9 9 8 7 8 9 10 12 12 12 14 13 14 18 38 49 60 59 52
77 77 98 98 92 72 42 30 27 22 19 18 17 16 15 13 11 10 10 10 10 10 10 10 10 9 9 9 9 9 8 8 8 8 8 9 11 12 11 11 11 11 12 13 15 23 46 49 57
83 71 88 95 98 75 62 41 41 30 22 18 16 14 13 14 13 13 11 11 10 11 11 10 10 9 9 9 8 8 8 7 7 7 8 11 13 12 13 20 21 23 21 15 16 23 63 88 76
78 59 71 97 87 87 50 41 48 40 30 20 19 17 16 14 12 11 10 10 10 9 8 8 8 8 8 7 7 7 7 7 7 6 7 8 10 13 15 16 19 19 21 34 52 37 43 71 80
70 61 46 71 97 62 52 49 50 51 47 35 20 17 16 14 14 12 11 11 10 9 9 8 8 8 10 12 12 12 11 10 10 10 10 10 11 13 15 21 22 23 26 24 23 27 44 58 82
65 69 49 43 80 92 72 55 55 56 50 41 32 26 23 17 14 13 12 10 9 9 8 10 13 15 16 15 13 11 10 9 8 8 9 9 10 10 11 12 14 19 25 33 37 38 36 48 65
65 50 47 39 40 63 67 40 32 31 26 21 17 15 14 13 12 11 10 10 9 12 16 18 18 15 12 10 10 10 10 9 10 12 15 16 17 20 22 26 21 18 24 20 23 24 36 54 53
77 61 50 45 41 40 42 39 31 27 24 20 18 17 14 13 12 11 12 16 19 19 16 13 11 11 12 13 10 10 9 9 10 12 16 20 22 20 18 20 29 35 45 41 36 33 27 39 53
97 99 93 72 60 50 45 42 35 31 29 28 24 20 18 18 20 19 19 18 15 13 12 11 12 12 11 11 11 10 10 8 7 12 13 9 8 10 15 28 31 28 18 27 61 59 50 53 57
97 96 99 99 89 81 76 55 47 45 36 29 28 26 23 21 19 18 16 14 12 11 11 12 10 12 14 13 12 10 8 8 7 8 8 10 18 26 36 38 35 31 30 26 25 71 85 66 70
69 86 91 93 94 98 94 79 64 48 39 29 24 22 20 18 17 15 13 12 11 11 12 13 15 14 13 14 12 11 13 10 11 13 14 15 20 32 35 22 24 28 32 41 88 78 93 100 73

GFSSGP_500_rhum_054.txt.gz
RH
52 48 41 36 32 24 22 20 16 14 13 11 11 11 10 10 9 10 11 12 13 13 13 14 15 17 18 19 18 17 16 16 15 15 14 14 13 12 11 10 9 8 8 8 6 4 4 4 4
62 61 58 48 38 31 30 26 20 20 16 16 15 14 14 12 12 14 16 19 18 18 19 20 21 21 21 20 18 17 16 15 14 14 13 13 12 12 12 12 12 12 12 11 12 11 10 10 8
67 65 63 49 47 40 43 47 31 24 22 21 20 18 18 16 16 17 18 21 22 23 24 25 23 20 19 17 16 15 14 13 12 10 9 8 6 5 4 3 3 3 4 4 5 6 8 11 12
82 68 62 56 51 53 59 61 40 34 31 28 25 24 23 22 21 22 23 27 29 28 28 26 23 19 15 14 13 12 10 8 5 4 4 4 3 3 2 2 2 2 3 3 4 5 8 10 12
94 80 65 60 60 60 65 56 48 44 43 38 35 32 30 28 27 27 30 31 31 29 27 24 19 16 13 11 9 7 6 5 5 4 3 2 2 2 2 2 2 2 3 3 4 4 5 6 7
97 97 89 68 62 71 66 56 52 55 52 47 46 42 37 35 34 32 33 32 30 29 25 20 15 12 9 7 6 5 5 5 5 3 2 2 2 2 3 3 3 4 6 5 4 3 4 5 5
97 97 96 97 84 84 81 70 51 47 52 59 53 48 41 39 38 36 34 32 27 23 18 14 11 9 7 6 5 5 5 4 3 3 3 3 3 3 3 5 8 12 10 5 4 3 3 4 4
97 98 97 94 96 91 83 78 60 43 38 45 52 50 55 44 36 34 30 25 17 14 12 10 9 8 7 6 6 6 5 3 3 3 4 3 3 3 5 9 13 17 11 4 3 4 4 4 4
98 97 97 90 87 96 98 87 68 51 33 33 40 41 36 36 31 27 21 16 13 11 9 9 8 8 8 8 7 6 4 3 3 3 3 3 3 3 5 9 12 14 7 3 3 3 4 4 5
89 90 96 97 77 55 96 93 71 58 36 28 31 32 30 28 23 18 15 13 11 10 9 8 8 8 7 7 6 4 3 3 3 3 3 3 4 4 5 7 9 11 4 4 4 4 5 7 7
90 82 74 52 98 65 82 93 76 60 42 29 27 29 26 24 20 17 14 12 10 10 10 9 8 8 6 5 4 4 4 4 4 4 4 5 8 11 13 8 8 7 4 4 5 5 6 8 8
93 63 51 48 85 82 49 93 77 63 43 33 25 24 24 21 18 15 14 12 12 10 10 9 8 7 5 4 4 6 6 6 6 5 8 11 12 22 34 29 9 6 7 5 5 6 6 6 6
98 67 52 63 73 81 50 92 90 68 43 37 30 23 24 21 18 15 13 14 13 11 10 8 8 6 5 5 5 7 10 11 11 11 11 10 9 8 14 28 29 10 12 7 6 6 7 7 7
97 100 70 66 74 71 60 88 92 68 49 43 33 28 23 21 18 15 17 16 13 11 10 8 6 6 11 20 21 19 14 14 11 16 17 11 9 8 9 18 43 37 26 10 6 6 9 11 16
78 98 93 66 67 92 96 73 67 84 57 42 35 30 26 21 18 18 19 17 14 12 11 9 6 6 6 8 14 9 8 6 7 6 6 6 7 11 10 10 16 34 38 56 52 20 11 15 17
60 94 100 77 72 94 95 77 67 91 71 47 38 30 26 23 21 20 19 18 15 13 12 13 14 10 13 7 8 9 12 11 8 11 14 13 13 9 10 10 14 19 22 32 44 67 72 32 26
58 65 95 100 96 96 90 75 67 67 89 57 43 38 30 24 22 21 21 18 16 15 13 11 10 8 8 8 8 11 9 10 9 9 10 12 15 16 13 12 18 15 13 14 21 32 44 60 61
52 47 74 99 98 95 89 73 67 63 74 81 48 40 36 32 28 23 21 17 16 16 16 13 10 10 10 10 9 9 14 17 9 8 8 11 10 20 17 22 24 27 21 19 19 15 14 28 47
74 58 60 94 96 96 91 86 60 57 62 66 57 43 38 34 30 26 21 18 19 19 19 16 12 10 10 10 10 9 12 12 10 8 10 10 16 18 20 20 21 29 31 17 26 14 11 13 18
69 59 69 75 84 94 98 91 66 49 54 70 67 54 40 33 28 23 19 19 19 17 17 16 13 10 11 12 11 10 8 9 10 10 10 10 17 21 18 22 24 40 38 37 29 33 35 36 21
69 57 65 59 71 91 97 89 70 59 53 57 70 56 47 37 28 22 19 18 17 15 15 15 13 11 11 12 11 10 9 8 10 10 10 9 8 12 18 22 24 35 40 42 53 48 47 54 67
76 57 61 59 74 100 95 80 69 52 48 47 52 40 33 28 24 19 16 14 12 11 11 11 11 10 10 10 10 10 9 8 7 8 8 8 8 8 7 8 15 18 19 18 26 33 37 50 70
85 62 58 61 84 91 92 77 70 61 36 28 26 33 21 17 15 14 12 12 12 12 11 11 11 10 9 9 9 9 8 8 7 8 9 9 9 9 10 11 10 10 10 15 22 38 35 30 42
94 67 64 75 90 94 96 95 69 51 38 33 29 22 20 18 17 15 13 13 12 12 10 10 9 9 9 9 8 8 10 13 14 14 13 12 10 9 9 9 12 11 14 16 17 25 26 32 39
97 75 72 82 80 75 96 89 73 61 52 47 44 34 30 19 18 17 16 16 14 14 12 11 10 9 9 8 10 14 16 16 13 10 10 10 9 9 10 12 16 22 28 33 37 29 22 32 34
99 98 71 77 65 61 82 81 72 58 55 50 50 48 47 42 33 28 26 25 19 15 13 11 10 9 10 14 18 17 11 10 12 10 9 9 9 9 12 17 15 9 12 17 22 29 44 60 58
96 95 79 84 70 54 52 61 73 64 61 57 51 43 40 35 30 23 20 18 16 12 11 10 10 13 18 17 12 11 13 10 10 10 9 8 8 8 7 7 8 10 16 24 33 41 47 49 72
100 100 90 82 76 68 55 50 50 58 60 39 29 27 23 18 16 14 12 12 12 11 12 15 18 18 15 13 13 12 10 10 10 10 10 9 10 11 10 10 12 11 16 23 31 40 46 44 45
100 96 88 80 68 61 55 46 44 44 44 42 36 30 24 21 19 16 15 15 17 19 19 18 17 15 13 13 11 12 11 11 12 10 8 9 11 13 11 13 12 16 14 20 26 43 39 59 50
99 98 100 100 98 91 78 64 53 48 44 42 36 31 28 24 25 24 22 21 20 18 16 16 15 12 12 14 14 12 12 14 11 8 8 8 10 13 13 11 18 24 21 28 39 41 63 75 84

GFSSGP_500_rhum_057.txt.gz
RH
39 34 29 24 20 17 15 15 11 8 6 6 7 8 8 9 8 7 7 8 8 9 9 10 10 13 16 16 16 17 16 16 15 15 15 14 14 14 13 13 13 13 13 13 12 12 12 10 10
44 38 34 28 24 19 20 17 13 11 8 11 12 13 11 10 9 9 10 16 14 13 14 15 16 17 19 19 18 17 16 15 15 14 13 12 12 11 10 8 6 4 4 3 3 4 6 7 8
60 41 39 32 28 25 29 22 18 16 13 13 14 13 10 9 9 10 11 16 19 19 19 20 20 20 21 20 18 16 15 14 13 11 9 6 4 3 3 3 2 2 2 2 2 2 3 3 4
77 47 41 34 30 37 39 27 19 18 19 17 17 16 13 13 14 15 15 17 20 23 24 24 24 23 21 18 15 14 12 11 8 5 4 4 3 2 2 2 2 2 2 2 2 3 3 3 4
96 62 44 34 35 58 45 42 25 21 24 22 20 19 18 17 18 18 19 20 24 27 28 27 25 23 20 16 13 11 9 6 5 4 4 3 2 2 2 2 2 2 3 4 5 5 4 3 3
98 93 60 40 44 74 59 49 43 27 30 30 24 22 22 22 23 26 24 26 30 30 28 27 24 22 18 13 9 6 5 5 6 5 4 2 2 2 2 2 3 4 7 10 9 5 3 2 3
96 96 85 73 68 83 69 56 43 36 41 43 32 34 40 34 31 33 38 30 32 33 30 27 23 19 14 9 6 5 5 5 5 4 3 2 2 2 2 2 3 6 8 12 9 3 2 3 3
96 97 99 96 99 98 89 75 65 52 56 60 50 39 51 57 41 37 40 39 39 38 30 24 18 12 9 7 6 6 5 5 4 3 3 3 3 3 3 3 3 5 8 10 6 3 2 2 3
98 94 92 96 95 97 98 89 64 62 58 54 53 50 51 55 61 50 40 37 36 32 25 17 12 9 7 6 6 6 6 5 4 2 2 3 3 3 3 3 4 5 6 8 4 3 3 3 4
95 92 92 98 98 97 96 96 77 74 67 53 46 48 51 50 55 65 41 36 33 30 20 14 10 8 7 7 7 6 6 4 3 3 3 3 4 4 6 11 18 18 7 6 4 3 3 4 4
93 84 100 97 98 97 96 96 96 66 75 61 45 37 39 43 44 43 36 29 24 21 14 11 9 8 7 7 7 6 5 4 4 5 5 5 6 7 9 14 27 34 20 6 6 5 4 4 5
93 91 97 98 97 98 95 97 97 83 77 67 55 36 35 34 34 32 29 24 20 15 12 9 9 8 8 8 7 6 4 4 6 8 8 9 8 9 9 8 8 12 25 19 9 8 5 4 4
91 100 97 99 96 97 97 91 90 100 94 74 60 45 31 28 29 27 23 21 18 14 11 9 9 8 8 8 7 5 8 9 10 10 12 11 13 15 10 8 8 9 18 38 28 16 8 6 5
71 99 96 96 90 91 99 96 85 95 90 81 66 52 33 28 26 25 22 19 16 13 11 10 10 9 8 7 6 8 14 11 9 8 6 6 6 5 5 6 9 9 9 12 37 37 48 44 18
72 97 95 96 84 69 82 88 86 93 77 79 69 54 39 30 26 24 22 19 16 14 13 12 10 10 9 8 7 6 5 7 12 11 8 6 7 10 11 10 10 9 10 12 17 20 24 33 50
78 86 90 96 89 64 66 80 95 90 83 81 74 60 42 34 30 25 22 19 17 14 13 15 13 13 16 19 13 10 10 15 20 19 9 10 16 12 9 12 11 13 15 14 16 15 14 15 18
99 78 80 95 90 76 65 76 97 89 70 78 76 63 46 38 33 28 23 19 16 15 14 16 15 14 15 14 27 19 8 13 10 7 15 15 8 8 12 17 12 14 14 12 14 17 20 16 16
62 70 70 83 91 99 90 84 96 97 81 64 76 77 55 41 34 29 25 20 17 18 18 15 15 17 14 11 11 21 10 12 17 19 12 8 8 8 17 24 32 20 23 22 22 25 28 30 21
100 100 79 64 91 94 84 84 94 89 86 72 64 82 67 49 41 31 24 21 21 19 19 21 19 15 15 14 12 10 10 8 17 8 8 16 14 18 25 35 31 29 30 29 31 31 36 42 55
66 84 78 60 85 84 100 85 96 82 73 72 66 61 77 61 47 43 40 36 31 27 23 21 20 18 17 16 14 11 9 10 11 10 9 8 7 15 22 32 21 26 32 41 50 53 59 68 74
52 70 84 69 54 70 86 98 85 78 77 67 66 63 63 72 60 50 44 38 32 27 22 20 19 18 17 15 13 11 9 8 10 10 10 10 9 7 6 9 16 21 29 40 42 45 55 71 77
58 64 94 72 52 52 82 80 96 97 79 72 55 62 69 64 59 56 49 42 32 25 20 19 18 16 14 13 12 10 9 8 8 9 9 9 9 8 7 8 11 12 24 26 25 34 41 42 42
89 91 89 71 58 46 59 72 74 83 78 78 63 50 56 62 65 57 48 38 30 32 26 18 15 12 11 11 11 10 10 9 8 8 8 8 9 11 12 12 12 10 10 9 11 23 26 32 30
86 93 88 80 62 58 55 67 64 74 84 83 65 52 52 53 57 45 28 20 16 14 13 12 12 11 11 11 10 9 9 9 9 8 8 14 16 14 10 10 10 12 12 11 13 16 18 23 25
89 97 99 93 68 51 55 63 54 72 77 70 50 34 32 30 39 31 24 18 16 13 13 13 14 15 13 11 11 10 10 9 9 13 17 16 11 12 11 9 9 10 12 12 10 8 9 11 18
89 99 93 85 63 55 62 66 55 72 76 72 50 35 30 26 22 20 19 18 17 18 20 21 22 20 15 14 12 10 9 10 16 18 11 11 12 10 9 8 8 9 10 8 9 12 14 20 21
93 92 99 96 86 68 73 69 71 80 78 71 52 45 43 43 42 42 41 35 32 28 29 32 28 22 17 13 11 9 12 18 14 11 12 11 10 9 10 9 8 10 9 10 12 14 17 20 20
100 100 100 96 92 70 69 70 69 70 79 78 71 61 53 52 51 50 50 51 54 49 40 24 19 15 12 11 11 18 17 12 12 12 11 11 10 10 8 7 8 10 10 12 11 9 12 18 13
100 98 96 93 88 82 74 71 65 71 66 59 72 69 56 49 40 36 32 26 19 16 14 14 14 13 13 17 18 15 12 12 12 12 11 12 11 8 7 8 8 10 10 12 9 7 9 11 24
88 99 95 96 93 92 73 65 63 57 52 47 44 48 46 38 32 26 22 20 20 21 19 18 18 19 19 18 16 14 12 13 14 12 14 13 10 8 9 11 11 14 15 15 9 9 14 16 25

GFSSGP_500_rhum_060.txt.gz
RH
48 37 29 28 22 15 12 12 17 27 17 30 36 35 30 20 12 14 12 7 8 6 6 6 8 10 12 14 16 18 18 17 16 16 15 14 14 13 12 12 12 10 8 7 6 5 4 5 6
59 42 35 29 25 18 16 13 12 11 11 13 16 19 18 16 12 9 10 13 9 8 10 11 13 15 17 18 18 18 17 16 15 14 13 12 10 8 5 3 3 2 2 2 2 2 2 3 3
80 48 38 32 25 23 21 14 12 10 9 9 9 8 10 10 11 8 10 10 15 14 14 16 17 19 20 21 20 18 16 15 14 12 9 6 4 3 3 2 2 2 2 2 2 2 2 2 3
93 64 41 34 25 30 25 19 16 14 12 11 10 7 9 9 9 9 10 12 15 18 19 20 21 21 22 22 20 17 14 12 10 7 5 4 4 3 2 2 2 2 2 2 3 4 6 5 4
97 76 49 36 31 34 26 22 19 16 14 14 12 10 10 10 10 12 13 15 16 18 21 24 25 24 23 22 18 15 12 9 6 4 4 4 3 2 2 2 2 2 2 4 6 9 7 5 3
99 94 59 39 43 43 31 28 20 19 18 16 14 13 12 11 13 13 15 17 18 21 23 26 27 26 24 22 18 13 9 7 6 5 4 3 2 2 2 2 2 2 3 4 6 8 7 3 2
94 87 81 56 68 59 43 31 23 22 22 19 17 15 16 15 15 17 19 21 22 24 27 28 29 27 24 20 14 9 6 5 5 5 4 3 2 2 2 2 2 2 3 4 6 7 4 2 2
95 100 99 82 98 90 54 32 29 25 28 24 20 19 24 33 23 25 34 39 32 30 29 30 29 27 22 15 10 7 5 5 4 4 4 3 2 2 3 3 3 3 4 4 5 6 3 3 3
98 96 93 93 97 94 62 42 37 34 34 32 26 27 28 32 38 38 42 42 39 36 34 32 32 26 18 12 8 6 6 5 5 4 3 3 3 4 3 3 5 9 16 17 10 5 4 3 3
97 92 83 94 98 90 74 62 58 43 36 43 35 35 36 34 48 48 52 47 46 42 39 35 30 22 14 10 7 6 6 6 5 4 4 5 4 3 4 6 9 12 18 21 19 10 6 5 4
97 73 77 98 98 96 90 75 73 62 38 50 52 48 50 52 54 64 69 66 60 42 35 32 30 20 12 9 7 7 7 6 5 4 4 5 6 8 8 9 9 8 8 9 12 17 14 8 6
89 88 97 98 97 97 96 93 79 79 56 49 57 52 51 52 53 61 59 63 63 47 32 28 22 16 11 8 7 7 7 6 5 5 5 7 10 10 11 13 11 7 6 7 8 16 25 21 12
94 90 97 98 95 97 98 98 97 87 87 69 64 58 52 49 48 47 49 51 52 46 32 21 17 12 10 8 8 8 8 6 9 17 15 13 9 6 6 4 4 4 5 6 7 7 9 27 34
76 98 98 94 96 96 96 97 97 95 83 82 73 72 62 51 42 37 38 39 36 31 27 21 16 12 10 10 10 8 7 7 8 7 6 7 8 6 5 5 7 9 8 9 8 8 9 12 17
71 98 94 93 97 96 97 97 93 97 100 94 94 79 71 59 43 32 31 31 30 27 25 22 16 13 12 11 10 9 8 8 9 7 12 15 11 9 8 14 16 11 10 10 10 12 13 14 16
84 91 92 99 97 96 95 97 100 96 99 100 94 88 76 54 45 35 29 28 26 25 22 18 15 12 12 11 11 14 18 14 10 8 12 18 22 8 13 10 7 9 14 11 13 15 14 13 14
95 87 77 96 94 97 94 98 96 96 89 88 96 89 80 59 48 40 33 27 25 23 21 18 16 14 12 12 13 29 20 18 22 11 11 8 7 14 11 9 9 21 27 30 31 27 26 28 27
28 72 62 74 93 93 94 93 98 88 75 64 77 81 80 74 58 46 39 31 25 24 22 19 20 17 14 13 13 13 12 13 15 11 10 31 40 20 10 19 44 43 42 46 40 35 32 34 38
49 91 86 63 85 94 97 99 88 92 87 69 68 75 84 76 70 60 42 34 29 26 23 20 20 21 20 17 14 13 13 13 12 14 28 47 40 38 47 44 40 36 33 35 41 46 28 30 44
66 75 82 94 85 96 99 95 96 84 73 78 82 74 74 81 71 64 53 42 32 28 25 22 20 18 17 18 18 18 17 15 13 12 18 9 7 7 7 7 8 9 9 8 11 23 28 44 56
36 38 60 78 79 64 90 87 86 65 68 78 79 84 74 63 65 65 65 55 40 29 26 24 22 24 22 19 17 16 15 15 14 12 10 9 9 9 8 8 8 8 7 8 9 17 18 21 29
36 32 41 67 81 68 78 78 81 77 59 67 84 83 71 63 57 62 70 62 47 42 39 38 37 34 26 22 17 15 14 13 12 10 9 9 9 9 8 8 8 7 12 14 13 10 10 10 12
39 42 44 56 78 78 64 81 67 78 54 52 71 82 76 68 61 57 59 70 61 48 48 51 48 45 43 30 18 16 14 11 10 10 9 9 8 8 8 8 10 16 17 12 11 10 8 9 10
56 49 54 58 59 59 58 60 54 71 66 80 73 74 80 68 59 59 60 65 65 59 53 50 59 57 43 37 29 19 12 10 12 11 10 10 9 9 9 14 16 12 11 12 8 8 8 8 8
65 62 62 75 60 39 65 63 45 55 72 77 87 89 92 79 58 53 52 58 62 51 38 30 26 22 24 20 15 12 12 12 11 13 12 10 9 10 17 15 10 12 12 11 9 9 10 8 7
54 63 72 75 57 57 72 51 40 49 57 65 70 95 96 89 68 55 51 52 57 41 27 20 16 13 12 13 14 16 18 17 14 12 11 9 10 18 16 12 13 10 9 10 10 10 10 9 10
67 62 79 80 84 84 72 54 46 48 58 72 84 98 79 52 39 36 33 32 34 30 22 18 17 16 16 21 24 29 28 17 15 12 10 12 18 14 12 12 10 9 9 8 8 9 8 11 12
82 98 87 80 78 66 63 57 50 54 71 89 94 99 82 42 34 30 27 24 21 22 23 24 25 25 29 33 41 41 32 20 13 10 16 17 13 12 12 11 10 9 7 8 8 9 10 15 13
86 78 67 93 79 69 69 55 56 62 86 98 99 97 92 56 42 41 39 41 41 43 46 46 48 51 53 50 35 18 13 11 15 18 15 13 12 13 12 11 12 9 8 10 10 12 15 19 18
63 66 79 99 89 81 74 65 62 67 96 98 97 100 99 84 60 53 54 55 53 48 43 41 36 27 17 14 13 14 17 19 16 14 13 13 14 14 13 14 13 10 11 11 12 17 19 18 18

GFSSGP_500_rhum_063.txt.gz
RH
60 48 41 28 23 15 14 22 56 76 98 91 95 82 49 40 32 24 18 19 13 10 8 8 8 6 7 11 15 17 18 17 16 15 15 14 13 12 10 8 4 3 2 2 2 2 2 2 2
78 53 48 35 26 19 15 16 33 56 76 89 96 87 52 39 28 22 19 14 10 8 7 8 8 10 12 15 18 19 18 17 16 15 14 12 9 6 4 3 3 2 2 2 2 2 2 2 3
95 61 54 43 28 22 20 16 18 31 47 58 81 74 59 38 27 20 12 9 11 8 8 10 13 15 19 21 21 19 18 16 14 13 10 7 4 4 3 2 2 2 2 2 2 2 3 5 5
98 86 59 45 32 30 28 20 17 17 21 26 36 49 47 35 21 13 8 8 10 12 14 15 17 20 22 23 22 19 17 15 12 9 6 4 4 3 2 2 2 2 2 2 2 4 6 7 6
98 96 68 49 40 36 32 24 18 15 14 13 15 18 20 18 12 10 8 9 11 13 16 18 20 23 25 24 22 19 16 14 10 6 4 4 4 3 2 2 2 2 2 2 2 3 4 6 4
96 94 84 53 45 43 35 28 22 18 13 12 10 10 10 9 10 10 11 11 12 13 15 19 23 26 26 25 23 20 15 11 8 5 4 4 3 2 2 2 2 2 2 2 2 3 4 5 3
96 86 83 68 55 50 38 32 27 19 14 13 11 9 10 11 12 12 12 11 13 16 17 20 24 27 27 25 23 19 14 9 6 5 6 4 3 2 2 2 2 2 2 2 3 4 4 4 3
89 98 83 87 69 59 43 36 30 22 16 15 12 11 12 12 14 13 14 15 17 19 21 23 26 28 28 26 22 16 10 6 5 5 5 4 3 2 2 2 2 3 3 6 10 12 8 5 4
100 95 80 93 96 69 52 44 33 25 20 16 16 15 16 16 16 17 18 18 20 22 25 29 29 30 31 27 21 14 8 6 5 5 5 4 4 4 3 3 3 4 5 8 10 11 11 10 7
97 92 79 85 99 97 72 61 40 29 23 21 18 18 18 20 20 25 24 28 32 45 40 38 35 34 33 26 20 12 8 6 6 6 5 4 4 4 4 6 7 7 7 7 7 8 9 12 14
86 70 77 98 97 96 93 100 57 41 29 27 36 22 24 23 26 35 45 45 45 45 47 44 41 37 32 28 19 12 7 6 6 6 5 4 4 4 6 7 8 10 10 7 5 6 6 8 11
97 82 91 98 94 96 90 89 95 59 44 34 27 34 33 30 29 35 49 51 60 56 52 47 41 34 32 26 18 10 8 7 7 7 6 9 10 10 10 8 6 5 4 4 4 5 5 6 6
74 100 100 95 98 98 98 87 95 89 66 49 44 47 44 43 37 39 50 64 66 72 65 59 44 33 28 20 14 10 8 8 8 7 7 10 8 5 5 6 6 5 6 10 11 9 8 9 9
78 80 93 96 98 94 97 99 85 87 72 61 48 54 43 37 41 48 56 60 65 69 67 62 54 36 24 18 14 10 8 8 8 7 7 6 6 8 12 10 9 9 13 13 8 7 8 8 10
58 68 98 96 98 89 97 97 87 93 77 65 62 67 59 46 47 52 52 52 51 54 54 49 42 31 22 18 14 11 10 9 9 8 13 12 10 13 17 21 10 10 12 8 7 11 11 12 14
60 62 92 96 96 99 96 96 99 96 78 82 78 78 74 66 62 55 52 48 45 44 42 38 32 26 24 18 15 12 11 11 12 15 14 10 8 8 16 9 8 15 11 8 9 20 25 31 34
57 66 70 90 93 98 91 97 97 97 97 97 93 96 89 81 77 70 58 50 43 36 33 32 29 24 20 18 14 13 12 13 15 21 18 22 18 9 9 13 23 18 9 17 40 46 43 44 44
22 42 59 78 84 91 94 98 97 95 98 98 99 100 100 96 82 75 66 56 47 35 30 28 27 24 21 18 15 14 13 13 13 12 13 14 14 16 30 38 31 29 50 59 46 42 28 26 33
22 26 35 43 80 95 95 98 96 98 97 97 94 98 97 92 80 74 67 61 52 37 29 27 26 24 22 20 16 15 15 14 14 14 20 18 17 22 42 37 34 38 39 10 9 9 8 8 7
22 28 75 89 78 93 98 97 96 94 95 94 84 89 89 91 87 75 70 64 58 48 40 30 26 24 22 20 19 17 15 15 14 14 13 13 13 16 14 13 10 8 8 9 9 9 8 7 10
30 41 81 79 72 88 90 96 96 88 79 66 60 58 58 68 75 75 75 71 64 54 44 37 32 27 24 21 20 20 19 18 18 16 15 14 14 12 10 10 10 9 9 8 9 8 9 14 16
34 36 67 86 79 67 74 68 92 97 82 75 56 54 63 66 66 65 70 70 67 62 54 45 39 33 28 24 21 21 23 23 20 18 18 17 15 13 10 10 11 9 9 8 8 12 16 14 11
38 44 34 50 60 68 70 66 62 96 79 60 60 60 63 62 67 72 69 64 69 70 67 62 60 44 34 30 32 33 32 32 36 22 16 14 12 10 10 10 10 10 10 8 10 18 12 12 10
45 40 34 31 34 31 39 44 37 66 71 60 64 65 67 69 70 70 70 68 62 66 72 68 60 52 45 44 47 49 48 45 36 26 22 13 11 11 12 12 13 11 9 11 18 13 14 10 8
44 39 35 36 31 18 34 36 20 52 74 69 68 61 64 75 65 67 70 68 65 61 60 65 66 62 56 52 55 58 58 49 42 33 18 12 16 19 16 15 11 9 14 17 12 13 10 8 8
42 48 48 43 26 33 42 21 18 49 64 68 67 70 68 72 63 69 70 67 60 55 57 62 64 60 55 50 39 32 27 26 18 13 12 18 22 19 17 14 11 15 15 11 12 11 10 9 6
42 44 56 60 48 47 33 22 26 44 55 58 58 70 79 79 79 78 75 76 68 55 50 58 60 48 32 23 16 14 13 13 14 18 24 31 27 23 16 12 13 16 13 13 12 11 10 8 8
35 60 58 58 54 52 47 48 41 52 57 53 58 65 74 78 81 87 86 83 81 64 52 50 53 52 38 27 21 17 16 18 26 34 39 42 33 20 12 16 15 13 13 14 12 12 10 8 10
56 52 71 69 59 43 40 49 64 57 59 54 62 77 73 84 100 100 85 77 59 44 35 32 32 30 24 19 20 23 26 30 38 46 48 24 14 13 17 14 13 14 15 14 14 13 11 13 13
60 80 72 63 46 52 50 41 70 76 69 64 67 85 86 91 100 98 74 42 36 32 30 27 26 25 26 36 41 43 50 52 40 20 13 15 18 15 13 14 15 16 15 16 16 15 15 17 20

GFSSGP_500_rhum_066.txt.gz
RH
94 66 46 34 28 20 16 33 95 97 98 97 85 71 59 50 43 38 33 33 23 15 13 10 9 9 8 8 11 15 16 17 16 15 14 13 12 10 8 5 3 3 2 2 2 2 2 2 2
87 84 58 39 30 22 17 20 72 97 94 90 87 82 66 57 43 38 40 29 20 13 11 8 8 8 7 11 16 18 19 17 16 14 13 11 9 6 4 3 2 2 2 2 2 2 2 3 4
95 94 68 49 29 23 21 18 31 75 92 94 92 84 75 65 55 39 39 27 18 11 8 8 9 11 14 16 18 20 19 17 15 13 10 8 5 4 3 2 2 2 2 2 2 2 3 4 5
97 95 86 53 36 28 28 20 19 44 70 82 93 95 75 68 56 41 33 22 11 10 8 10 13 16 19 22 22 21 20 17 15 12 8 5 4 3 3 2 2 2 2 2 2 2 3 3 4
98 97 94 64 42 37 32 26 19 20 36 48 64 76 87 68 55 43 28 18 9 10 12 13 17 19 22 24 24 22 20 17 14 10 6 4 4 4 2 2 2 2 2 2 2 2 2 3 3
98 95 90 82 48 47 38 33 24 18 18 28 33 55 57 67 45 35 26 13 10 10 11 15 19 22 25 26 25 23 20 17 13 8 5 4 4 4 2 2 2 2 2 2 2 2 3 4 4
97 93 68 84 63 57 46 39 30 24 18 16 15 20 33 31 33 21 14 11 10 10 12 14 18 23 26 27 25 23 20 16 10 6 6 5 4 4 3 2 2 2 2 2 3 4 6 8 7
91 99 87 75 96 70 51 44 35 30 22 17 14 13 15 16 14 14 11 12 11 11 13 16 19 23 26 27 26 24 20 14 8 6 5 5 5 4 3 3 3 2 2 3 4 5 7 8 8
51 98 78 77 96 95 64 48 40 33 27 21 17 14 13 11 10 12 14 13 12 14 16 19 21 24 29 29 28 26 20 12 7 5 5 5 5 4 4 4 4 4 5 6 6 7 6 6 6
64 94 88 81 98 97 92 54 44 37 33 26 19 16 16 12 11 12 16 15 15 17 19 21 24 29 31 31 30 26 20 13 7 6 6 5 5 4 4 4 5 5 6 8 8 5 4 4 5
53 80 93 100 97 97 97 74 49 42 34 29 24 23 31 16 16 22 16 20 16 19 23 35 41 38 36 34 33 28 22 14 8 6 6 6 6 6 7 7 8 8 7 6 4 3 4 5 6
52 76 100 99 95 90 94 89 55 48 42 30 26 24 32 48 28 27 22 33 31 30 34 50 46 43 41 38 33 30 21 13 8 7 7 7 6 9 8 6 4 5 6 6 6 8 12 10 7
24 48 86 93 98 97 96 94 71 54 46 37 29 28 32 65 57 36 32 35 37 41 44 44 44 45 45 41 33 29 21 13 9 8 8 7 7 7 6 6 9 11 11 10 9 12 9 6 7
21 34 86 98 98 97 98 95 85 69 53 48 39 36 33 56 68 49 39 42 46 49 50 55 60 59 58 44 33 26 20 14 10 8 8 8 7 8 9 9 12 14 19 8 10 14 9 8 14
36 42 81 99 95 97 95 97 80 96 71 56 52 47 47 44 66 64 62 54 43 47 57 64 66 63 61 57 42 28 22 18 12 10 9 8 9 12 10 8 8 12 10 7 15 12 7 10 19
42 50 89 96 98 97 97 88 93 100 88 74 56 59 61 58 62 66 61 51 44 50 60 65 67 65 57 48 39 29 25 20 14 11 10 10 12 16 16 16 10 9 10 24 24 12 27 50 55
39 40 78 91 95 99 96 88 100 96 91 86 74 61 62 61 61 58 62 57 57 59 58 56 53 51 48 42 38 33 30 18 14 13 12 12 19 14 17 17 12 14 26 32 31 39 51 50 28
21 28 28 52 74 94 97 99 97 98 97 94 86 74 64 66 65 64 56 56 59 56 52 48 45 42 40 36 31 27 25 24 31 14 13 13 12 12 12 13 15 17 34 44 37 48 37 11 8
27 38 46 44 49 94 98 99 95 98 98 94 84 78 84 85 81 78 63 61 58 59 55 48 42 36 34 32 28 25 21 18 16 15 14 14 13 13 14 16 14 18 18 15 12 9 8 9 9
23 29 42 47 64 73 96 98 93 94 96 98 92 92 96 96 85 84 92 82 71 69 66 58 49 39 32 29 27 25 22 20 18 17 16 16 16 14 15 14 14 13 12 10 10 10 9 8 9
18 28 32 39 43 54 80 95 81 82 98 96 97 97 94 93 95 91 94 89 78 70 67 64 56 51 44 39 34 30 25 22 20 18 17 16 16 16 16 15 15 14 12 10 10 11 10 10 9
22 23 27 30 41 46 62 62 79 93 97 93 96 96 100 100 99 94 99 93 82 76 69 67 62 56 50 45 39 35 31 27 24 21 20 20 20 20 21 21 16 14 12 10 11 11 10 10 9
34 25 25 27 28 43 49 38 37 65 94 84 94 97 96 86 90 90 89 95 89 82 76 70 66 62 56 51 44 39 34 29 25 23 25 26 26 30 33 18 15 14 12 11 12 14 11 9 14
48 35 31 45 46 40 58 49 28 42 50 72 97 96 96 95 72 62 64 66 71 72 72 72 72 68 61 55 51 50 47 39 33 32 34 36 41 44 32 23 20 12 12 13 16 14 11 11 17
49 38 38 39 30 20 28 27 18 34 40 45 54 93 94 87 78 60 63 69 69 65 63 63 64 67 69 68 66 61 55 48 44 45 51 57 54 44 37 21 13 16 19 18 15 12 12 16 13
48 38 38 33 27 24 26 18 14 27 45 59 64 87 85 67 67 64 66 61 58 63 67 64 59 56 57 63 67 67 64 61 57 54 51 40 34 25 14 13 21 28 23 18 14 13 15 12 13
48 42 39 34 31 27 20 16 22 32 38 48 61 77 88 69 71 70 62 63 67 63 64 66 64 61 58 56 57 58 59 57 54 44 28 15 13 14 17 28 40 40 30 19 14 14 12 14 14
48 43 40 38 33 23 18 29 40 44 34 35 50 63 82 80 75 72 77 67 69 72 68 66 63 56 52 52 58 61 58 43 29 22 20 17 17 22 33 40 47 39 19 14 14 13 15 17 16
41 39 41 55 44 34 37 42 46 50 52 37 44 57 60 66 65 69 74 76 75 80 87 79 74 65 56 50 49 55 54 49 42 31 21 20 28 36 44 48 29 14 16 14 14 16 18 18 18
39 41 40 44 50 55 44 35 46 66 76 67 56 62 59 62 67 68 72 74 78 90 91 91 84 76 65 52 46 44 40 32 22 21 30 39 44 48 27 15 16 17 14 15 18 19 19 21 24

GFSSGP_500_rhum_069.txt.gz
RH
96 93 88 39 36 27 27 32 98 97 96 90 85 82 75 65 59 51 40 41 39 26 19 16 12 10 12 8 6 8 12 15 16 15 14 13 10 8 6 4 2 2 1 1 1 2 1 2 2
90 97 96 56 36 30 25 29 70 90 92 87 81 75 72 64 57 51 42 36 37 25 17 12 9 9 8 8 10 13 16 17 16 14 12 10 8 5 3 3 2 2 1 1 2 2 2 2 3
63 100 95 80 38 31 24 26 40 71 98 89 82 72 69 63 60 50 46 44 35 22 15 10 8 8 8 10 15 18 19 18 16 14 11 8 5 3 3 3 2 2 2 2 2 2 2 2 2
55 99 95 93 52 31 27 24 30 59 92 97 89 80 71 68 60 60 52 51 35 22 13 8 8 10 12 16 18 20 21 19 16 14 9 6 4 3 3 2 2 2 2 2 2 2 2 2 2
50 98 96 92 74 38 30 24 25 38 74 88 98 95 85 70 61 60 62 53 34 19 13 10 10 14 18 22 23 22 21 20 17 13 8 5 4 4 3 2 2 2 2 2 2 2 2 2 4
47 97 88 91 90 56 35 29 23 24 46 72 93 97 95 84 61 55 60 45 31 18 11 14 16 18 21 25 26 24 22 20 17 13 8 5 4 4 4 3 2 2 2 2 2 2 2 3 4
48 85 96 92 97 82 52 32 28 24 24 50 64 86 95 88 74 56 50 43 27 14 10 12 17 20 24 27 27 26 23 20 15 10 7 5 4 4 4 3 3 3 2 2 2 3 5 5 6
63 79 91 87 87 97 93 45 34 31 24 23 44 53 50 59 60 50 47 38 24 12 10 12 15 18 22 26 28 26 24 20 13 8 6 5 5 4 4 4 4 4 4 4 5 5 6 6 5
82 76 96 84 80 96 95 85 44 36 32 23 21 23 32 34 34 37 32 27 15 12 12 12 15 18 22 26 28 28 26 22 14 8 6 5 5 5 4 4 4 4 4 5 6 7 6 3 3
47 71 87 100 98 97 96 93 71 44 37 29 22 20 16 20 31 29 29 17 12 12 13 13 17 19 22 29 30 29 28 23 16 10 6 6 6 6 5 5 6 6 6 6 5 4 3 3 5
35 36 74 100 100 96 96 93 91 58 42 36 28 21 21 17 18 38 26 12 12 10 13 15 18 21 26 31 34 33 32 27 20 13 8 6 6 6 6 8 7 5 4 5 6 6 7 10 13
30 48 58 97 97 97 98 91 95 69 50 40 31 25 26 20 20 28 40 19 16 17 15 17 20 24 37 40 40 38 34 30 24 16 10 8 7 7 7 7 6 6 8 10 11 12 9 10 11
29 65 65 94 92 99 98 96 94 86 57 47 37 29 28 27 42 40 38 37 33 29 20 18 21 35 47 43 44 41 36 31 26 19 13 9 8 7 7 7 8 9 9 11 14 13 7 12 11
24 45 73 75 98 99 97 98 99 89 65 50 43 34 31 30 31 46 56 55 51 43 30 30 32 41 46 45 47 48 40 31 26 20 15 12 10 9 8 9 11 10 9 9 11 8 11 17 13
26 41 68 100 97 99 98 96 79 93 75 59 48 39 34 32 28 37 68 79 73 64 38 36 38 44 50 54 58 56 44 36 28 22 18 15 13 11 9 11 13 14 15 10 9 10 22 24 19
67 49 67 84 94 96 98 82 100 92 86 73 56 46 39 35 36 34 66 84 91 70 48 37 44 48 55 66 64 60 56 46 35 27 23 19 15 12 11 15 16 14 13 12 12 18 30 34 34
66 48 31 62 83 90 96 90 100 99 97 84 74 58 46 40 42 37 49 78 77 69 63 49 46 58 64 65 64 60 51 43 36 32 28 23 17 14 13 13 12 12 12 15 16 16 23 20 20
50 36 33 34 63 82 98 100 98 95 95 96 81 85 64 51 52 52 49 75 81 77 70 56 44 46 56 59 56 51 47 42 38 35 32 26 27 16 15 13 13 13 13 15 13 13 14 16 12
39 38 23 31 44 98 97 97 92 96 100 98 89 78 81 73 64 63 60 56 71 82 74 65 62 60 58 55 51 47 44 40 34 31 28 25 22 19 16 19 18 15 14 14 14 14 12 12 10
40 35 30 43 48 85 98 93 99 96 97 99 93 97 80 84 84 73 69 70 68 70 66 62 60 56 54 52 48 44 40 37 34 30 27 24 22 21 18 16 16 15 16 16 16 15 14 12 11
47 27 31 39 44 52 58 84 86 96 100 95 95 86 88 83 74 82 82 76 77 68 69 74 68 62 56 51 46 41 37 34 31 29 27 24 22 20 19 18 18 17 18 18 19 19 14 12 11
55 22 31 42 39 36 42 48 50 67 99 88 87 99 90 82 80 82 89 92 86 83 79 77 82 77 70 66 60 50 41 36 31 27 27 25 24 25 25 23 22 22 22 26 30 17 14 11 11
34 21 27 30 29 31 33 29 25 40 47 76 84 98 99 93 92 96 100 100 94 92 90 88 86 82 77 69 64 61 56 52 48 43 40 36 34 33 30 27 28 29 34 43 32 20 14 12 16
23 21 22 22 19 17 22 24 20 32 46 69 86 96 94 97 84 99 98 96 98 96 95 90 88 82 77 71 68 65 61 59 56 52 47 42 38 37 36 34 36 45 51 41 33 17 14 20 20
24 21 20 18 15 12 18 20 19 39 34 46 57 60 71 95 98 93 88 94 95 97 96 88 84 83 81 77 72 69 68 68 64 58 54 58 58 50 45 46 53 57 53 34 16 16 33 38 33
29 29 24 21 16 17 32 22 25 51 60 62 54 54 51 56 88 97 95 100 85 79 71 68 73 77 76 72 69 66 65 64 64 64 64 64 59 56 55 54 43 28 16 14 23 39 44 38 22
60 51 40 28 24 26 24 22 25 27 24 28 36 36 40 57 62 66 91 95 97 75 64 61 64 64 64 64 65 64 63 63 64 66 66 65 63 58 52 33 16 15 16 27 34 40 42 20 15
62 55 47 38 35 31 26 25 40 33 28 21 22 30 40 51 73 100 89 85 88 78 64 57 57 58 61 62 61 60 58 57 58 58 58 60 57 39 25 23 21 21 23 29 39 39 18 16 14
60 53 48 44 35 29 25 38 50 58 57 41 30 30 35 43 52 75 96 98 83 68 65 59 58 62 65 66 66 62 58 56 54 53 57 58 48 42 36 25 26 35 37 43 26 15 17 14 16
62 54 48 42 40 40 39 39 57 64 63 50 43 41 42 51 57 54 78 96 87 83 79 74 63 60 62 71 75 72 65 55 50 49 50 51 48 34 29 29 37 41 38 17 18 16 14 17 22

GFSSGP_500_rhum_072.txt.gz
RH
20 38 85 96 57 44 39 41 53 96 96 90 92 98 94 86 84 78 66 52 49 46 33 23 25 14 14 15 7 6 7 11 14 14 13 12 10 7 5 3 2 2 1 1 1 2 2 2 2
21 19 87 84 84 39 36 35 44 96 92 91 89 96 93 82 76 71 66 50 42 40 30 18 16 12 9 12 8 8 11 15 16 14 13 11 8 5 3 3 2 2 2 1 1 2 2 2 2
21 18 70 92 95 42 37 34 40 60 96 91 94 90 88 80 74 65 62 55 45 39 27 17 12 9 8 8 9 10 14 17 17 15 12 9 5 4 3 3 2 2 2 1 2 2 2 2 2
14 25 31 94 89 64 39 35 37 45 90 91 87 87 82 81 76 66 61 60 53 40 24 15 10 8 7 8 12 13 18 19 18 15 12 7 5 4 3 3 2 2 2 2 2 2 2 2 2
11 18 30 54 87 84 52 35 37 50 54 97 90 86 79 80 75 71 60 61 58 44 27 15 10 9 10 13 17 19 20 20 18 16 11 6 5 4 4 3 2 2 2 2 2 2 2 2 3
11 14 24 28 78 93 54 38 32 48 63 82 99 94 85 80 78 75 66 60 62 47 30 15 11 12 15 19 22 23 22 20 19 16 11 6 4 4 4 4 3 3 2 2 2 3 3 4 5
22 15 24 23 76 97 76 41 33 34 70 76 86 96 92 91 89 80 71 58 60 50 34 13 14 16 19 23 26 26 25 22 19 15 10 7 5 4 4 4 4 4 3 3 4 4 4 6 6
34 24 30 23 78 98 94 67 41 30 39 83 79 76 97 93 98 92 79 66 52 51 35 14 12 17 20 24 28 28 26 23 19 14 9 7 6 5 5 4 4 4 4 4 5 6 6 5 3
84 50 59 24 79 89 96 92 59 35 28 43 77 67 72 97 99 94 82 68 53 44 34 14 13 15 18 23 28 29 28 26 20 13 9 6 6 5 5 5 5 6 6 6 6 5 5 5 6
94 48 43 30 83 93 97 97 88 48 31 28 37 57 50 60 90 99 95 71 54 49 31 15 12 14 16 20 26 30 31 29 22 17 12 8 6 6 6 6 7 7 6 5 5 6 7 8 9
78 47 57 46 94 96 95 97 95 69 41 31 28 29 38 34 47 54 56 53 52 38 23 12 12 13 16 20 25 32 33 32 27 22 18 12 8 6 6 6 7 7 6 6 8 9 10 12 8
86 100 88 49 82 96 98 98 97 95 57 41 35 28 25 26 29 39 47 51 37 25 18 12 12 13 17 20 27 33 36 35 32 28 22 17 12 9 8 7 7 7 8 9 10 10 11 13 7
64 70 76 68 70 99 97 96 96 94 84 57 46 37 26 41 29 26 25 32 47 36 12 12 13 14 18 21 28 37 40 40 35 31 26 20 15 11 10 9 8 8 11 11 11 11 9 8 10
82 59 68 73 86 93 97 97 97 91 88 72 57 47 34 38 40 35 35 35 42 46 20 13 14 15 18 22 35 39 40 42 40 33 28 23 19 18 15 11 10 10 12 14 15 14 10 10 14
59 55 57 65 70 88 98 98 88 97 90 83 71 59 43 32 39 48 41 37 41 54 62 32 23 17 18 23 39 44 42 45 49 38 30 28 25 24 19 14 13 14 15 16 14 14 12 14 18
76 58 64 75 69 92 96 84 96 96 100 88 75 63 53 40 34 36 36 44 47 51 58 56 44 28 25 29 35 42 50 58 53 50 46 38 31 27 23 19 17 16 15 15 13 13 14 17 16
91 62 62 86 84 83 91 94 98 96 92 97 85 69 55 48 41 37 36 34 46 66 71 80 78 47 37 39 45 51 62 64 61 57 47 40 34 31 27 22 20 20 16 14 14 14 14 14 13
76 50 54 66 66 72 86 92 98 95 90 94 95 88 77 55 47 43 40 40 39 62 87 95 95 92 53 39 44 48 58 64 64 56 48 44 38 35 30 30 24 20 18 18 18 16 15 15 15
98 71 58 45 55 92 98 90 97 98 96 99 86 77 84 84 80 50 46 42 40 52 73 87 81 83 77 62 45 36 46 56 60 51 46 43 38 33 28 24 22 22 19 18 18 16 16 16 17
90 58 68 54 47 58 89 86 96 97 88 99 91 82 81 85 89 89 62 48 49 48 71 86 87 80 73 70 54 45 51 55 52 49 46 42 38 35 32 28 24 22 20 19 18 18 19 19 21
84 58 53 50 45 45 51 77 93 100 99 91 94 97 95 83 84 96 87 66 62 60 64 71 79 82 80 72 65 61 58 54 51 49 46 42 40 37 35 31 27 24 22 20 20 21 22 25 30
90 50 49 47 38 32 35 40 71 96 99 89 83 89 100 98 100 100 96 96 94 89 86 76 77 80 77 70 66 61 58 55 53 51 48 45 42 40 37 33 29 28 27 26 25 27 29 34 47
79 66 40 39 31 28 32 25 51 83 95 91 100 90 99 97 99 98 98 96 94 95 94 93 88 86 85 77 77 78 70 63 66 64 58 50 45 41 38 37 36 34 32 32 33 34 38 52 52
98 70 36 26 27 24 24 25 30 45 51 53 80 95 97 89 88 98 95 88 90 93 92 95 95 89 91 90 86 84 83 83 77 74 68 61 54 52 52 52 48 43 42 42 42 44 53 55 34
94 76 46 21 21 18 14 14 11 23 30 36 41 63 44 86 90 93 77 85 84 79 91 98 96 95 92 88 82 79 84 86 79 73 66 64 63 63 62 57 52 54 56 54 52 54 33 16 15
87 73 34 19 18 16 14 12 15 21 30 31 29 35 39 48 56 80 94 93 88 87 98 96 97 98 94 93 85 84 83 80 78 75 72 69 68 66 61 59 60 62 61 61 51 28 15 16 20
76 54 28 21 19 18 14 16 25 40 54 61 50 32 50 47 50 57 70 82 94 97 98 95 92 92 94 88 88 89 87 83 79 75 69 66 66 65 64 65 65 62 58 48 26 18 19 26 28
56 44 33 25 21 21 19 22 29 28 28 27 32 40 40 47 62 59 55 43 53 82 98 88 82 84 82 74 70 70 70 71 66 66 65 64 61 58 57 56 56 57 40 29 25 26 28 34 40
58 51 45 42 40 35 27 30 33 30 27 25 26 26 23 21 33 52 55 51 61 73 76 89 96 90 78 71 69 68 71 70 69 66 64 62 60 58 56 57 60 52 47 32 30 30 37 42 22
75 64 58 52 47 43 37 36 35 43 51 43 36 29 26 25 22 21 27 42 50 65 100 96 96 100 92 86 73 67 66 66 67 68 65 63 60 56 53 51 48 35 34 33 33 43 42 22 17

GFSSGP_500_rhum_075.txt.gz
RH
15 24 68 66 91 91 56 71 78 92 81 80 97 95 95 95 96 89 74 72 64 65 60 42 32 27 16 17 12 8 6 7 10 13 13 12 10 8 5 3 2 2 2 1 1 1 2 2 2
18 16 42 74 67 92 68 61 58 72 89 80 94 99 97 94 90 87 85 74 56 53 51 39 24 24 14 12 13 8 7 9 13 14 13 11 9 6 4 3 3 2 2 1 1 2 2 2 2
15 15 30 68 71 68 82 71 49 72 81 97 90 96 87 87 91 86 81 73 60 45 40 36 20 16 12 8 10 9 9 11 14 15 14 11 7 4 3 3 2 2 2 1 2 1 2 2 2
13 19 28 44 62 62 98 76 56 65 59 96 97 95 97 97 94 82 80 71 64 47 39 31 20 13 10 7 8 10 11 15 15 15 14 10 6 4 4 3 3 2 2 2 2 2 2 2 2
10 20 30 26 44 80 90 63 58 60 63 85 94 98 97 96 97 85 78 70 64 54 42 30 18 11 8 8 9 14 14 17 17 16 14 11 6 4 4 4 3 3 2 2 2 2 3 4 4
20 16 26 24 29 85 64 78 45 65 55 71 96 98 97 100 98 88 80 72 68 59 48 33 20 11 8 8 13 18 21 20 19 17 15 10 6 4 4 4 4 4 3 3 3 4 4 4 5
18 20 20 24 41 43 28 78 56 55 59 70 74 93 98 97 97 92 81 76 66 67 57 44 23 13 9 12 16 21 24 23 21 18 15 10 6 5 5 4 4 4 4 4 4 4 5 5 5
19 38 19 30 95 46 28 62 94 44 52 63 72 89 93 95 97 84 78 73 68 66 64 54 32 13 12 15 20 25 27 25 22 19 15 11 8 6 5 5 5 5 5 6 6 5 5 5 6
69 41 59 42 89 43 34 48 95 57 42 52 74 58 95 96 95 100 90 84 72 66 55 60 40 15 13 17 22 28 29 28 25 21 16 12 10 8 6 6 6 6 7 6 5 6 7 8 10
81 66 64 32 16 26 43 54 86 93 45 46 65 73 76 88 95 97 100 93 84 73 58 57 49 26 12 16 22 28 30 31 28 23 17 13 10 8 7 6 6 7 7 6 7 8 10 10 11
53 45 57 88 70 32 38 30 62 96 82 48 44 54 70 73 96 96 97 98 96 84 64 49 47 23 14 12 18 24 30 32 31 27 22 17 13 9 8 7 7 7 7 7 9 10 10 11 11
69 93 83 68 56 90 28 39 62 98 84 55 38 36 52 54 64 92 97 97 94 84 71 40 41 25 17 13 16 21 28 32 33 32 29 25 19 13 11 9 8 8 8 9 12 12 13 13 11
93 96 96 95 98 48 37 69 65 91 92 72 48 36 35 51 64 77 80 86 92 83 64 43 33 26 14 13 14 19 28 34 39 36 33 30 25 20 16 14 12 10 9 11 13 15 17 16 13
88 95 96 98 92 66 38 54 98 90 95 96 68 51 35 34 47 64 62 71 71 63 56 47 37 27 13 12 14 19 24 36 41 41 39 34 30 25 22 20 17 13 12 13 14 17 16 15 14
97 97 93 90 92 94 74 65 79 88 94 98 88 65 50 33 48 44 65 50 42 43 39 49 52 24 17 13 14 17 21 35 41 43 46 44 34 29 28 24 21 18 16 15 15 15 15 14 14
94 97 100 96 98 98 76 56 77 100 96 98 98 75 58 46 45 58 49 52 40 31 32 43 65 47 16 14 15 16 19 32 42 41 44 48 43 44 36 30 27 23 19 17 17 16 14 14 15
99 97 96 99 100 89 72 50 88 97 92 93 94 97 75 48 62 46 48 55 50 38 38 41 72 78 50 30 21 18 19 31 38 40 46 51 54 49 42 36 34 32 24 26 19 17 16 20 19
86 90 92 94 93 85 75 78 95 92 92 98 87 96 96 84 48 46 49 57 48 46 42 46 53 58 64 61 40 28 26 28 35 42 48 55 58 53 46 42 37 33 28 24 22 20 20 18 18
100 100 98 100 78 74 86 97 96 97 97 97 92 96 96 94 90 59 50 43 42 40 37 37 53 66 76 86 74 45 40 38 39 41 54 61 62 56 48 43 39 35 31 29 26 25 25 22 20
97 100 96 97 68 86 97 96 96 91 87 97 97 87 88 94 90 87 73 47 44 42 38 36 40 62 86 96 95 96 90 71 52 47 48 57 60 53 48 44 41 39 37 33 36 30 28 26 24
89 86 93 98 65 79 81 74 71 83 94 99 99 93 84 91 97 94 89 86 70 53 48 43 38 52 72 84 85 81 83 81 84 68 58 60 55 51 49 46 43 40 38 36 33 30 34 35 30
99 87 89 95 92 69 69 53 74 76 90 92 94 87 85 100 100 95 96 95 96 88 64 54 46 39 49 77 86 96 94 87 75 65 60 55 52 51 50 49 47 46 46 40 37 39 38 38 35
100 85 72 98 99 78 55 49 52 42 52 88 92 97 79 88 84 96 82 98 96 97 93 80 71 62 64 62 60 74 73 74 73 66 60 60 59 56 58 61 59 55 50 42 43 45 42 39 49
95 96 97 100 98 79 58 37 28 20 38 59 92 88 99 96 100 97 88 94 90 93 98 95 86 84 83 85 84 82 78 71 71 69 64 62 62 63 68 74 65 58 49 51 53 52 46 51 59
98 99 92 67 77 60 49 42 25 21 29 47 80 89 99 99 87 89 99 84 90 93 97 97 97 96 96 92 91 95 93 86 85 83 77 73 71 75 76 75 70 60 61 62 60 58 59 64 64
100 100 83 66 60 31 23 23 23 27 23 29 36 39 69 85 90 91 81 85 97 98 100 96 95 94 97 97 91 94 93 96 93 90 83 78 80 82 78 73 68 69 69 67 65 68 66 62 57
100 88 75 66 47 25 23 23 23 17 16 18 18 20 28 35 45 73 72 84 86 79 81 83 88 95 92 92 93 98 96 95 96 92 87 85 84 80 79 78 76 73 70 68 63 58 57 55 30
96 96 76 70 48 31 22 24 20 20 23 34 33 35 44 34 20 28 33 36 36 45 50 90 94 99 97 98 100 95 94 94 96 96 95 95 91 84 79 73 67 66 62 60 58 59 56 44 38
85 76 77 60 37 26 39 44 21 22 25 27 27 26 24 30 47 42 30 38 46 50 49 58 71 87 86 98 100 98 93 91 92 87 79 75 73 70 70 69 72 68 64 60 56 58 55 44 38
72 71 58 47 39 34 31 30 26 29 30 34 29 25 26 24 23 22 24 25 39 58 61 62 71 84 88 85 98 95 94 87 84 78 76 77 78 75 74 74 74 71 65 58 53 44 37 33 28

GFSSGP_500_rhum_078.txt.gz
RH
21 62 89 94 92 81 77 92 95 96 87 97 91 98 75 98 77 82 69 66 65 67 63 54 43 37 28 20 17 11 8 5 6 8 11 11 11 9 6 4 3 2 2 1 1 2 2 2 2
18 43 87 91 85 74 81 91 89 98 91 96 97 92 83 94 76 74 70 75 72 68 65 63 50 34 29 16 16 11 8 7 7 9 10 11 10 8 5 3 3 2 2 1 1 2 2 2 2
18 42 85 90 84 70 76 96 76 96 86 98 95 96 92 80 93 87 80 75 71 65 56 55 45 27 24 18 11 13 9 9 10 11 12 12 10 7 4 3 3 2 2 2 2 2 2 2 2
21 56 63 71 60 51 64 99 100 81 90 93 95 88 94 96 96 91 81 78 75 68 52 42 39 28 17 16 9 9 10 11 12 12 13 12 10 6 4 3 3 2 2 2 2 2 2 3 4
30 36 51 37 25 57 85 85 76 81 94 93 96 83 82 97 96 94 84 82 77 72 57 42 34 29 16 12 8 7 10 13 14 15 14 13 10 6 4 4 3 3 3 3 3 3 4 4 4
30 44 34 23 20 54 94 68 76 72 92 81 93 98 99 100 98 96 93 85 78 73 63 49 35 24 16 10 8 7 10 15 16 16 15 14 10 6 4 4 4 4 4 4 4 4 5 5 5
22 32 41 20 26 94 79 52 64 66 95 78 79 94 96 93 97 93 91 82 78 73 64 55 43 28 17 9 8 9 13 19 18 19 17 14 9 6 5 5 5 4 4 5 6 5 5 5 6
24 46 29 30 59 100 73 37 38 40 88 73 81 89 96 95 98 98 89 83 83 75 68 61 50 39 21 10 9 13 17 21 22 20 18 15 10 7 6 5 5 5 6 7 6 5 6 8 10
39 62 31 36 77 91 63 37 55 57 69 82 90 84 94 95 96 98 98 91 88 80 72 66 62 50 33 13 10 16 22 25 24 22 20 17 13 10 7 6 6 6 7 7 7 8 11 13 12
50 88 46 48 43 81 75 47 44 56 70 95 72 90 96 94 96 90 90 90 99 87 77 72 64 62 44 20 11 17 23 29 28 26 24 19 15 12 9 7 7 7 7 7 8 10 13 15 16
99 79 66 95 78 70 92 54 36 55 70 64 76 68 88 88 94 96 95 83 98 95 81 82 69 59 56 32 13 16 23 29 30 30 28 23 18 15 11 9 8 7 7 7 8 12 15 17 17
97 56 72 94 78 66 71 72 56 39 34 46 82 57 79 83 85 95 96 97 85 82 87 86 75 58 56 39 23 13 19 26 31 32 31 29 25 23 19 14 11 9 8 8 9 12 14 17 18
98 99 74 82 97 78 92 76 77 39 35 36 55 73 54 84 58 64 84 97 97 86 92 87 71 64 52 46 24 15 14 20 28 32 34 34 32 29 26 21 17 16 14 12 12 13 15 18 18
97 99 99 78 74 95 74 78 57 41 32 27 40 93 60 52 86 65 71 96 96 96 96 96 90 69 51 41 32 21 14 17 24 32 36 38 37 34 31 25 22 21 21 18 17 15 16 17 17
100 87 95 97 95 78 99 91 58 39 31 35 64 59 94 61 61 84 84 96 95 95 91 92 86 56 50 36 24 15 14 15 20 27 35 40 40 41 39 30 29 28 26 24 20 19 18 19 19
99 98 94 95 99 71 96 87 86 91 37 44 54 79 86 91 65 86 94 82 93 93 88 76 67 52 49 48 42 16 13 14 18 21 31 39 40 44 49 43 45 38 32 30 29 24 27 22 21
97 94 90 99 100 85 89 94 100 85 47 52 56 81 82 96 85 53 83 88 53 58 63 69 58 49 40 53 50 23 16 15 15 17 21 35 40 44 52 56 52 46 42 38 35 30 27 27 28
79 90 90 99 95 93 98 98 96 81 41 41 92 99 72 92 92 78 45 70 90 73 66 60 54 46 34 52 68 45 18 16 15 16 18 30 37 49 61 64 62 55 48 43 38 34 34 33 34
88 85 90 96 92 96 100 100 98 85 68 74 87 77 76 84 93 87 78 57 46 77 68 66 59 73 45 42 67 66 54 48 38 28 26 32 42 46 59 70 66 59 50 46 43 43 41 41 40
96 100 97 100 98 90 97 95 96 72 58 77 94 79 85 67 98 93 90 91 60 69 50 70 85 57 62 56 52 61 77 79 67 54 42 46 50 56 56 50 61 56 52 49 46 45 43 45 41
100 92 86 87 77 95 99 97 90 81 75 62 89 75 65 76 83 78 94 96 84 67 56 53 50 67 54 64 46 57 66 80 94 95 96 86 80 77 63 58 57 52 49 51 50 51 54 53 46
99 90 90 92 95 100 100 91 96 99 74 68 80 94 90 88 89 85 74 95 96 95 81 59 50 46 55 50 44 50 68 82 92 89 89 93 85 76 70 61 54 50 51 54 60 62 64 59 50
100 85 95 92 100 97 94 79 88 75 53 54 64 76 86 95 94 89 76 87 96 92 96 96 82 60 55 48 46 42 50 75 97 96 93 89 83 78 70 63 59 56 56 59 62 67 67 61 58
100 91 93 92 100 92 79 69 72 52 44 40 40 60 90 82 95 92 78 74 98 96 95 96 97 96 85 58 53 54 49 51 64 72 71 79 71 65 64 63 60 57 57 61 68 71 70 63 65
96 97 87 93 97 82 85 67 59 52 37 29 26 34 65 92 93 84 80 76 80 98 97 96 96 97 98 96 89 71 66 64 59 59 61 60 61 70 75 70 68 66 70 75 78 75 68 67 70
88 99 100 84 64 63 65 67 57 48 38 28 26 22 33 52 67 86 81 75 68 84 95 97 95 96 96 97 97 94 94 92 90 90 91 88 82 79 82 83 80 77 77 79 77 75 74 76 69
96 90 81 78 69 61 58 61 53 46 40 27 24 20 29 37 48 65 90 74 87 86 96 100 98 100 98 97 96 97 97 95 96 98 96 95 91 88 88 90 84 82 82 81 82 82 74 66 63
99 95 96 82 81 66 67 50 30 26 21 18 21 20 19 17 21 29 44 56 85 81 64 69 93 94 92 91 89 96 96 96 97 90 95 97 94 94 94 94 93 90 93 91 82 73 71 68 65
100 99 91 98 95 99 84 55 24 23 23 26 32 33 34 37 34 29 31 23 30 31 46 46 52 69 72 60 72 96 99 97 96 94 95 96 92 93 97 100 94 80 74 76 75 76 72 72 64
100 100 100 100 100 96 72 61 30 31 32 31 27 32 28 25 23 20 18 23 29 30 35 36 32 39 56 69 52 91 88 86 91 93 96 98 97 98 95 88 78 75 78 77 71 69 72 73 73

GFSSGP_500_rhum_081.txt.gz
RH
80 100 98 96 91 94 77 77 91 87 95 100 88 78 81 94 58 69 71 67 59 56 54 54 54 52 40 28 23 16 10 6 6 7 8 10 10 10 8 5 3 3 2 2 1 2 2 2 2
64 94 100 97 82 77 92 84 81 97 83 98 93 91 86 82 74 73 68 66 63 59 59 56 54 46 38 29 20 18 10 7 7 9 10 11 11 9 7 4 3 2 2 2 1 1 2 2 2
39 62 97 96 90 58 68 93 84 96 97 97 90 83 85 74 60 82 65 67 64 61 62 64 61 55 37 30 18 15 12 9 9 10 11 12 11 8 6 4 3 2 2 2 2 2 2 2 3
26 45 72 82 66 54 64 96 94 88 96 87 92 98 78 76 85 82 71 69 67 65 65 61 58 52 34 24 20 10 12 11 10 10 11 13 11 8 6 4 3 3 2 2 2 3 3 4 4
22 55 69 48 47 57 87 95 74 71 92 96 97 97 87 100 96 86 85 75 78 73 70 60 46 42 34 18 17 11 9 11 12 12 12 12 12 9 6 4 4 3 3 3 3 4 4 4 5
26 59 69 39 29 82 98 73 78 86 84 89 95 95 96 92 97 98 91 77 79 80 72 64 48 36 31 20 12 9 8 9 13 14 14 14 13 8 5 4 4 4 4 4 4 5 5 5 7
41 56 68 40 38 93 92 70 66 98 90 79 92 95 88 97 96 96 93 77 81 84 77 71 60 40 30 22 15 9 8 9 13 16 16 16 13 8 5 5 5 5 4 5 6 6 6 7 10
43 70 69 47 54 99 87 73 63 62 75 78 80 90 91 97 96 95 95 92 82 83 78 70 62 50 36 25 14 9 8 11 14 18 19 18 14 9 7 6 5 6 6 7 7 6 9 13 14
52 98 64 56 53 96 80 65 58 56 57 65 80 89 84 94 96 96 94 98 94 84 78 72 63 54 46 32 18 10 8 12 19 20 20 19 16 11 9 7 6 6 6 7 7 8 12 15 18
91 99 66 64 62 56 59 70 65 50 51 51 74 78 91 74 94 96 94 94 96 91 84 74 67 62 54 45 30 13 9 14 22 23 23 22 19 16 13 10 8 7 7 8 8 10 15 19 21
96 97 78 72 99 62 74 88 78 56 46 44 52 64 78 90 84 96 94 96 97 96 92 83 77 70 62 53 43 26 11 15 21 26 26 25 23 19 16 14 11 10 9 9 10 10 15 18 21
94 94 96 77 70 84 56 69 74 44 43 49 56 56 64 66 88 96 96 97 96 96 94 92 83 76 67 57 50 41 24 14 21 26 29 29 28 24 21 18 13 12 10 12 12 12 13 17 20
96 97 98 88 78 86 57 67 83 42 32 36 47 53 56 78 82 94 96 95 96 96 79 85 95 86 80 64 57 50 35 16 16 24 28 30 32 31 30 27 22 18 16 16 15 15 14 15 17
88 95 96 99 96 62 66 74 93 72 38 29 44 55 54 73 86 88 96 96 98 98 90 83 80 83 83 78 65 53 44 26 14 17 24 29 32 34 35 34 30 25 22 22 22 21 20 19 19
97 100 92 99 88 96 95 69 57 86 58 33 31 40 42 48 62 83 90 94 93 96 97 93 96 81 86 83 70 48 43 35 25 16 18 25 31 36 39 40 40 33 30 32 30 30 29 28 28
100 96 99 98 98 93 96 88 90 88 71 48 34 32 34 42 43 65 81 84 95 94 96 96 98 99 96 91 64 50 36 27 19 18 17 21 26 34 37 39 42 45 46 47 42 40 39 36 33
95 99 98 98 98 84 97 98 98 97 73 64 41 31 32 34 43 43 72 81 92 95 95 96 96 96 92 96 71 66 48 38 23 15 15 18 21 28 37 41 44 56 60 60 53 48 44 41 39
96 95 97 97 95 97 97 92 99 87 74 60 54 30 28 32 32 43 54 74 85 91 96 91 95 96 93 85 80 64 60 61 29 20 16 17 19 21 34 43 49 64 68 67 64 54 49 46 46
96 100 100 100 98 83 87 100 90 98 76 51 65 41 27 30 35 36 66 65 88 96 98 96 91 87 90 86 81 51 59 73 52 31 28 26 27 25 35 44 53 56 65 60 59 56 51 49 47
97 97 99 100 98 94 93 84 98 98 79 77 78 75 45 33 39 56 74 75 73 94 90 95 95 93 96 86 93 81 65 69 76 66 69 66 57 47 41 51 50 49 44 41 47 52 49 46 48
84 85 90 92 96 99 99 100 93 88 82 95 87 65 38 38 45 55 63 87 70 90 99 81 97 95 96 97 93 95 88 63 66 86 98 96 87 96 89 73 67 56 58 57 53 50 44 44 55
86 100 100 94 93 98 98 96 98 95 95 83 80 61 40 40 56 68 71 82 56 95 95 98 88 90 93 85 68 97 95 97 86 77 90 93 94 93 90 85 75 70 66 69 60 53 49 49 54
100 80 89 97 97 98 96 96 95 76 75 69 59 54 51 54 49 39 33 44 75 75 82 92 95 96 98 96 80 72 92 93 80 57 71 86 95 95 94 86 81 76 74 68 61 54 49 49 51
85 80 74 90 96 94 84 83 100 75 92 69 61 57 50 55 62 61 57 61 68 80 84 78 89 96 98 98 92 69 68 57 50 42 40 51 73 90 93 90 79 70 59 52 49 48 45 48 55
80 89 85 100 100 98 78 74 95 71 73 68 61 55 53 47 47 46 50 65 62 75 86 95 97 97 96 94 96 99 86 62 49 48 49 52 53 61 72 61 58 64 65 61 58 59 64 69 71
73 98 95 99 94 80 76 64 81 66 59 58 52 41 33 32 33 40 49 66 75 73 78 84 90 87 92 99 99 100 99 99 99 92 70 62 64 68 78 84 80 75 66 61 64 69 71 76 80
88 87 74 78 82 83 82 72 78 67 61 54 47 39 29 21 18 17 18 35 66 72 78 91 95 92 88 92 98 97 97 97 97 96 95 96 95 98 94 94 94 91 89 84 85 84 83 85 87
97 90 88 88 89 83 75 69 69 70 68 61 53 44 31 27 22 19 15 20 40 50 69 75 80 92 90 97 99 95 98 99 92 94 100 99 97 98 90 92 79 84 88 86 84 83 85 87 78
99 93 96 100 100 91 74 63 64 43 36 32 32 26 22 20 17 16 14 12 18 29 50 54 66 84 73 71 74 90 98 94 93 95 98 97 98 93 96 91 90 91 88 87 86 90 90 75 67
83 98 99 100 100 89 74 65 57 38 26 23 22 23 24 26 29 30 26 21 22 32 35 32 33 40 53 68 60 75 91 94 97 98 97 97 94 96 92 94 90 85 77 86 90 95 86 75 72

GFSSGP_500_rhum_084.txt.gz
RH
54 100 96 92 89 95 80 82 97 94 96 83 93 84 79 68 64 62 64 64 57 52 52 53 54 52 51 43 30 22 14 9 5 6 8 10 10 10 8 6 4 3 2 2 1 1 2 2 2
50 95 99 96 87 76 84 80 95 91 95 99 98 80 79 66 67 63 71 62 60 59 53 50 51 52 51 44 30 21 16 10 7 7 8 10 11 10 8 5 4 3 2 2 1 1 2 2 2
35 71 97 98 87 51 71 92 96 95 93 97 89 87 92 68 69 64 58 64 61 64 57 53 53 52 49 41 30 19 17 10 8 8 9 11 11 9 7 4 3 3 2 2 2 2 2 3 4
26 51 84 96 79 44 60 97 96 97 87 91 96 94 74 73 74 68 57 57 61 64 61 56 57 55 54 42 32 18 15 13 10 10 11 12 11 10 7 5 4 3 2 2 2 3 3 4 4
55 43 87 82 69 58 61 92 96 90 94 92 96 94 96 91 74 74 63 62 66 68 68 65 61 60 57 42 24 20 10 12 12 12 12 13 12 11 8 5 4 3 3 3 3 4 4 5 5
95 36 83 63 56 63 74 90 86 96 85 91 94 95 96 94 88 62 74 73 73 74 76 72 61 55 51 40 20 16 11 9 11 12 14 14 13 12 8 5 4 4 4 4 4 5 5 6 8
95 43 54 49 52 91 81 73 86 81 83 82 96 95 98 78 84 91 78 88 83 75 76 75 67 49 39 35 27 14 11 9 10 12 14 14 14 12 8 5 4 5 4 4 6 6 6 8 11
97 69 37 58 53 73 99 59 60 76 92 82 93 86 87 96 97 94 95 98 98 86 77 74 69 54 40 32 21 16 10 9 10 13 16 17 16 13 8 6 5 5 6 7 7 6 8 13 16
97 83 51 58 65 71 100 86 55 67 71 71 88 95 98 96 95 98 96 96 94 91 76 74 73 66 52 38 27 20 10 9 11 14 19 20 18 14 9 7 6 6 6 7 7 8 10 16 20
99 87 93 61 85 96 87 100 68 58 52 59 85 88 90 95 96 93 96 96 93 90 84 80 76 67 60 47 34 22 16 11 10 14 20 22 20 18 13 10 8 7 7 7 8 9 12 19 22
100 80 83 68 97 97 80 90 77 50 62 51 52 74 83 90 98 95 96 96 94 94 91 93 82 72 63 54 45 33 22 12 11 14 20 24 24 22 19 16 13 9 9 9 10 11 11 15 19
94 91 74 72 80 96 84 89 84 52 55 66 52 58 74 79 94 95 97 95 97 96 96 96 98 82 71 63 56 49 40 20 13 15 19 24 27 27 24 21 19 15 13 11 11 12 13 14 16
84 94 88 98 85 99 85 81 72 69 58 62 55 44 76 76 78 74 88 97 96 96 94 93 96 99 82 72 65 59 52 41 25 15 19 25 27 29 30 28 27 24 20 16 15 16 16 17 18
89 92 87 99 85 98 99 84 63 54 42 58 55 48 52 78 89 81 79 86 95 96 96 95 96 97 93 84 72 64 58 49 40 22 15 20 26 30 33 34 33 32 30 27 23 24 26 26 25
89 99 96 97 92 98 98 92 74 61 39 42 50 49 45 67 71 68 81 87 86 90 93 96 96 96 89 81 78 73 61 54 48 38 20 14 19 26 32 36 38 40 41 36 31 35 35 34 37
94 100 100 98 98 88 88 99 91 59 40 31 43 43 42 43 53 70 70 94 97 96 95 96 97 96 96 88 80 80 69 62 51 48 40 23 15 19 27 35 40 44 47 50 46 51 49 46 44
97 100 96 96 97 98 95 94 87 64 50 40 33 37 32 30 40 48 62 90 94 95 95 91 97 95 97 96 96 94 84 68 55 53 48 25 19 17 22 31 39 46 47 55 60 64 64 61 52
90 96 97 97 98 93 98 98 68 70 60 68 68 48 38 32 30 30 40 54 64 85 90 90 95 96 96 97 96 98 97 68 59 51 47 31 22 17 20 23 30 47 52 55 67 71 71 66 59
93 84 94 100 98 98 99 98 98 98 76 65 43 40 51 46 37 32 31 30 53 51 81 96 93 94 96 96 96 96 96 92 72 59 62 52 27 22 21 20 22 30 38 45 50 54 56 54 53
98 94 98 100 98 97 98 99 100 99 98 99 76 56 45 43 45 39 32 31 30 30 36 76 92 94 94 96 96 94 93 95 92 99 93 94 87 60 43 32 32 36 38 40 41 43 42 41 44
80 90 92 99 100 99 100 99 94 92 96 87 72 58 45 40 40 38 32 28 31 31 31 31 81 91 94 94 96 95 95 95 89 82 90 95 96 94 92 84 79 74 51 39 48 45 50 60 64
97 100 100 100 100 99 98 96 92 85 98 92 79 62 44 42 35 42 39 31 35 34 32 54 87 85 95 87 84 93 89 92 96 96 91 96 98 97 94 96 95 87 80 74 67 52 50 66 69
100 100 99 100 100 98 97 99 93 91 84 89 72 53 39 35 28 24 44 39 37 38 57 81 92 85 91 98 96 82 97 86 84 93 95 96 92 87 78 78 77 75 80 81 78 76 73 69 67
94 93 90 94 97 90 97 98 84 77 99 78 62 54 58 54 43 33 28 38 50 62 44 40 73 75 81 75 92 95 96 87 91 96 96 93 92 90 75 61 55 59 72 77 75 69 58 47 40
100 96 92 98 96 97 93 80 73 99 94 85 75 64 51 46 42 38 37 27 44 49 53 56 57 63 72 83 82 81 97 93 95 95 94 90 73 71 74 68 67 60 45 50 46 46 54 57 59
90 91 81 84 93 91 85 73 62 66 70 66 69 62 63 53 42 37 37 35 38 48 50 57 61 78 84 81 81 86 93 96 96 95 96 93 89 74 69 82 89 78 70 62 57 59 61 62 63
72 53 75 80 99 100 91 84 65 63 69 72 68 71 64 49 46 34 27 26 28 36 50 66 68 70 74 81 80 81 99 99 97 98 95 100 99 96 97 97 97 97 95 89 85 87 82 74 69
66 73 100 98 100 97 93 85 73 72 76 75 69 62 57 49 43 35 27 22 22 21 28 42 67 58 60 72 87 100 98 97 96 95 97 98 97 97 97 98 98 93 97 96 83 82 77 73 72
91 83 82 77 75 70 73 80 74 67 60 52 48 40 40 35 38 35 29 23 21 18 16 16 23 49 60 63 77 84 96 98 98 98 99 99 98 100 98 95 95 93 94 96 84 75 78 82 75
78 81 85 86 86 80 83 78 78 70 57 58 56 52 48 49 45 42 34 28 23 18 18 17 16 20 48 69 76 68 65 72 69 81 97 97 97 99 95 98 90 88 88 80 80 80 73 63 69

GFSSGP_500_rhum_087.txt.gz
RH
22 60 93 100 89 81 77 76 100 95 95 96 93 80 74 72 63 56 48 45 47 45 50 46 46 50 48 48 42 31 19 11 7 5 6 6 8 9 8 7 6 4 3 2 1 1 1 2 2
29 48 100 100 91 73 64 77 95 97 86 93 92 99 76 69 64 62 59 53 49 45 44 51 44 48 47 50 43 33 20 13 8 6 5 7 8 9 8 7 5 3 2 2 2 1 1 2 2
28 37 100 95 90 61 41 73 86 94 98 96 90 100 72 64 63 64 59 59 56 53 48 50 49 47 45 47 45 33 22 16 10 8 7 8 9 10 9 7 5 4 2 2 2 2 2 3 4
33 33 100 100 87 42 40 63 100 84 90 95 93 99 83 68 72 64 64 61 59 54 51 50 50 50 48 46 44 32 21 17 11 10 9 10 11 10 9 7 5 4 3 2 2 2 3 4 4
61 47 100 98 74 54 45 64 97 77 97 99 96 98 92 82 68 71 74 61 59 56 53 53 56 55 52 50 43 33 21 15 13 12 12 12 12 11 10 8 5 4 3 3 3 3 4 5 5
92 82 100 96 68 57 59 69 94 75 97 96 96 95 100 99 71 70 71 61 58 64 61 62 64 62 59 58 47 31 22 11 12 13 13 13 13 12 11 8 5 4 4 4 4 4 5 6 8
87 100 77 88 60 69 80 81 80 84 96 92 98 96 96 98 98 83 68 70 72 69 69 72 72 67 62 58 45 26 16 14 10 11 13 14 15 14 12 8 6 4 4 4 4 6 6 7 10
63 83 82 85 49 54 91 96 79 90 95 92 95 96 93 92 97 95 91 93 91 84 83 83 76 62 55 50 40 27 16 12 11 11 14 16 17 16 12 9 7 5 5 5 6 6 7 10 14
52 73 91 68 57 47 97 100 92 93 94 93 91 96 100 97 96 96 96 100 99 99 89 87 80 69 57 41 31 23 15 11 11 12 13 16 18 17 15 10 7 6 6 6 7 7 8 11 16
47 65 54 77 65 52 99 99 98 91 85 94 91 95 94 82 97 96 96 94 97 91 99 93 80 68 55 40 28 19 14 12 12 14 17 18 21 21 17 11 8 7 6 6 7 8 8 12 18
39 47 88 100 77 49 96 99 95 79 70 77 84 94 95 97 96 96 96 96 100 98 96 95 90 75 63 47 34 26 17 13 12 14 18 19 22 24 21 17 12 10 8 8 8 8 9 10 13
43 45 96 100 91 55 64 85 86 74 53 53 77 94 97 97 96 97 96 98 98 96 97 94 93 96 71 59 48 37 23 18 16 15 15 19 24 26 25 24 20 18 15 12 12 11 11 12 13
32 42 94 98 100 77 60 75 72 63 56 54 80 86 90 95 94 95 96 98 95 96 96 96 96 90 87 76 67 54 45 34 22 16 15 16 21 26 28 29 27 25 24 22 20 17 17 19 19
34 42 98 100 98 90 64 81 72 64 42 53 73 76 86 91 91 80 94 94 95 97 95 96 97 96 91 95 90 79 68 58 46 34 24 16 16 21 28 31 31 31 32 32 29 26 24 25 28
82 70 100 100 97 87 78 85 84 73 71 46 55 75 95 93 86 80 94 93 95 96 96 97 97 96 95 91 89 89 89 77 63 49 38 27 16 16 21 28 32 35 37 38 38 36 32 35 38
99 90 99 97 96 98 89 95 82 77 82 65 48 49 62 92 85 90 91 84 94 83 89 95 96 95 96 96 95 82 82 81 72 62 52 43 29 17 16 21 30 36 40 42 46 51 48 47 51
100 89 98 99 93 95 86 90 88 72 71 65 58 52 47 80 92 95 97 96 96 96 89 94 95 97 96 96 96 97 92 84 78 84 58 53 47 38 21 18 24 32 40 46 48 48 54 54 59
93 70 90 100 98 98 97 81 89 69 67 57 60 50 40 36 50 92 96 97 95 93 96 92 90 96 95 96 95 96 97 96 94 82 78 56 52 51 31 22 20 24 34 44 50 51 49 55 60
92 76 100 99 98 100 100 93 99 98 80 59 49 54 44 32 36 38 52 85 85 94 94 95 95 94 96 95 95 95 97 96 96 87 76 65 51 48 43 25 20 21 24 26 33 42 42 43 42
97 97 100 99 100 98 98 100 98 96 87 69 58 55 47 42 42 40 34 30 69 56 71 78 86 84 95 94 93 96 96 96 96 97 96 96 96 77 56 40 25 22 24 24 28 28 29 30 32
100 100 92 96 99 98 99 96 97 93 73 79 69 48 44 48 54 46 37 36 37 36 50 75 64 56 83 78 90 93 91 96 95 96 97 96 96 97 96 96 92 73 56 48 45 49 39 42 51
89 90 94 98 99 100 98 100 96 98 96 84 84 66 48 49 50 48 44 40 35 42 40 35 42 65 64 74 65 96 90 91 93 93 81 86 92 96 96 96 96 97 96 93 91 90 88 82 81
80 100 80 93 94 99 99 96 94 85 97 97 99 78 57 51 48 46 44 42 40 42 43 30 34 61 72 72 59 87 95 93 90 96 97 91 94 95 96 96 94 95 94 95 94 94 88 81 79
100 98 80 92 94 96 98 97 90 88 93 98 99 92 88 71 56 48 42 34 36 46 43 36 37 39 50 75 90 96 96 96 96 76 87 88 92 97 97 96 97 94 95 94 94 92 88 55 54
100 100 98 99 100 96 91 97 88 68 70 89 85 78 72 58 52 43 37 36 65 50 41 39 38 43 38 35 50 98 93 95 94 95 97 92 96 94 90 93 94 93 83 80 73 59 60 54 47
94 81 94 96 91 94 90 93 86 76 72 72 81 84 75 54 46 36 32 53 58 54 43 41 40 34 40 36 42 54 64 87 60 93 96 95 97 97 96 94 88 89 88 87 89 90 94 82 75
98 61 77 80 99 87 81 87 87 67 92 98 100 86 69 53 51 46 38 36 44 48 44 36 38 45 39 40 42 41 44 48 67 84 95 87 89 97 88 85 84 81 94 96 97 95 89 82 78
77 92 83 74 94 96 73 65 64 68 68 74 88 66 66 60 59 61 55 47 40 35 32 34 41 43 41 33 25 24 42 46 45 63 80 92 99 98 96 90 92 85 96 89 76 78 78 77 74
68 68 77 98 91 86 90 78 85 86 72 58 66 62 54 50 62 59 49 42 36 30 28 25 23 20 21 21 22 26 27 33 39 44 64 84 90 94 99 98 97 97 94 86 79 80 81 77 75
88 89 97 96 100 85 88 76 91 96 72 63 72 69 65 59 51 48 48 42 34 29 24 21 19 19 18 17 15 16 18 37 60 62 61 73 93 92 99 98 97 95 93 87 85 93 96 85 76

GFSSGP_500_rhum_090.txt.gz
RH
5 34 42 44 71 74 43 67 75 93 96 98 81 74 76 68 59 51 52 47 41 39 36 42 47 50 49 44 43 41 30 17 9 6 7 6 6 8 8 8 7 6 4 3 2 1 1 2 2
6 35 47 51 82 68 33 28 88 94 99 98 98 68 69 67 67 64 55 48 44 39 38 39 45 53 55 44 42 42 33 21 12 6 6 6 6 7 8 8 7 6 4 3 2 2 1 2 2
6 32 60 53 78 84 33 22 52 96 92 94 96 74 67 68 69 65 60 51 48 45 43 44 46 51 57 49 41 41 37 25 16 9 8 7 8 8 9 8 6 5 4 3 2 2 2 2 3
8 33 59 66 73 72 40 30 56 92 96 98 98 93 80 80 73 65 66 58 52 52 49 45 46 49 52 54 46 44 39 26 18 12 9 9 10 9 9 8 7 6 4 3 2 2 3 3 4
12 19 50 65 74 62 56 43 57 77 96 94 95 97 96 88 79 72 71 64 58 53 54 51 49 50 51 52 48 46 38 26 21 14 11 11 11 11 10 9 8 7 4 3 3 3 4 4 5
18 18 47 68 57 60 70 64 69 67 94 93 93 96 96 97 81 76 79 62 59 59 58 56 57 52 52 54 51 45 37 26 18 16 14 12 12 12 11 10 9 7 5 4 4 4 4 5 6
28 22 32 76 80 80 77 87 86 69 72 85 98 95 96 96 97 83 86 69 60 66 66 64 66 62 60 59 54 49 39 27 16 13 13 13 13 13 12 12 9 6 5 4 4 4 6 6 8
45 32 27 69 82 65 99 100 92 86 67 85 95 85 96 97 99 96 89 76 69 75 78 78 74 73 70 65 60 51 40 21 18 12 12 12 14 14 14 13 10 7 6 5 5 6 6 7 11
55 49 26 53 85 60 98 100 100 97 88 81 77 78 96 98 98 91 97 88 88 82 84 92 84 82 75 68 62 53 40 22 16 13 12 14 15 17 17 15 11 7 6 5 6 7 7 8 11
69 55 29 32 84 100 96 100 99 100 93 83 88 95 94 97 98 96 96 97 100 100 100 96 93 84 73 60 58 50 36 24 15 13 13 16 18 20 19 17 14 9 7 6 6 7 7 8 12
79 58 40 40 94 91 92 98 98 93 91 71 72 91 93 96 97 96 96 96 96 96 93 94 88 83 68 50 43 30 27 20 15 14 14 17 21 24 23 21 16 12 8 7 7 7 8 8 10
99 69 44 37 95 94 100 98 94 100 83 69 71 93 96 95 96 96 96 96 96 91 97 100 95 88 79 62 39 30 21 18 16 15 16 18 22 23 25 25 21 17 13 11 9 9 9 9 10
100 74 43 36 93 95 82 86 98 74 90 85 83 91 97 95 97 95 92 97 96 95 93 98 97 96 89 66 54 32 25 23 18 16 16 16 20 24 27 29 28 26 22 20 19 17 15 14 16
94 62 37 33 85 97 94 88 90 66 91 94 93 87 92 95 95 96 96 96 97 96 96 96 97 97 93 95 57 63 42 26 21 20 19 17 17 19 23 27 30 32 32 30 30 29 27 25 24
88 71 37 44 90 95 97 81 79 74 87 97 96 99 93 91 86 91 90 90 94 94 98 97 96 96 96 93 93 78 55 42 39 45 32 27 23 20 18 20 26 32 34 36 36 37 36 34 31
90 84 56 53 87 98 100 78 81 82 89 86 90 96 92 89 99 95 88 96 94 98 97 96 97 97 96 96 96 91 73 72 69 57 54 48 42 36 29 19 17 23 30 36 41 42 42 44 45
93 80 72 60 100 97 98 88 94 83 89 78 89 99 98 82 86 87 83 86 91 97 95 97 96 96 94 96 96 96 96 95 94 76 66 63 62 54 40 30 22 17 23 30 39 44 46 44 42
76 81 73 67 99 99 98 86 87 90 77 85 74 91 97 97 97 96 96 95 92 97 94 94 94 96 95 97 97 96 96 97 89 93 92 82 73 64 52 46 36 26 20 23 31 38 43 45 46
93 77 84 95 99 99 98 99 86 84 71 82 82 75 78 91 91 95 96 98 97 95 96 97 96 94 92 94 96 96 96 96 97 97 95 92 90 76 64 54 51 43 31 22 22 29 34 37 40
88 73 99 100 100 100 98 97 93 89 75 65 73 82 73 70 71 86 90 91 89 84 98 97 96 92 93 94 95 96 97 95 94 96 97 96 96 94 92 92 65 51 40 24 22 23 27 25 22
83 77 76 100 98 99 99 99 99 92 83 67 57 78 71 69 62 55 62 77 73 93 94 96 89 94 97 92 93 96 97 95 95 86 97 95 96 96 94 96 96 96 93 74 42 28 29 28 27
90 84 90 94 100 99 97 99 98 96 98 95 88 73 84 76 68 61 46 41 51 44 62 93 86 91 88 76 95 96 95 95 94 87 87 96 96 95 95 96 97 96 97 97 96 93 94 75 74
95 74 83 79 91 97 94 90 99 98 96 98 88 87 92 89 78 71 56 57 46 43 42 44 61 73 84 85 94 94 96 96 97 98 96 96 96 97 97 97 97 97 97 97 97 96 98 97 95
88 93 78 80 91 96 99 96 90 100 96 90 97 98 99 93 79 78 66 61 52 48 43 40 41 43 44 69 77 58 85 90 95 96 97 96 97 97 96 97 96 97 97 97 97 96 96 95 89
71 100 92 88 98 93 94 97 84 75 95 92 99 98 88 86 74 81 79 61 52 47 46 36 32 51 49 42 45 66 52 42 67 89 94 96 97 97 96 96 96 96 97 96 96 96 96 91 79
100 100 99 90 80 76 92 100 99 77 82 94 100 100 100 100 89 79 72 62 52 48 40 30 33 41 44 41 38 41 57 59 43 35 44 72 96 96 97 96 95 97 96 96 97 96 89 81 74
96 100 92 100 98 100 94 92 84 84 84 81 96 95 95 94 79 71 59 58 51 44 42 34 38 43 40 38 21 20 19 26 29 30 32 43 50 64 76 94 95 91 92 96 96 96 86 81 80
91 80 93 96 95 89 91 97 92 84 95 100 99 89 83 77 64 60 56 62 60 57 52 39 32 32 32 23 22 26 31 35 34 20 20 41 40 43 46 60 74 88 97 98 96 96 84 81 78
87 92 85 91 93 80 93 90 90 94 72 70 96 98 86 78 64 59 56 56 57 54 51 46 43 41 33 28 24 23 26 24 18 17 16 22 28 34 54 71 82 87 96 91 94 95 91 93 91
82 71 72 64 68 85 91 81 80 72 69 56 50 51 61 73 64 62 57 52 50 58 50 48 39 31 29 26 25 23 20 19 18 17 16 18 28 38 51 63 84 97 99 100 97 98 99 97 90

GFSSGP_500_rhum_093.txt.gz
RH
3 3 3 4 12 13 14 19 35 58 82 97 96 78 64 57 52 38 41 54 50 47 42 35 32 38 42 45 43 39 36 26 15 7 7 6 6 6 6 7 6 6 5 4 3 2 1 1 2
4 4 4 4 10 6 8 23 30 59 71 94 96 97 73 66 54 49 47 60 58 50 44 37 33 35 42 50 45 43 39 32 20 10 6 6 8 7 7 7 7 6 6 4 3 2 2 2 2
6 5 5 8 20 4 13 29 35 55 83 84 96 95 83 67 60 56 51 65 62 54 45 40 33 35 46 52 50 46 41 36 25 15 22 10 6 7 8 7 7 6 6 4 3 2 2 2 3
8 8 7 8 11 29 34 31 43 36 74 81 91 98 94 81 73 61 60 65 66 56 48 42 43 41 44 51 51 49 42 38 29 18 12 9 7 8 8 8 8 7 6 5 3 2 2 3 4
11 11 10 10 12 31 47 42 46 40 41 52 94 96 96 100 84 66 63 62 72 58 53 47 47 51 45 48 51 51 46 40 29 20 14 11 9 10 10 9 9 8 7 6 4 3 3 4 4
14 15 12 11 14 34 47 51 56 58 42 48 86 94 97 98 96 91 79 71 75 64 54 54 50 50 51 50 50 50 46 42 31 23 16 13 11 11 11 10 10 9 7 5 4 4 4 4 5
17 19 17 15 14 48 35 64 55 79 59 49 64 90 95 95 94 98 91 70 71 67 62 57 54 54 52 53 53 50 47 43 35 24 18 15 13 12 12 12 11 10 8 6 5 4 4 5 6
19 25 22 20 17 21 45 67 74 86 66 55 61 72 93 96 91 95 91 75 75 64 65 62 57 56 55 57 57 54 50 45 38 28 16 14 13 13 14 14 12 11 9 6 5 5 5 6 7
27 40 31 24 24 16 40 69 92 93 89 69 61 64 88 96 99 89 87 92 87 68 66 66 68 65 60 60 61 60 53 48 40 29 18 13 12 13 14 14 14 12 9 7 6 6 7 6 8
35 64 45 28 36 19 32 76 87 98 94 90 67 62 93 96 96 87 97 98 96 91 74 66 64 69 68 67 67 64 60 52 45 26 20 14 13 13 14 16 16 15 11 8 6 6 7 7 8
31 47 76 43 45 32 28 100 94 100 74 76 80 69 76 92 97 96 96 97 92 99 91 79 76 70 71 68 68 67 63 56 48 31 17 15 12 13 16 18 18 17 14 10 7 7 7 7 8
62 63 79 65 55 46 34 94 84 98 68 55 69 84 95 88 96 96 96 96 96 93 93 100 96 87 88 81 72 65 63 58 47 32 24 16 15 14 16 19 20 20 17 13 10 8 8 8 8
76 76 75 71 66 57 46 98 78 96 99 73 73 84 91 91 96 96 94 97 97 96 97 96 98 100 96 88 81 72 65 55 43 31 20 17 17 14 17 19 20 22 22 20 17 14 12 11 11
97 100 84 93 72 56 58 99 68 99 100 94 71 90 90 83 98 96 96 100 97 97 97 96 97 96 93 88 78 69 60 52 43 31 20 18 16 16 18 18 20 21 25 27 26 24 24 23 22
100 100 100 100 73 42 50 98 67 88 99 83 86 100 94 95 96 97 94 94 98 94 96 97 97 95 94 90 85 67 61 43 40 39 25 18 16 17 17 16 18 20 23 26 30 31 31 31 32
100 100 99 82 61 41 68 73 72 78 94 99 92 86 82 88 92 92 90 92 93 96 95 96 95 80 90 96 92 93 97 66 39 30 34 28 21 30 29 19 23 27 31 27 25 29 34 35 34
94 98 100 86 59 50 90 97 100 65 69 76 96 97 97 88 73 76 82 94 92 96 96 96 93 98 97 96 99 99 99 84 60 63 48 67 63 60 46 39 42 48 45 25 20 25 30 37 39
96 100 100 94 55 82 99 100 98 76 76 72 78 96 97 97 78 79 86 93 96 97 94 96 94 95 97 94 95 100 98 93 96 94 77 88 87 76 56 53 55 50 42 30 23 18 24 28 36
92 98 98 98 56 83 100 98 100 85 74 78 92 93 94 95 95 95 96 97 98 92 94 96 95 96 96 96 89 96 97 95 95 95 95 96 94 78 74 76 73 75 64 47 37 25 24 22 27
96 90 100 96 71 85 99 100 96 91 86 80 96 92 97 97 97 96 97 97 97 97 95 93 91 96 97 96 94 95 91 96 95 96 94 98 98 98 95 93 90 93 92 75 67 51 41 29 24
96 85 91 99 80 92 100 98 99 88 90 90 100 94 97 97 98 97 96 95 95 95 94 93 96 97 95 95 95 96 96 92 97 94 99 95 98 97 96 97 97 97 98 97 98 96 86 52 33
95 88 91 99 98 99 99 99 100 91 98 100 96 98 93 84 89 94 96 96 95 89 94 95 98 96 95 93 94 95 97 97 97 97 97 97 95 95 97 98 97 96 97 94 97 95 96 92 97
96 78 72 90 92 99 98 99 95 93 98 100 97 97 95 96 97 99 100 93 96 96 98 99 93 97 94 86 96 96 96 96 96 96 95 96 96 96 94 96 97 97 97 97 96 97 96 95 96
100 79 66 92 76 100 99 99 99 100 93 77 75 93 97 90 97 97 96 93 91 84 80 67 81 69 77 51 66 89 83 92 93 96 97 96 97 97 96 96 97 97 96 96 96 97 97 97 97
100 75 54 61 62 94 100 96 98 87 98 72 98 99 82 97 99 92 86 77 68 73 82 70 59 57 62 43 34 53 79 83 85 97 97 97 96 96 96 96 97 97 97 95 96 96 96 97 96
100 86 50 53 55 86 97 96 83 78 83 94 83 96 96 99 98 96 95 77 76 75 64 65 57 53 48 32 28 38 46 61 48 73 61 51 36 78 92 96 96 94 94 93 95 97 97 96 94
73 86 79 62 58 70 94 99 82 88 90 92 98 72 97 98 91 89 87 82 80 79 62 53 46 44 37 31 28 29 44 48 39 39 37 24 24 23 27 38 29 43 46 69 62 65 88 79 72
100 85 93 99 80 62 82 100 91 92 90 76 84 98 100 98 99 97 98 96 84 71 64 58 53 47 43 38 36 37 41 39 34 28 31 32 33 29 21 16 16 26 35 37 44 57 58 70 88
90 100 94 87 81 79 94 98 86 82 97 100 88 73 73 86 90 96 98 94 76 58 52 54 50 44 46 42 46 40 36 28 25 28 34 35 28 18 16 15 22 28 23 25 46 50 51 64 79
81 77 62 89 89 72 67 80 89 79 70 75 97 97 77 74 84 82 75 73 69 64 62 59 51 45 45 47 42 40 35 27 27 23 22 20 19 19 19 18 18 18 19 27 48 66 70 67 78

GFSSGP_500_rhum_096.txt.gz
RH
3 2 2 2 3 3 3 2 2 8 16 63 46 81 93 83 56 44 34 38 42 49 48 44 44 36 29 29 36 39 35 32 21 11 7 6 5 6 6 6 6 6 6 5 4 2 2 1 2
3 2 2 2 4 3 3 2 2 4 12 40 82 64 98 89 72 54 35 42 48 51 52 46 42 41 32 29 37 40 37 34 27 15 8 7 6 7 7 6 6 6 6 5 5 3 2 2 2
3 3 2 2 3 4 3 3 2 4 9 25 81 64 90 94 83 66 47 40 51 58 56 51 41 39 36 31 35 40 40 38 32 23 13 8 8 6 6 6 7 7 6 6 5 4 2 2 2
3 3 3 3 4 3 3 3 2 5 10 20 65 82 77 96 79 78 62 44 48 63 64 54 47 40 36 34 38 41 43 40 34 29 21 16 12 6 7 6 7 7 6 6 5 4 3 3 3
3 3 3 2 2 3 3 3 4 8 8 18 38 42 72 97 95 90 77 53 45 52 64 59 51 44 36 34 42 42 43 43 37 31 27 20 14 7 9 8 8 8 8 7 6 4 3 3 4
3 3 3 2 3 4 5 4 7 13 17 13 26 38 71 94 94 90 96 70 54 48 58 60 56 47 38 38 42 45 43 44 40 32 25 19 14 10 11 10 10 9 9 8 6 5 4 4 4
4 3 3 2 3 5 7 7 8 16 32 18 24 37 45 90 96 92 97 90 66 58 53 60 60 51 44 42 46 48 46 45 43 38 29 21 15 13 12 12 11 11 10 9 7 6 5 4 5
4 4 2 2 3 6 11 8 10 23 48 36 24 30 36 89 97 99 82 77 79 62 58 58 60 54 49 46 47 48 48 48 44 40 32 25 18 15 14 13 12 12 11 10 8 6 5 5 6
4 4 2 3 5 9 14 12 12 31 55 51 30 30 38 86 93 92 78 97 98 78 70 64 64 59 56 50 48 47 50 50 47 43 37 29 22 17 14 14 14 13 12 11 9 7 6 6 6
4 4 4 6 11 19 19 17 16 42 50 59 38 33 45 56 87 100 86 97 97 97 84 76 74 69 63 56 54 52 52 53 50 45 40 34 24 16 13 12 13 13 13 12 10 9 7 6 7
5 5 12 11 20 40 22 22 22 26 56 63 47 40 51 47 77 97 97 96 95 96 98 100 82 80 70 62 60 59 56 56 55 51 43 35 28 20 14 13 13 13 13 13 12 10 9 7 7
8 20 22 18 26 81 48 29 30 24 55 71 72 60 65 52 44 96 98 99 97 96 98 96 97 100 89 76 69 67 65 59 59 54 48 43 30 22 15 13 14 14 14 15 14 13 11 10 8
36 43 41 42 39 73 70 38 40 27 45 87 96 75 90 74 56 92 94 97 93 97 96 95 97 98 100 94 89 81 74 64 60 54 54 49 36 23 16 14 13 14 15 15 15 16 14 12 10
69 65 59 67 62 61 87 42 54 53 53 75 92 80 72 90 75 87 95 94 95 96 96 96 94 96 100 99 96 94 82 75 70 64 58 52 42 28 18 18 15 16 17 18 18 19 20 18 17
71 65 86 81 75 69 88 59 53 65 71 62 100 78 70 98 88 89 94 98 96 96 97 96 98 97 96 96 95 96 85 79 72 68 59 49 41 31 20 17 15 18 19 20 21 24 22 24 26
85 94 79 83 86 84 68 66 76 74 64 82 98 72 69 97 98 95 91 91 97 93 96 96 96 98 96 98 94 85 85 73 65 56 51 40 31 27 19 18 38 18 20 19 22 21 21 26 28
100 100 100 98 96 79 74 73 70 71 65 96 98 66 69 94 98 93 87 84 93 95 95 96 96 96 95 94 92 80 76 67 68 56 55 40 26 25 24 47 60 19 56 24 25 38 47 35 25
99 90 99 100 87 83 68 80 72 89 88 93 97 81 72 94 96 95 97 93 85 94 96 93 94 96 97 92 88 89 73 77 65 75 94 52 49 37 29 83 50 42 62 28 41 51 47 32 26
100 93 99 100 79 76 59 73 80 99 87 97 99 88 77 92 96 98 75 75 78 85 90 96 95 95 96 96 96 97 86 93 98 99 97 57 62 43 83 95 94 72 36 44 71 70 72 43 40
96 92 90 100 100 61 53 82 99 92 72 99 99 97 85 97 98 97 93 77 73 72 89 96 96 96 96 97 94 98 96 95 100 96 93 94 68 93 84 88 96 76 65 81 86 76 97 91 76
89 100 99 100 94 82 99 97 95 68 75 81 85 77 90 94 97 97 97 99 92 96 97 97 97 97 96 97 97 94 96 100 92 94 97 93 94 90 94 97 98 96 95 94 95 97 97 94 98
86 90 95 100 98 99 98 99 97 100 84 58 82 72 94 96 97 96 96 97 97 96 97 96 97 97 97 96 96 98 97 88 90 93 91 96 100 96 98 97 97 96 96 98 99 95 90 84 85
91 69 98 100 84 100 93 100 85 97 98 72 79 82 97 97 96 97 96 96 96 97 97 97 97 96 97 92 93 98 97 98 98 94 97 96 97 97 97 96 97 96 97 96 97 97 97 97 97
94 74 100 98 97 95 96 99 99 94 86 83 90 99 98 96 95 97 98 98 97 96 97 94 93 89 93 95 94 96 96 95 97 96 97 96 97 97 97 97 97 97 96 97 96 97 97 96 96
100 76 87 75 75 100 100 98 90 98 92 94 93 96 100 97 94 94 90 91 91 94 95 94 90 79 82 78 84 90 90 96 96 96 96 95 97 97 97 97 97 96 96 97 97 96 95 95 96
97 56 51 58 60 97 100 100 97 98 90 78 95 82 90 82 84 89 90 94 90 95 97 92 78 67 65 66 65 62 90 85 71 86 94 95 96 96 95 97 96 94 95 91 79 48 54 55 64
88 57 50 57 54 91 98 100 100 90 79 76 86 80 81 91 96 98 97 93 93 85 90 79 72 71 66 63 59 50 37 39 49 68 60 70 71 54 54 71 71 58 38 40 42 42 29 22 26
82 64 51 44 47 60 98 97 94 100 82 100 92 77 97 99 98 95 97 96 82 84 74 73 78 69 59 55 52 47 41 36 38 52 48 42 44 38 37 35 32 32 23 18 16 13 13 11 13
96 83 74 52 40 47 68 87 91 99 97 90 95 96 96 83 84 97 96 90 94 90 80 77 71 65 59 57 56 50 46 40 46 56 44 37 32 28 29 32 35 28 16 15 15 16 15 15 15
100 93 73 62 54 68 64 66 86 98 83 81 92 96 88 93 96 95 96 97 98 99 94 78 75 60 57 56 54 47 50 50 49 46 41 33 28 27 26 26 27 20 18 17 16 16 15 16 21

GFSSGP_500_rhum_099.txt.gz
RH
14 12 6 5 4 5 7 5 4 4 4 4 4 3 11 57 97 89 49 31 31 30 34 48 49 46 41 35 33 29 28 29 30 22 11 9 8 7 6 5 6 6 6 6 5 4 2 2 1
16 12 6 5 6 6 6 4 3 3 4 4 3 2 7 47 82 88 65 42 31 33 34 49 51 52 44 35 30 31 28 28 30 28 16 8 7 6 6 6 6 6 6 6 5 4 3 2 2
16 11 7 6 5 6 4 4 3 3 4 3 3 2 4 18 35 90 90 61 38 33 34 49 56 53 51 41 33 33 32 31 30 30 22 12 8 7 7 6 6 7 7 6 6 5 3 2 2
14 10 8 8 7 5 4 3 3 3 3 3 2 3 3 14 25 66 97 82 48 41 36 43 58 59 56 49 39 34 35 32 34 34 27 22 11 10 6 6 6 7 7 7 6 5 4 3 3
17 11 10 9 7 4 4 3 3 3 3 3 3 2 2 7 30 64 93 97 70 50 44 43 46 61 60 52 42 34 37 35 35 37 33 26 20 15 8 7 7 8 8 9 8 6 5 4 4
22 15 11 10 7 4 3 2 2 2 3 3 3 3 3 5 23 59 88 96 85 56 51 49 48 52 58 60 48 40 38 38 38 40 37 30 24 16 11 9 10 9 9 9 9 7 5 4 4
26 19 13 10 7 5 3 2 2 3 3 3 4 7 3 4 22 45 73 93 97 76 59 59 59 60 56 62 56 48 44 42 42 40 39 34 26 18 14 11 12 11 11 11 10 8 6 5 4
25 19 15 12 8 6 3 3 3 3 3 4 5 4 5 4 16 35 90 97 96 97 70 70 60 66 61 59 60 52 50 45 46 43 41 37 30 23 17 15 12 12 12 12 11 9 8 6 5
26 21 17 13 8 5 3 3 3 3 3 4 5 8 5 33 7 40 82 96 82 90 91 88 68 61 66 58 60 58 54 48 50 48 44 40 31 25 21 18 15 13 13 14 11 10 9 7 6
27 22 18 13 7 4 3 3 3 4 4 4 5 7 10 12 7 27 72 97 78 96 96 96 93 70 68 63 58 60 63 60 54 52 47 43 36 28 21 18 16 15 14 14 12 12 11 9 7
23 24 14 10 4 3 3 3 4 3 7 19 8 10 16 17 30 11 53 98 95 80 97 97 95 77 76 74 66 60 62 59 58 53 48 45 39 30 26 18 16 14 13 13 12 11 11 10 9
26 18 8 4 3 3 2 3 6 5 8 31 18 16 33 16 84 24 36 97 99 96 96 96 98 81 80 87 87 72 64 60 57 57 53 46 41 35 28 25 19 15 13 13 13 13 12 11 11
16 7 4 3 3 5 8 7 10 10 14 39 47 21 36 26 96 68 21 92 98 96 95 94 98 96 85 94 93 90 77 71 67 64 59 54 49 41 35 28 22 17 14 15 13 12 12 14 13
5 4 4 7 11 30 26 15 17 14 22 60 20 26 54 63 97 97 39 70 96 96 92 95 96 96 98 99 96 93 87 79 76 72 66 61 55 47 42 34 26 19 14 14 13 14 14 16 15
8 10 22 34 38 41 45 34 23 36 43 38 29 28 51 69 78 97 96 53 93 98 92 96 96 96 95 96 97 100 93 90 86 81 72 65 57 49 45 36 27 22 18 14 16 17 20 19 18
30 45 72 69 57 67 87 47 43 62 76 33 46 30 52 84 70 96 95 94 87 95 95 95 96 97 96 97 95 97 97 96 95 88 75 66 57 52 44 35 26 25 21 21 45 65 21 21 24
51 51 72 94 96 76 52 80 73 100 62 58 32 33 56 86 67 96 94 86 79 95 97 96 95 97 96 97 96 95 89 89 91 90 71 55 47 41 38 33 29 36 22 28 85 44 24 30 21
69 63 60 92 100 59 91 100 80 98 57 74 48 40 70 87 62 95 97 99 83 95 95 96 94 94 96 96 95 93 87 88 88 84 65 61 52 54 43 57 44 30 27 41 93 30 75 51 23
78 56 71 100 100 55 99 100 100 96 56 85 63 48 68 91 54 97 98 97 95 96 92 91 93 97 97 96 96 94 90 88 91 82 74 68 88 87 68 88 39 42 52 46 90 31 69 28 27
57 56 92 86 93 74 93 97 95 85 77 78 70 49 99 86 63 93 96 96 98 96 96 90 96 94 94 95 96 97 96 90 85 80 89 94 93 88 74 72 61 58 50 39 86 93 46 38 78
68 92 100 100 85 81 67 68 69 87 88 80 81 97 92 85 88 96 95 96 96 95 91 78 96 96 98 96 96 96 94 94 96 95 95 94 91 95 95 94 50 81 45 95 95 96 88 94 97
74 98 100 100 95 97 84 99 99 99 89 94 92 98 95 81 96 97 96 97 99 96 89 94 91 94 94 96 96 97 98 97 95 96 96 92 94 95 96 92 91 82 92 96 97 96 97 96 97
71 95 100 99 100 100 100 100 100 57 53 65 95 96 96 98 94 97 98 93 97 96 98 97 97 97 97 97 97 96 97 96 95 96 96 95 96 94 94 96 96 96 96 96 96 97 96 97 97
85 99 100 99 97 99 98 99 100 66 49 56 73 90 100 98 96 95 94 97 96 96 96 97 96 96 97 97 97 97 97 97 97 96 96 93 96 94 95 96 97 97 97 97 96 97 97 96 97
100 100 100 100 98 100 99 100 96 99 92 73 80 63 95 98 96 96 94 96 97 97 96 96 96 95 95 95 97 96 98 96 97 96 97 97 96 96 95 97 94 98 98 97 97 97 96 96 96
100 100 100 99 100 100 98 100 98 99 97 94 76 64 98 96 97 97 97 96 94 93 93 95 94 95 95 97 93 91 91 94 97 98 98 97 97 97 97 97 97 97 96 96 96 97 96 94 87
81 86 79 80 100 96 99 98 98 97 98 91 78 92 98 98 96 95 94 96 96 96 94 90 91 87 91 92 76 88 92 82 90 92 91 89 94 94 94 96 97 99 97 96 94 93 81 69 52
65 52 53 52 94 97 100 99 98 90 77 83 83 92 87 87 78 98 94 100 93 99 88 82 85 78 76 76 67 68 71 72 60 51 59 78 70 66 76 91 86 82 73 74 82 68 59 43 34
63 52 48 52 74 100 97 99 89 99 76 62 88 94 94 93 98 93 97 98 97 82 83 81 76 72 67 72 72 62 55 52 52 48 46 39 40 46 54 50 53 69 51 48 44 40 30 20 17
55 49 46 41 50 62 62 75 70 78 83 98 99 98 85 89 86 72 60 62 75 66 68 70 69 69 62 63 63 61 57 55 55 51 48 44 39 49 49 44 43 64 66 46 33 29 24 19 18

GFSSGP_500_rhum_102.txt.gz
RH
22 22 19 18 14 12 11 7 5 6 5 4 4 4 4 4 6 68 68 34 29 29 30 32 30 36 42 44 45 41 33 28 29 28 25 14 10 10 8 6 6 6 6 6 6 5 3 2 1
26 24 22 18 14 13 12 8 6 4 4 4 3 4 4 5 3 6 51 54 42 41 41 35 32 42 48 49 48 44 36 30 28 31 29 23 10 8 6 6 6 6 6 6 6 5 4 2 2
31 26 19 19 14 14 13 8 6 5 5 4 3 3 3 4 3 3 8 64 72 62 51 42 40 42 53 52 51 46 40 33 30 29 29 26 16 7 6 6 6 6 7 7 6 6 5 3 2
34 30 21 17 17 16 13 9 7 6 6 5 4 5 4 4 10 8 7 25 92 76 62 53 44 47 55 53 54 48 43 38 35 31 28 29 22 9 7 7 6 6 7 7 7 6 5 4 3
38 33 26 18 18 19 13 9 7 6 5 5 5 5 5 4 4 6 11 5 27 71 73 55 50 45 60 56 55 54 48 43 39 36 30 33 26 14 10 9 6 6 7 8 10 9 6 5 4
47 42 28 24 29 23 16 11 10 8 6 4 4 4 3 3 4 3 6 5 12 51 91 60 53 47 54 63 56 56 51 47 44 41 36 33 34 23 20 11 8 8 8 9 10 10 8 6 5
60 52 35 30 27 28 21 14 11 9 6 5 4 3 5 4 4 3 2 4 19 32 97 69 56 55 52 64 60 55 55 51 48 43 38 34 38 28 23 15 11 10 11 11 11 11 10 7 6
73 56 40 39 39 32 26 18 14 11 9 6 4 4 5 5 4 6 4 2 8 37 87 84 72 64 62 65 66 61 58 54 51 46 39 38 40 36 28 22 16 12 13 12 13 12 11 10 7
75 65 50 55 50 38 28 21 15 12 10 9 5 4 4 3 4 3 28 4 10 23 80 97 89 64 62 68 74 70 64 59 54 54 47 42 41 38 34 26 17 14 13 13 14 14 11 11 10
72 61 54 54 51 47 37 26 19 14 13 12 7 4 3 3 3 7 7 5 3 15 61 83 86 82 74 67 76 75 71 65 58 58 53 45 45 42 36 28 21 16 16 15 14 14 13 12 11
77 66 63 57 50 48 45 35 24 19 17 13 8 4 3 3 3 2 4 17 3 12 55 81 96 96 81 64 61 82 76 74 61 61 58 47 49 47 39 32 26 21 19 16 15 14 13 12 11
59 59 56 47 42 44 44 39 33 26 20 13 6 5 3 3 3 3 16 43 4 14 56 94 94 74 70 74 53 84 88 77 72 62 55 56 55 50 44 38 34 29 22 18 14 13 13 12 12
47 39 41 45 43 43 38 37 35 28 21 9 4 3 3 3 3 2 12 71 5 8 73 86 96 96 96 94 69 82 92 85 80 73 58 58 58 52 47 44 39 34 28 20 18 15 14 13 13
22 21 20 20 20 19 19 19 14 13 4 4 3 3 3 2 2 4 28 45 27 14 32 95 96 96 97 97 80 82 90 86 86 76 67 65 60 56 51 47 43 34 28 22 20 16 15 14 13
16 15 12 11 8 6 5 5 4 4 4 6 6 5 6 4 5 5 36 72 84 40 28 82 95 96 96 96 93 96 100 98 92 81 75 70 65 62 59 55 48 35 34 28 21 18 15 15 16
17 14 14 15 24 30 28 10 16 10 12 8 10 8 9 82 29 7 45 97 98 100 47 82 94 96 96 96 96 95 94 100 97 92 84 78 73 72 65 60 56 44 37 34 25 20 18 19 31
32 38 27 41 46 47 55 20 18 23 27 23 14 17 84 78 42 47 82 96 95 95 87 85 97 96 96 97 97 97 97 98 97 94 92 84 79 77 70 64 58 46 40 34 26 25 67 26 58
52 40 37 39 74 95 49 61 48 60 80 23 31 26 100 71 16 72 95 84 95 97 96 93 96 97 91 94 96 96 98 97 97 96 96 90 84 80 74 66 57 43 37 30 28 44 57 32 52
46 40 43 60 92 61 49 56 58 95 97 48 95 96 90 68 20 76 96 95 98 98 100 93 90 96 94 95 96 98 96 94 100 96 94 88 84 81 75 66 54 42 34 32 62 62 33 39 83
34 35 53 76 88 57 57 65 63 97 100 93 71 97 66 40 27 85 94 93 96 98 96 93 95 96 89 96 95 98 96 95 97 98 98 96 93 87 82 78 62 51 60 54 92 44 65 88 59
44 50 88 94 82 79 88 63 57 66 82 50 60 62 29 43 36 87 98 96 97 97 98 92 95 96 95 91 94 96 97 98 93 96 95 95 90 86 82 89 85 76 95 93 59 63 90 56 72
72 77 90 96 96 100 96 98 88 96 62 58 69 46 25 68 87 96 96 96 97 97 96 97 98 97 91 96 97 88 97 96 97 95 95 95 94 94 94 95 94 96 96 95 97 87 86 78 95
98 99 96 85 100 99 100 100 94 100 90 77 85 46 63 88 96 96 98 94 97 97 95 98 94 96 96 89 96 97 95 98 96 96 94 97 94 96 95 97 96 95 94 98 92 72 93 96 96
90 93 96 95 100 100 98 97 100 100 100 97 74 62 92 99 96 97 97 97 97 97 96 100 89 91 95 97 94 96 97 96 96 97 95 96 96 96 96 96 97 96 96 96 95 96 96 96 95
100 100 100 100 99 100 100 100 99 99 94 93 97 100 95 99 98 98 95 97 97 99 97 94 96 97 98 96 97 98 97 97 97 97 97 97 97 96 97 96 95 96 97 97 92 96 97 97 97
99 97 100 100 100 100 99 100 100 100 70 74 94 98 97 97 98 100 96 95 95 97 97 97 98 97 97 97 98 96 97 98 96 96 97 96 96 93 98 98 97 94 97 96 80 95 97 93 94
93 94 100 100 98 99 96 99 99 98 96 64 68 85 92 98 98 97 96 96 96 95 97 96 95 96 96 97 96 96 96 95 96 95 96 95 96 96 98 97 98 97 97 97 96 97 96 97 96
76 75 94 98 100 99 99 90 96 99 100 100 99 93 97 98 95 95 94 92 91 91 89 95 93 94 91 86 85 88 91 91 94 90 86 82 94 97 98 96 90 94 92 96 95 96 92 97 91
51 62 92 97 100 100 89 90 93 95 100 98 98 96 96 88 85 80 91 94 96 84 80 78 92 92 88 92 83 65 64 68 71 75 88 77 59 52 57 60 80 77 77 84 85 92 75 80 58
50 45 60 84 88 85 86 95 96 89 80 88 94 95 94 97 99 82 85 80 65 80 73 59 58 62 70 69 63 63 69 62 60 58 57 56 54 52 49 49 47 55 63 57 58 70 72 88 58

GFSSGP_500_rhum_105.txt.gz
RH
20 18 16 12 14 14 14 14 12 9 6 5 5 4 4 4 4 4 3 9 51 53 50 34 30 27 32 35 43 44 43 41 36 32 30 25 20 10 9 8 6 6 6 6 7 5 4 2 2
27 21 16 13 12 14 17 16 14 11 7 5 5 5 5 4 4 5 4 4 20 61 59 53 37 33 32 38 42 44 42 44 40 34 30 29 25 11 8 8 6 6 6 6 9 6 5 3 2
29 25 20 12 10 13 22 20 16 13 10 8 5 5 6 8 5 4 4 3 24 47 76 74 46 40 38 37 49 45 44 46 43 39 33 31 29 17 8 6 6 6 7 6 11 7 6 4 3
40 26 23 12 13 23 24 23 16 15 11 7 5 7 7 9 9 5 4 7 5 6 33 60 66 42 46 42 54 53 47 49 46 42 38 31 30 24 11 7 7 7 6 7 10 12 9 6 4
40 40 28 16 15 24 24 29 23 17 14 9 7 7 8 9 9 8 5 4 4 4 6 32 58 45 42 48 51 59 54 50 47 46 43 35 32 29 14 9 8 7 6 6 9 13 13 8 5
48 45 33 25 24 29 30 34 31 23 16 10 8 8 8 9 10 9 7 4 5 4 4 73 72 62 42 50 56 62 61 56 49 46 46 41 35 33 24 15 10 7 7 7 8 12 14 12 8
62 52 38 36 36 29 40 40 31 28 21 14 10 9 8 10 11 11 12 6 11 10 4 10 60 71 55 46 58 66 64 61 55 47 46 44 38 36 32 26 18 10 8 9 10 12 14 13 12
70 62 51 41 44 44 50 46 37 29 26 20 13 11 10 10 12 14 13 8 29 52 34 15 28 37 72 56 47 61 70 65 60 51 44 46 43 37 38 31 23 16 11 11 12 13 14 13 13
48 64 53 61 60 56 57 45 39 32 25 25 17 14 11 10 10 13 14 11 4 6 44 37 35 43 73 72 50 50 67 66 61 56 48 43 48 43 40 36 26 20 15 13 12 13 15 14 12
50 49 62 71 62 53 53 54 50 40 31 29 22 17 15 13 12 13 15 14 7 4 6 48 34 54 68 95 58 51 52 60 67 64 57 51 45 49 43 40 34 24 18 15 14 14 14 15 14
52 40 62 66 68 64 52 48 48 46 46 41 36 19 17 16 15 14 15 17 9 4 4 6 41 98 72 84 74 61 52 60 64 63 60 54 44 50 50 44 38 30 24 19 18 19 16 15 14
44 49 55 60 60 60 59 57 50 47 44 46 43 37 24 21 18 17 16 18 11 6 4 3 6 36 71 96 95 82 63 60 64 64 62 56 51 49 51 52 45 35 29 23 22 20 16 15 13
39 37 39 41 48 52 54 54 53 51 52 50 47 44 37 29 25 21 20 20 14 7 5 3 5 6 50 96 86 76 68 62 63 71 70 69 60 55 52 55 50 42 33 26 25 22 18 15 14
33 31 32 31 31 34 38 43 44 43 50 50 49 40 41 35 33 28 24 20 18 9 5 3 4 5 44 97 97 95 88 78 80 83 77 79 70 92 59 59 52 42 37 36 32 26 22 19 16
38 31 26 21 21 20 25 28 16 15 22 28 31 39 37 39 34 28 28 16 8 4 4 3 13 8 17 88 94 96 83 83 82 69 81 96 77 74 68 58 51 46 39 40 37 33 29 23 18
34 28 15 14 15 14 13 21 22 18 16 18 18 17 15 16 19 15 24 11 5 4 4 44 72 74 6 32 100 97 97 92 93 70 84 93 88 73 69 63 58 50 48 42 38 33 29 25 23
30 16 15 20 17 15 14 19 23 14 9 8 8 8 8 6 7 6 6 5 4 10 20 51 51 60 12 25 93 96 97 98 98 95 89 99 89 80 72 68 64 59 57 53 48 42 35 29 23
18 17 20 25 28 39 33 25 24 15 8 5 5 4 4 5 6 5 4 5 3 17 74 98 94 86 24 49 96 96 96 96 96 96 98 96 92 86 79 75 72 67 64 58 52 45 35 30 25
30 22 28 30 45 51 34 31 39 48 91 51 36 13 7 10 11 8 9 8 5 93 100 98 100 100 35 94 95 96 96 97 96 96 95 95 89 87 86 84 78 74 72 65 57 48 29 26 26
29 28 34 49 91 57 59 44 42 61 60 60 73 83 25 35 19 78 39 75 97 97 94 97 100 98 61 95 95 96 96 97 98 96 95 98 99 96 94 90 86 79 77 68 56 36 29 32 57
29 31 57 67 61 72 78 58 34 39 46 42 67 89 56 99 97 83 65 84 94 94 99 100 100 100 80 95 93 96 97 96 96 97 99 99 97 96 94 89 83 74 70 72 64 80 89 95 89
38 54 64 49 66 81 94 90 82 60 78 53 50 55 54 72 86 68 94 97 95 97 99 98 97 100 90 93 96 98 94 97 96 96 98 99 98 96 96 96 94 93 94 94 98 97 98 96 95
62 72 65 82 91 100 100 87 100 100 62 54 59 56 63 70 76 58 95 95 98 96 97 99 97 99 96 97 95 93 96 96 96 96 96 95 96 96 94 96 97 94 96 98 96 97 97 96 97
75 83 98 100 98 100 98 100 100 87 75 90 74 35 44 77 99 96 95 98 94 95 97 96 97 96 99 94 95 96 97 96 97 95 96 98 96 95 92 96 95 95 94 97 96 94 96 96 97
99 98 100 100 100 96 96 96 100 99 100 54 38 53 93 95 98 99 96 96 98 97 97 97 96 96 96 97 95 97 96 96 97 97 97 97 97 97 96 95 95 96 97 96 95 98 95 97 97
100 100 100 100 95 99 99 98 99 97 100 96 91 98 99 97 96 97 97 96 96 97 98 97 96 96 96 96 98 98 97 96 97 97 96 96 97 98 97 94 98 100 97 97 95 98 91 94 94
100 100 100 100 100 100 97 100 96 86 98 99 99 98 98 99 97 96 97 96 98 97 97 97 97 97 98 98 98 97 98 96 97 96 97 96 97 99 98 97 93 94 97 97 97 87 98 94 95
99 100 100 96 99 98 99 96 99 97 85 95 98 98 98 95 98 97 98 98 96 97 97 98 98 98 97 96 96 97 98 96 96 97 97 95 96 95 97 96 96 97 95 96 97 96 96 96 96
99 98 99 97 98 98 92 98 100 99 98 95 93 95 93 97 96 98 98 98 96 96 94 92 94 94 93 93 93 96 93 88 90 86 82 80 83 83 72 74 64 61 56 61 68 82 83 82 85
92 98 99 98 97 94 68 94 94 98 97 94 98 99 96 98 96 96 97 76 93 85 78 79 77 76 80 76 66 60 58 58 58 58 61 60 60 70 72 66 58 49 45 45 44 51 70 76 69

GFSSGP_500_rhum_108.txt.gz
RH
16 13 12 10 11 9 13 15 14 14 11 6 5 5 6 6 5 4 5 4 3 6 29 54 38 29 22 22 25 35 50 43 47 43 39 34 28 15 14 12 8 6 6 6 8 8 5 3 2
18 18 14 12 11 8 20 20 19 18 14 12 9 7 6 7 8 5 5 4 3 4 18 42 52 41 28 23 25 30 46 48 46 46 41 36 30 24 10 10 9 6 6 6 7 11 6 4 2
17 18 20 14 9 10 25 24 22 18 16 14 12 10 9 8 7 7 5 5 4 4 8 58 67 63 39 30 26 28 36 50 46 47 44 39 34 30 20 8 8 6 6 7 7 12 9 6 4
29 23 21 15 11 22 35 33 26 19 18 15 14 11 11 10 8 7 8 5 4 4 5 20 60 68 57 32 26 28 33 45 48 48 48 43 38 34 27 13 7 6 7 7 7 11 15 12 5
55 43 28 19 18 29 41 39 32 26 23 20 16 13 12 11 11 9 8 10 6 5 6 7 24 68 64 48 30 25 29 45 52 48 53 50 44 37 32 23 8 7 8 7 6 9 14 15 9
41 56 49 36 29 40 37 52 45 34 27 22 18 15 13 12 10 42 19 10 13 6 4 4 3 13 56 60 39 30 26 41 57 52 51 53 49 42 35 28 17 8 9 7 6 7 11 14 14
8 12 34 49 48 40 52 54 43 40 33 31 20 18 15 13 12 11 67 41 22 17 6 4 9 7 13 49 46 33 32 34 56 58 49 48 48 48 40 34 26 18 12 8 8 8 10 14 16
9 8 8 13 44 52 58 55 47 40 43 41 32 24 19 15 13 11 28 63 44 30 33 11 18 20 34 35 39 43 34 37 57 62 54 49 48 47 48 39 34 29 15 10 9 10 11 14 16
13 10 8 8 15 42 62 52 51 43 40 42 38 33 26 20 16 13 11 25 74 46 34 15 26 50 31 43 60 60 39 38 48 66 62 54 51 46 49 46 39 31 21 15 12 11 12 14 16
16 13 13 19 14 16 45 57 61 46 40 47 44 37 31 25 21 19 16 14 17 31 15 11 7 20 31 31 38 65 65 41 41 62 71 60 57 50 49 49 44 36 26 16 14 13 13 13 14
18 16 18 22 20 15 24 47 54 59 46 47 49 45 39 32 26 23 20 19 16 13 11 10 10 7 5 20 40 53 58 71 42 44 71 71 60 55 50 52 49 40 29 23 18 15 15 16 16
20 21 20 22 31 28 22 37 50 49 52 53 53 52 46 41 35 30 27 22 19 17 14 14 13 10 7 5 29 55 63 79 68 43 62 77 66 60 54 56 53 47 39 28 22 20 18 17 16
23 24 33 37 35 31 24 21 44 48 50 60 55 50 49 42 38 36 34 32 25 21 18 17 16 16 9 4 5 39 54 67 81 57 48 72 73 71 64 63 56 53 50 41 28 21 20 20 20
24 20 25 30 31 27 25 31 25 37 52 52 57 56 50 45 39 37 34 35 32 25 22 20 19 19 16 7 5 16 57 80 81 76 56 62 78 76 78 93 60 53 54 49 42 34 28 27 25
24 32 46 41 35 28 22 22 28 31 34 38 43 49 55 51 46 36 34 33 37 33 28 25 23 20 20 12 5 6 45 96 90 82 72 58 78 96 79 78 59 58 56 52 46 39 35 29 24
26 33 46 38 27 20 17 15 21 23 27 30 33 36 41 47 49 46 39 32 36 41 35 30 29 25 20 9 5 5 32 34 80 92 84 67 70 73 77 69 87 86 58 53 49 41 34 30 28
24 23 32 29 22 18 19 16 28 19 19 21 24 28 30 32 36 36 40 42 39 41 39 28 31 28 19 6 7 7 9 56 94 96 93 96 76 64 81 96 94 64 61 57 49 40 34 37 41
37 36 33 28 24 17 12 11 19 17 17 18 18 19 20 23 27 28 32 32 33 34 33 30 28 18 12 7 7 7 11 34 96 97 87 94 92 90 96 95 88 76 66 60 55 48 47 48 50
47 40 20 21 15 11 26 23 26 19 14 16 16 16 17 16 18 18 17 22 28 27 21 16 8 8 6 9 21 21 21 15 91 96 96 96 90 93 87 91 89 80 76 69 64 63 60 54 54
26 17 23 23 17 27 44 44 32 42 48 44 45 33 18 8 8 9 10 10 10 11 9 7 11 37 59 71 49 84 46 15 24 94 94 96 96 96 96 91 88 82 82 78 72 70 63 63 60
31 26 21 28 42 53 65 65 38 38 44 34 36 39 45 14 9 6 7 6 8 6 6 5 72 98 85 95 79 82 94 28 16 84 91 94 96 96 95 96 92 93 90 94 76 70 68 58 60
32 24 36 42 51 57 81 73 81 90 70 64 52 39 48 55 35 28 54 54 24 14 14 26 85 84 91 84 66 92 100 64 68 96 93 97 97 95 95 96 95 93 93 96 93 90 71 55 71
37 51 52 68 77 87 99 85 95 98 100 72 44 56 47 98 88 90 92 49 95 79 91 100 96 96 98 97 100 98 97 96 96 95 95 96 97 96 97 97 96 97 84 82 94 96 97 96 96
55 82 100 100 87 82 100 99 87 60 67 59 64 60 54 79 90 84 87 97 98 99 98 98 97 96 97 97 97 97 88 95 97 96 94 96 97 97 98 97 96 96 96 96 96 96 95 97 96
97 100 100 100 98 99 100 99 65 97 76 39 47 69 91 75 94 98 97 98 98 95 98 97 97 96 97 96 97 98 96 96 97 97 96 96 97 97 96 97 97 96 96 97 97 97 97 97 97
93 98 99 95 100 95 98 98 86 93 93 93 98 98 99 98 98 98 98 96 97 96 97 98 97 96 97 96 97 96 97 98 93 96 97 96 97 96 96 96 97 97 95 92 91 87 93 97 96
100 99 98 99 100 100 97 99 98 99 99 98 99 99 99 98 99 98 98 97 97 98 97 97 96 97 96 97 97 97 96 96 96 96 97 97 96 96 96 95 97 98 90 74 77 94 96 90 89
100 95 97 97 99 98 99 98 98 99 98 99 99 99 99 98 97 98 98 98 98 97 97 98 97 97 96 96 97 97 97 98 96 96 98 97 96 96 92 96 96 97 90 92 94 93 96 97 97
100 97 97 92 83 98 98 100 98 98 98 98 97 98 98 98 100 99 98 97 97 97 97 97 97 97 97 97 98 98 98 96 96 97 96 96 95 92 92 93 92 77 61 75 85 81 84 84 76
100 98 99 93 94 100 84 98 100 98 98 99 98 98 97 98 96 96 97 97 96 96 96 96 96 96 96 96 96 96 92 79 66 71 57 58 54 55 56 57 61 60 61 59 58 51 46 44 52

GFSSGP_500_rhum_111.txt.gz
RH
16 16 14 12 14 11 12 14 13 13 12 12 11 8 5 6 6 5 5 4 3 2 4 27 38 32 23 16 13 17 22 26 35 38 39 38 36 28 17 14 12 10 7 6 6 9 8 5 3
16 16 15 14 12 12 24 23 21 18 13 13 12 12 9 6 6 7 6 5 4 3 2 4 28 37 29 23 20 16 20 23 32 36 39 41 36 32 23 12 10 10 8 6 6 9 11 6 4
29 21 18 14 10 13 22 30 26 22 16 14 13 12 11 10 6 6 7 6 5 4 3 2 7 38 36 24 24 18 14 21 25 37 39 44 40 35 32 22 9 8 8 6 7 8 11 13 7
28 42 31 25 18 17 26 24 31 26 20 17 15 14 13 12 10 7 7 7 5 5 4 3 3 23 39 37 26 23 18 15 21 28 37 42 44 36 35 31 19 7 6 6 7 7 11 15 15
7 10 30 40 31 28 32 32 27 30 23 19 15 15 14 13 12 9 8 15 9 6 5 4 4 17 46 42 40 30 25 19 16 23 33 40 44 43 35 32 29 15 7 7 7 7 8 13 15
7 6 8 13 39 46 42 37 34 31 26 23 19 18 16 13 13 12 12 21 42 18 8 6 5 8 31 44 49 40 31 25 21 19 29 42 41 45 42 36 32 27 12 8 7 6 7 11 14
10 8 6 6 8 29 57 48 34 36 30 25 21 22 20 17 16 13 20 25 41 68 46 8 6 4 5 12 33 41 41 35 28 25 26 38 46 46 42 37 37 31 24 10 9 7 7 9 12
12 10 8 7 7 8 22 52 48 39 42 33 24 22 24 21 19 15 12 21 36 70 69 61 10 5 5 7 6 34 55 38 35 28 27 37 50 49 44 43 40 38 33 26 15 8 8 9 10
15 12 10 9 9 8 10 11 32 50 47 45 40 28 24 23 25 22 16 12 21 43 76 67 62 17 8 8 14 11 29 59 51 35 34 34 50 58 53 47 46 42 39 35 19 12 10 10 11
20 15 14 13 12 10 10 8 9 21 52 52 47 44 34 28 26 28 23 16 12 18 36 75 63 41 20 17 23 25 20 26 38 47 34 33 50 63 62 51 50 48 42 38 21 17 12 11 12
23 19 21 18 15 11 11 11 12 10 19 60 59 52 46 36 31 29 30 24 18 14 12 15 60 32 14 11 39 30 28 31 39 48 48 32 41 62 65 64 54 54 48 41 32 21 16 13 13
27 25 24 24 24 16 13 12 11 10 14 35 61 61 55 43 39 35 32 31 25 20 16 14 17 20 12 12 11 7 10 16 24 44 54 48 41 52 68 70 66 57 52 45 40 30 22 17 15
37 34 31 30 28 24 17 14 13 12 11 29 52 54 57 46 38 33 33 30 30 27 23 20 20 18 11 10 15 14 8 6 18 40 45 58 60 51 61 75 71 63 52 51 47 42 34 24 20
45 39 39 38 37 28 22 16 14 21 19 17 18 48 53 53 47 39 36 36 30 31 30 28 23 17 14 12 13 16 16 7 6 10 30 52 59 60 49 67 80 75 59 52 52 48 43 35 27
45 40 38 37 35 30 23 17 17 23 18 16 19 21 48 53 53 47 43 41 38 31 32 32 35 28 20 17 17 17 19 16 7 6 7 53 56 61 53 53 70 78 71 60 52 51 51 46 38
44 38 38 34 31 26 22 21 35 30 24 19 14 18 28 51 52 53 48 42 40 40 35 36 36 36 23 18 15 18 21 19 12 7 8 17 88 96 81 55 65 76 73 72 61 52 53 55 44
38 39 39 31 25 22 21 22 32 25 19 16 14 16 24 29 43 45 48 47 42 39 39 37 36 42 38 22 21 22 23 22 17 7 8 14 69 95 92 67 61 73 81 78 84 64 58 57 49
44 41 32 28 44 21 16 14 22 21 16 17 16 16 16 23 30 34 37 41 46 43 40 38 35 39 43 39 35 29 28 22 14 7 8 11 87 97 98 94 71 75 92 82 84 92 66 60 50
41 30 27 37 37 34 38 31 24 15 14 12 12 13 16 16 20 31 32 32 34 37 42 42 42 43 45 43 39 35 32 24 13 8 8 6 48 69 97 96 96 96 72 98 97 96 72 62 64
33 31 35 40 38 29 14 12 30 36 44 27 19 16 14 15 17 20 22 29 32 31 32 37 38 41 42 40 38 34 26 16 9 11 9 6 25 88 96 96 99 97 92 69 98 96 92 73 71
46 48 36 22 14 21 34 35 60 55 50 38 53 43 36 30 19 13 16 18 19 22 28 32 34 33 31 31 23 16 10 9 11 14 10 6 15 92 96 95 96 95 96 96 96 95 94 78 75
26 20 17 18 34 46 55 38 71 86 77 77 70 69 56 37 37 22 10 12 17 18 19 25 29 27 24 17 12 12 14 20 28 20 17 18 20 94 96 96 97 95 94 95 99 93 84 87 79
20 27 39 48 58 66 92 73 84 89 95 89 62 47 36 39 64 12 10 8 9 13 15 18 18 16 11 9 19 30 43 33 51 100 38 34 32 87 96 94 97 96 96 95 94 92 95 94 94
47 61 87 81 79 91 100 98 87 58 61 51 47 44 43 66 86 87 66 64 59 55 56 44 13 7 27 75 74 78 72 64 96 76 93 81 76 54 56 76 95 97 96 96 98 98 97 96 94
78 91 96 94 89 96 99 89 71 71 46 54 58 69 78 86 89 97 98 92 82 93 84 13 21 88 85 91 82 93 98 98 95 97 95 97 98 99 73 96 96 97 96 96 97 97 95 97 94
92 99 80 77 72 94 98 98 97 90 81 90 93 96 98 99 99 98 97 99 100 100 100 97 99 100 100 96 95 97 97 97 97 97 97 97 96 95 96 97 97 96 96 97 96 96 98 97 90
98 96 76 74 89 98 99 99 98 98 98 98 98 98 99 100 95 99 97 97 98 98 98 98 100 98 97 97 96 97 97 93 95 97 97 96 96 95 96 97 97 95 95 96 98 96 92 86 89
94 72 70 83 96 98 99 98 98 99 98 99 98 99 99 99 99 98 97 97 97 97 96 93 96 97 97 97 97 97 97 97 96 97 97 95 95 96 97 96 94 96 95 96 95 91 74 72 91
88 89 92 96 97 97 98 98 98 98 98 98 98 98 98 98 99 98 98 98 98 97 98 97 97 97 96 97 97 96 94 94 94 95 94 95 97 97 96 94 94 95 95 96 93 54 73 83 87
96 94 99 87 97 100 91 98 98 98 98 98 98 98 97 98 98 98 98 98 97 97 97 97 97 96 96 98 97 96 97 95 96 95 95 93 91 85 66 62 65 52 56 51 61 56 57 68 67

GFSSGP_500_rhum_114.txt.gz
RH
14 15 15 15 12 10 10 14 16 14 11 11 11 11 8 7 6 6 6 6 5 4 3 3 7 30 23 20 15 11 14 17 21 30 28 25 31 36 27 19 15 12 9 8 7 7 12 8 5
20 15 14 15 14 12 14 14 16 14 13 11 11 12 11 8 8 8 7 6 5 4 4 2 4 12 29 23 19 16 12 15 16 21 30 26 25 33 32 25 12 11 10 8 7 7 12 13 10
37 34 22 16 13 17 20 20 16 13 12 14 12 12 12 12 10 9 7 7 7 6 5 4 2 3 10 24 26 20 15 12 16 18 24 31 27 28 32 31 25 11 8 8 7 7 10 14 16
13 29 39 34 24 22 22 23 20 16 11 11 14 13 12 12 12 10 9 8 8 7 6 5 4 3 5 17 26 27 19 16 14 15 18 27 30 30 26 29 32 26 10 7 7 7 7 12 16
6 6 8 13 30 40 32 28 23 21 16 12 13 14 15 13 13 12 10 10 7 7 7 6 6 5 3 6 16 30 26 19 18 16 18 19 30 32 28 26 29 31 25 9 7 7 7 9 14
8 7 7 7 8 17 38 38 27 24 22 18 14 16 14 14 16 14 13 16 36 9 14 10 7 6 4 4 8 24 34 28 22 19 19 20 26 30 34 31 30 29 29 23 9 8 7 7 11
9 8 8 9 8 8 14 18 34 36 25 23 19 18 14 14 15 16 14 11 32 49 26 55 15 8 10 6 9 24 35 37 35 25 22 22 24 30 30 32 33 30 28 30 20 9 8 7 8
12 10 10 10 9 8 9 7 7 14 38 30 22 23 24 17 15 17 16 12 11 37 45 38 74 41 19 17 9 15 36 50 45 45 31 22 23 28 33 34 35 37 35 30 30 24 11 8 8
15 12 12 12 12 10 9 8 7 6 7 28 39 29 26 26 20 19 20 17 14 12 30 54 66 81 64 10 7 5 5 5 37 57 46 34 26 25 33 43 38 38 38 38 34 33 26 9 9
17 16 16 15 14 13 12 10 8 7 6 6 17 42 40 32 26 24 24 22 18 14 11 25 40 74 74 55 14 6 7 10 8 22 53 53 43 30 28 35 50 42 40 44 43 34 31 15 11
21 19 21 20 18 16 15 13 10 9 8 8 8 15 37 49 37 27 24 25 22 18 12 11 24 64 67 59 50 19 13 13 20 14 19 43 52 48 34 36 54 56 46 46 47 43 36 25 18
26 24 26 26 23 20 19 16 14 11 9 10 10 9 11 31 48 42 29 25 28 24 20 13 13 38 60 44 53 22 14 20 29 28 23 23 28 43 47 37 47 63 60 52 50 48 41 38 26
33 32 30 30 30 23 21 20 17 12 14 11 11 9 9 11 37 53 45 34 29 32 27 19 14 20 23 33 46 29 15 16 14 12 19 16 20 44 60 47 41 50 65 63 56 52 47 42 40
44 42 39 35 33 31 28 23 18 19 15 13 11 10 9 8 11 32 53 48 40 34 36 30 21 25 17 16 46 32 14 13 14 12 8 7 22 42 59 72 55 48 57 68 63 58 57 51 46
49 44 42 39 38 34 28 22 18 15 13 12 13 12 12 12 9 14 43 56 54 44 38 38 32 24 20 19 20 21 16 11 13 16 15 8 7 7 23 64 76 70 55 55 60 62 64 60 54
55 49 48 44 42 35 28 21 20 18 17 12 12 13 13 13 17 16 15 41 55 55 47 41 38 32 28 23 21 21 17 14 13 16 18 17 9 7 8 16 58 75 74 61 54 67 67 64 61
55 46 37 29 27 23 20 15 19 24 25 20 19 17 20 22 18 15 16 17 46 51 55 50 45 43 35 30 27 23 20 18 15 16 18 20 15 9 9 13 42 92 83 77 61 54 64 69 73
36 29 23 21 28 19 16 15 22 25 24 20 21 26 24 19 15 14 12 15 22 46 49 52 50 47 47 43 38 35 28 22 20 17 20 22 22 11 9 12 46 97 95 96 96 70 81 66 90
26 19 16 33 37 28 28 21 20 29 24 26 22 18 16 14 12 12 14 12 19 31 46 45 49 48 46 46 46 44 36 24 23 20 26 26 24 17 8 11 44 99 97 96 88 97 69 68 85
16 22 35 34 34 27 24 23 29 29 25 18 16 15 17 18 18 17 16 15 16 26 35 45 44 46 46 45 47 48 45 43 40 39 35 30 27 19 8 9 45 84 96 96 97 96 89 84 86
42 39 36 28 30 35 29 28 22 18 27 56 32 33 34 24 12 11 11 12 15 18 28 36 44 46 44 44 46 48 46 44 43 40 38 34 28 17 9 8 15 56 94 97 96 96 96 97 92
42 33 29 32 27 17 28 21 43 62 80 69 43 48 56 60 51 36 27 18 11 15 20 29 35 39 44 44 42 45 47 43 38 37 36 28 19 11 13 13 10 29 70 72 96 95 97 96 95
34 34 22 23 34 37 66 56 66 82 96 89 76 61 68 62 47 34 25 17 10 12 15 20 28 33 34 36 36 40 41 35 31 26 16 14 16 19 14 17 19 59 96 98 96 97 97 97 96
22 33 52 63 51 69 87 99 95 82 70 67 34 28 41 33 39 74 75 29 8 6 8 13 19 22 24 24 25 31 32 26 18 12 21 42 30 39 52 68 59 51 99 97 95 86 80 84 95
59 77 60 59 76 89 89 94 77 58 49 42 34 38 48 76 99 78 90 100 78 33 8 11 12 15 17 18 19 19 15 15 32 42 37 74 79 88 74 97 90 71 94 94 97 96 96 97 97
81 67 60 66 78 86 91 95 97 92 88 93 97 98 100 98 98 98 100 95 99 98 87 63 46 32 20 17 13 15 19 67 91 93 76 94 96 97 97 98 98 100 91 92 95 93 96 96 95
69 67 74 77 89 97 95 97 98 97 99 98 99 100 91 98 95 97 81 100 95 98 100 100 54 18 25 45 85 98 87 97 99 99 97 97 97 97 97 97 97 98 97 98 95 95 96 96 97
70 70 85 97 98 98 97 96 97 98 96 96 98 96 97 99 99 95 98 99 99 100 100 89 99 100 100 92 99 86 93 92 89 96 96 97 97 96 96 96 96 97 96 96 97 97 97 96 96
92 96 97 99 97 97 99 96 96 96 96 94 99 98 98 98 98 98 97 98 97 98 97 99 97 99 98 98 98 95 98 96 96 97 97 97 96 96 97 96 96 96 97 97 96 96 96 96 87
85 96 96 96 98 97 93 91 98 98 96 98 98 99 99 99 99 97 98 97 97 99 97 97 97 97 97 97 97 96 96 96 96 96 96 97 96 97 96 93 92 87 91 82 62 70 91 77 74

GFSSGP_500_rhum_117.txt.gz
RH
15 14 14 14 14 11 12 12 11 11 11 9 9 11 10 9 6 6 7 7 6 5 4 3 3 9 24 32 22 19 13 14 18 18 26 26 23 30 30 26 19 16 12 11 8 7 12 12 10
19 16 14 13 14 13 16 17 12 10 11 10 10 10 11 11 10 9 8 7 6 6 5 4 3 2 4 17 28 24 18 13 12 16 18 27 26 22 30 27 21 13 12 11 9 7 10 13 14
29 29 21 16 14 13 16 19 14 12 9 10 10 9 10 11 11 10 9 9 8 7 6 6 5 4 3 3 20 30 24 18 14 12 17 23 29 26 21 27 27 20 11 10 9 7 7 12 16
8 18 29 32 23 18 15 15 15 15 12 10 10 9 9 10 11 12 11 10 8 7 7 7 6 7 8 9 4 17 35 26 19 13 14 20 26 30 38 25 27 28 24 11 7 7 7 9 14
6 7 10 18 34 35 28 20 17 13 13 14 13 10 9 9 10 11 12 11 9 7 7 7 7 6 7 8 6 7 12 32 28 18 14 15 20 27 43 40 25 25 27 28 14 7 7 7 11
7 7 7 7 13 19 24 31 34 27 19 14 14 14 12 11 10 11 12 12 11 8 14 11 8 11 10 7 11 10 6 13 33 27 19 15 15 21 37 44 33 28 24 28 28 16 8 7 7
8 8 8 8 10 9 7 7 9 22 34 29 19 14 13 12 13 12 14 13 13 12 19 67 37 16 11 9 7 6 12 12 25 37 29 21 20 19 30 36 35 34 28 25 27 28 14 9 7
10 10 9 8 9 11 10 8 6 6 10 22 33 29 19 16 14 16 16 16 15 14 12 28 69 52 50 14 12 16 8 9 20 31 38 38 28 24 18 23 31 35 35 27 26 26 28 21 12
12 11 12 12 10 10 10 10 9 8 6 6 10 28 35 27 21 15 16 18 17 16 14 12 45 64 49 65 33 59 33 15 15 30 44 46 41 35 25 22 24 37 41 37 31 29 26 28 28
14 13 14 14 13 12 12 12 11 10 9 7 6 6 12 28 34 28 20 18 20 18 16 13 12 29 58 57 72 66 37 21 11 6 7 17 47 55 41 28 28 27 43 49 41 36 31 29 30
20 18 17 15 14 15 15 14 13 13 11 11 9 8 6 5 6 20 36 26 20 22 23 17 15 13 28 60 58 64 60 9 6 7 8 11 9 35 57 47 35 33 32 45 51 46 40 36 33
26 23 20 20 19 18 18 17 16 14 15 14 10 10 9 8 6 5 6 32 33 23 24 24 19 15 12 27 33 42 65 61 18 15 14 19 21 13 36 61 58 47 37 36 50 54 50 45 42
34 33 32 28 24 21 20 22 19 16 19 14 15 12 10 9 8 7 6 5 18 38 28 32 26 19 13 20 23 47 53 65 52 23 17 28 28 25 24 33 53 52 50 45 46 54 56 52 49
47 45 41 38 34 29 25 24 21 27 20 19 16 15 12 10 10 9 8 7 5 11 41 38 36 27 21 15 15 41 36 40 39 15 21 20 13 20 21 31 35 43 49 51 49 52 60 60 57
56 54 50 46 42 35 31 28 27 25 25 25 22 19 15 12 10 9 9 9 8 6 8 41 40 39 31 23 17 19 45 28 39 26 19 13 14 11 8 26 48 52 64 66 68 63 59 65 66
66 62 58 55 50 44 38 30 35 33 31 27 23 20 16 14 11 9 8 10 10 8 6 9 45 45 43 36 22 16 39 19 37 37 19 13 14 16 12 8 9 22 52 62 64 78 80 63 58
73 66 62 58 52 45 40 32 31 28 25 24 22 19 16 15 12 10 8 7 10 11 9 8 13 48 48 46 38 23 20 17 19 43 28 13 14 16 17 16 10 9 13 22 41 61 84 96 74
68 64 61 52 41 35 31 27 22 12 12 15 14 15 15 13 11 8 8 8 12 13 13 12 10 24 52 50 47 38 26 21 20 23 31 16 13 16 18 18 17 12 10 11 90 61 87 96 96
66 55 40 29 20 20 16 19 15 16 20 15 17 14 12 11 14 15 16 17 16 16 16 15 14 16 42 53 51 45 36 28 24 22 28 25 15 15 18 20 21 19 11 16 34 93 95 97 94
40 23 13 12 13 15 16 13 14 25 29 26 22 20 20 20 21 20 17 16 16 19 18 15 14 14 22 50 56 55 48 38 31 29 27 23 19 18 17 21 24 24 18 10 21 80 87 98 96
13 11 13 13 20 23 22 17 21 23 22 18 19 20 19 19 20 18 15 14 14 14 13 13 12 13 15 31 55 58 56 52 46 42 40 37 31 22 18 27 31 28 24 11 9 65 97 97 96
18 22 24 29 27 23 27 17 39 42 59 60 55 29 27 38 47 42 34 27 21 12 13 12 13 15 15 21 42 54 59 56 52 50 45 44 42 39 39 39 35 32 29 19 8 9 61 96 99
32 31 27 22 20 24 37 38 66 82 86 78 66 62 61 49 46 47 54 50 40 34 18 13 14 16 16 18 31 46 52 55 54 51 52 48 46 43 41 40 36 34 27 14 12 12 14 90 92
32 30 23 21 31 44 63 79 95 86 68 65 50 37 28 27 30 38 43 41 53 46 25 14 13 13 15 17 24 36 44 47 50 54 52 49 46 41 37 33 19 14 12 15 14 14 17 86 94
23 30 38 48 60 68 77 68 84 91 57 50 47 44 48 60 61 68 71 82 100 98 30 11 10 12 14 16 24 31 36 37 37 39 41 41 36 29 19 16 25 37 26 37 33 32 53 99 96
62 59 54 58 70 65 76 90 85 85 93 91 97 95 89 96 94 97 99 100 98 99 31 16 12 10 13 15 20 24 23 24 28 31 32 28 22 14 31 46 67 82 97 91 82 81 97 97 85
74 71 71 72 68 88 99 93 97 95 92 96 99 99 99 96 97 82 95 100 100 100 100 72 60 47 36 20 19 18 16 14 16 18 19 21 32 46 72 68 87 91 98 99 96 97 92 94 96
87 87 93 90 94 96 97 98 98 90 86 87 86 99 98 100 97 98 94 96 96 100 100 100 100 94 57 39 23 29 57 50 65 83 69 81 80 83 90 91 96 97 95 96 94 97 97 97 97
97 96 94 97 97 98 97 99 97 93 81 82 100 95 98 99 98 97 98 99 98 98 97 100 100 97 96 100 100 100 97 89 88 98 97 98 97 98 97 97 96 97 96 97 96 96 97 97 97
93 95 99 97 97 99 98 93 97 100 99 98 98 99 98 99 98 98 96 96 98 98 98 100 98 100 99 99 99 100 100 97 98 97 100 97 96 96 98 96 97 96 96 95 95 94 89 86 68